[[{"header":{"parameterUnit":"m.s-1","parameterCategory":1,"la1":31.0,"la2":29.5877,"lo1":-88.7671,"lo2":-86.6584,"dy":0.0162,"dx":0.0185,"nx":115,"ny":88,"refTime":"2024-03-31T06:00:00:Z","depth":0,"parameterNumber":2,"parameterNumberName":"U-component_of_WINDS"},"data":[0.0,0.0,0.0,0.0,0.0,0.0,0.0,0.0,0.0,0.0,0.0,0.0,0.0,0.0,0.0,0.0,0.0,0.0,0.0,0.0,0.0,0.0,0.0,0.0,0.0,0.0,0.0,0.0,0.0,0.0,0.0,0.0,0.0,0.0,0.0,0.0,0.0,0.0,0.0,0.0,0.0,0.0,0.0,0.0,0.0,0.0,0.0,0.0,0.0,0.0,0.0,0.0,0.0,0.0,0.0,0.0,0.0,0.0,0.0,0.0,0.0,0.0,0.0,0.0,0.0,0.0,0.0,0.0,0.0,0.0,0.0,0.0,0.0,0.0,0.0,0.0,0.0,0.0,0.0,0.0,0.0,0.0,0.0,0.0,0.0,0.0,0.0,0.0,0.0,0.0,0.0,0.0,0.0,0.0,0.0,0.0,0.0,0.0,0.0,0.0,0.0,0.0,0.0,0.0,0.0,0.0,0.0,0.0,0.0,0.0,0.0,0.0,0.0,0.0,0.0,0.0,0.0,0.0,0.0,0.0,0.0,0.0,0.0,0.0,0.0,0.0,0.0,0.0,0.0,0.0,0.0,0.0,0.0,0.0,0.0,0.0,0.0,0.0,0.0,0.0,0.0,0.0,0.0,0.0,0.0,0.0,0.0,0.0,0.0,0.0,0.0,0.0,0.0,0.0,0.0,0.0,0.0,0.0,0.0,0.0,0.0,0.0,0.0,0.0,0.0,0.0,0.0,0.0,0.0,0.0,0.0,0.0,0.0,0.0,0.0,0.0,0.0,0.0,0.0,0.0,0.0,0.0,0.0,0.0,0.0,0.0,0.0,0.0,0.0,0.0,0.0,0.0,0.0,0.0,0.0,0.0,0.0,0.0,0.0,0.0,0.0,0.0,0.0,0.0,0.0,0.0,0.0,0.0,0.0,0.0,0.0,0.0,0.0,0.0,0.0,0.0,0.0,0.0,0.0,0.0,0.0,0.0,0.0,0.0,0.0,0.0,0.0,0.0,0.0,0.0,0.0,0.0,0.0,0.0,0.0,0.0,0.0,0.0,0.0,0.0,0.0,0.0,0.0,0.0,0.0,0.0,0.0,0.0,0.0,0.0,0.0,0.0,0.0,0.0,0.0,0.0,0.0,0.0,0.0,0.0,0.0,0.0,0.0,0.0,0.0,0.0,0.0,0.0,0.0,0.0,0.0,0.0,0.0,0.0,0.0,0.0,0.0,0.0,0.0,0.0,0.0,0.0,0.0,0.0,0.0,0.0,0.0,0.0,0.0,0.0,0.0,0.0,0.0,0.0,0.0,0.0,0.0,0.0,0.0,0.0,0.0,0.0,0.0,0.0,0.0,0.0,0.0,0.0,0.0,0.0,0.0,0.0,0.0,0.0,0.0,0.0,0.0,0.0,0.0,0.0,0.0,0.0,0.0,0.0,0.0,0.0,0.0,0.0,0.0,0.0,0.0,0.0,0.0,0.0,0.0,0.0,0.0,0.0,0.0,0.0,0.0,0.0,0.0,0.0,0.0,0.0,0.0,0.0,0.0,0.0,0.0,0.0,0.0,0.0,0.0,0.0,0.0,0.0,0.0,0.0,0.0,0.0,0.0,0.0,0.0,0.0,0.0,0.0,0.0,0.0,0.0,0.0,0.0,0.0,0.0,0.0,0.0,0.0,0.0,0.0,0.0,0.0,0.0,0.0,0.0,0.0,0.0,0.0,0.0,0.0,0.0,0.0,0.0,0.0,0.0,0.0,0.0,0.0,0.0,0.0,0.0,0.0,0.0,0.0,0.0,0.0,0.0,0.0,0.0,0.0,0.0,0.0,0.0,0.0,0.0,0.0,0.0,0.0,0.0,0.0,0.0,0.0,0.0,0.0,0.0,0.0,0.0,0.0,0.0,0.0,0.0,0.0,0.0,0.0,0.0,0.0,0.0,0.0,0.0,0.0,0.0,0.0,0.0,0.0,0.0,0.0,0.0,0.0,0.0,0.0,0.0,0.0,0.0,0.0,0.0,0.0,0.0,0.0,0.0,0.0,0.0,0.0,0.0,0.0,0.0,0.0,0.0,0.0,0.0,0.0,0.0,0.0,0.0,0.0,0.0,0.0,0.0,0.0,0.0,0.0,0.0,0.0,0.0,0.0,0.0,0.0,0.0,0.0,0.0,0.0,0.0,0.0,0.0,0.0,0.0,0.0,0.0,0.0,0.0,0.0,0.0,0.0,0.0,0.0,0.0,0.0,0.0,0.0,0.0,0.0,0.0,0.0,0.0,0.0,0.0,0.0,0.0,0.0,0.0,0.0,0.0,0.0,0.0,0.0,0.0,0.0,0.0,0.0,0.0,0.0,0.0,0.0,0.0,0.0,0.0,0.0,0.0,0.0,0.0,0.0,0.0,0.0,0.0,0.0,0.0,0.0,0.0,0.0,0.0,0.0,0.0,0.0,0.0,0.0,0.0,0.0,0.0,0.0,0.0,0.0,0.0,0.0,0.0,0.0,0.0,0.0,0.0,0.0,0.0,0.0,0.0,0.0,0.0,0.0,0.0,0.0,0.0,0.0,0.0,0.0,0.0,0.0,0.0,0.0,0.0,0.0,0.0,0.0,0.0,0.0,0.0,0.0,0.0,0.0,0.0,0.0,0.0,0.0,0.0,0.0,0.0,0.0,0.0,0.0,0.0,0.0,0.0,0.0,0.0,0.0,0.0,0.0,0.0,0.0,0.0,0.0,0.0,0.0,0.0,0.0,0.0,0.0,0.0,0.0,0.0,0.0,0.0,0.0,0.0,0.0,0.0,0.0,0.0,0.0,0.0,0.0,0.0,0.0,0.0,0.0,0.0,0.0,0.0,0.0,0.0,0.0,0.0,0.0,0.0,0.0,0.0,0.0,0.0,0.0,0.0,0.0,0.0,0.0,0.0,0.0,0.0,0.0,0.0,0.0,0.0,0.0,0.0,0.0,0.0,0.0,0.0,0.0,0.0,0.0,0.0,0.0,0.0,0.0,0.0,0.0,0.0,0.0,0.0,0.0,0.0,0.0,0.0,0.0,0.0,0.0,0.0,0.0,0.0,0.0,0.0,0.0,0.0,0.0,0.0,0.0,0.0,0.0,0.0,0.0,0.0,0.0,0.0,0.0,0.0,0.0,0.0,0.0,0.0,0.0,0.0,0.0,0.0,0.0,0.0,0.0,0.0,0.0,0.0,0.0,0.0,0.0,0.0,0.0,0.0,0.0,0.0,0.0,0.0,0.0,0.0,0.0,0.0,0.0,0.0,0.0,0.0,0.0,0.0,0.0,0.0,0.0,0.0,0.0,0.0,0.0,0.0,0.0,0.0,0.0,0.0,0.0,0.0,0.0,0.0,0.0,0.0,0.0,0.0,0.0,0.0,0.0,0.0,0.0,0.0,0.0,0.0,0.0,0.0,0.0,0.0,0.0,0.0,0.0,0.0,0.0,0.0,0.0,0.0,0.0,0.0,0.0,0.0,0.0,0.0,0.0,0.0,0.0,0.0,0.0,0.0,0.0,0.0,0.0,0.0,0.0,0.0,0.0,0.0,0.0,0.0,0.0,0.0,0.0,0.0,0.0,0.0,0.0,0.0,0.0,0.0,0.0,0.0,0.0,0.0,0.0,0.0,0.0,0.0,0.0,0.0,0.0,0.0,0.0,0.0,0.0,0.0,0.0,0.0,0.0,0.0,0.0,0.0,0.0,0.0,0.0,0.0,0.0,0.0,0.0,0.0,0.0,0.0,0.0,0.0,0.0,0.0,0.0,0.0,0.0,0.0,0.0,0.0,0.0,0.0,0.0,0.0,0.0,0.0,0.0,0.0,0.0,0.0,0.0,0.0,0.0,0.0,0.0,0.0,0.0,0.0,0.0,0.0,0.0,0.0,0.0,0.0,0.0,0.0,0.0,0.0,0.0,0.0,0.0,0.0,0.0,0.0,0.0,0.0,0.0,0.0,0.0,0.0,0.0,0.0,0.0,0.0,0.0,0.0,0.0,0.0,0.0,0.0,0.0,0.0,0.0,0.0,0.0,0.0,0.0,0.0,0.0,0.0,0.0,0.0,0.0,0.0,0.0,0.0,0.0,0.0,0.0,0.0,0.0,0.0,0.0,0.0,0.0,0.0,0.0,0.0,0.0,0.0,0.0,0.0,0.0,0.0,0.0,0.0,0.0,0.0,0.0,0.0,0.0,0.0,0.0,0.0,0.0,0.0,0.0,0.0,0.0,0.0,0.0,0.0,0.0,0.0,0.0,0.0,0.0,0.0,0.0,-4.8067,0.0,0.0,0.0,0.0,0.0,0.0,0.0,0.0,0.0,0.0,0.0,0.0,0.0,0.0,0.0,0.0,0.0,0.0,0.0,0.0,0.0,0.0,0.0,0.0,0.0,0.0,0.0,0.0,0.0,0.0,0.0,0.0,0.0,0.0,0.0,0.0,0.0,0.0,0.0,0.0,0.0,0.0,0.0,0.0,0.0,0.0,0.0,0.0,0.0,0.0,0.0,0.0,0.0,0.0,0.0,0.0,0.0,0.0,0.0,0.0,0.0,0.0,0.0,0.0,0.0,0.0,0.0,0.0,0.0,0.0,0.0,0.0,0.0,0.0,0.0,0.0,0.0,0.0,0.0,0.0,0.0,0.0,0.0,0.0,0.0,0.0,0.0,0.0,0.0,0.0,0.0,0.0,0.0,0.0,0.0,0.0,0.0,0.0,0.0,0.0,0.0,0.0,0.0,0.0,0.0,0.0,0.0,0.0,0.0,0.0,-5.0284,-5.0663,-4.9092,-4.8179,-4.8067,0.0,0.0,0.0,0.0,0.0,0.0,0.0,0.0,0.0,0.0,0.0,0.0,0.0,0.0,0.0,0.0,0.0,0.0,0.0,0.0,0.0,0.0,0.0,0.0,0.0,0.0,0.0,0.0,0.0,0.0,0.0,0.0,0.0,0.0,0.0,0.0,0.0,0.0,0.0,0.0,0.0,0.0,0.0,0.0,0.0,0.0,0.0,0.0,0.0,0.0,0.0,0.0,0.0,0.0,0.0,0.0,0.0,0.0,0.0,0.0,0.0,0.0,0.0,0.0,0.0,0.0,0.0,0.0,0.0,0.0,0.0,0.0,0.0,0.0,0.0,0.0,0.0,0.0,0.0,0.0,0.0,0.0,0.0,0.0,0.0,0.0,0.0,0.0,0.0,0.0,0.0,0.0,0.0,0.0,0.0,0.0,0.0,0.0,0.0,0.0,0.0,0.0,0.0,0.0,0.0,0.0,0.0,0.0,0.0,0.0,0.0,0.0,-4.9264,-4.8284,-4.7836,0.0,0.0,0.0,0.0,0.0,0.0,0.0,0.0,0.0,0.0,0.0,0.0,0.0,0.0,0.0,0.0,0.0,0.0,0.0,0.0,0.0,0.0,0.0,0.0,0.0,0.0,0.0,0.0,0.0,0.0,0.0,0.0,0.0,0.0,0.0,0.0,0.0,0.0,0.0,0.0,0.0,0.0,0.0,0.0,0.0,0.0,0.0,0.0,0.0,0.0,0.0,0.0,0.0,0.0,0.0,0.0,0.0,0.0,0.0,0.0,0.0,0.0,0.0,0.0,0.0,0.0,0.0,0.0,0.0,0.0,0.0,0.0,0.0,0.0,0.0,0.0,0.0,0.0,0.0,0.0,0.0,0.0,0.0,0.0,0.0,0.0,0.0,0.0,0.0,0.0,0.0,0.0,0.0,0.0,0.0,0.0,0.0,0.0,0.0,0.0,0.0,0.0,0.0,0.0,0.0,0.0,0.0,0.0,0.0,0.0,-5.0082,-5.0833,-4.9903,0.0,-4.7182,0.0,0.0,0.0,0.0,0.0,0.0,0.0,0.0,0.0,0.0,0.0,0.0,0.0,0.0,0.0,0.0,0.0,0.0,0.0,0.0,0.0,0.0,0.0,0.0,0.0,0.0,0.0,0.0,0.0,0.0,0.0,0.0,0.0,0.0,0.0,0.0,0.0,0.0,0.0,0.0,0.0,0.0,0.0,0.0,0.0,0.0,0.0,0.0,0.0,0.0,0.0,0.0,0.0,0.0,0.0,0.0,0.0,0.0,0.0,0.0,0.0,0.0,0.0,0.0,0.0,0.0,0.0,0.0,0.0,0.0,0.0,0.0,0.0,0.0,0.0,0.0,0.0,0.0,0.0,0.0,0.0,0.0,0.0,0.0,0.0,0.0,0.0,0.0,0.0,0.0,0.0,0.0,0.0,0.0,0.0,0.0,0.0,0.0,0.0,0.0,0.0,0.0,0.0,0.0,0.0,0.0,0.0,0.0,0.0,0.0,-4.9369,-5.0167,-4.9249,-4.7917,0.0,0.0,0.0,0.0,0.0,0.0,0.0,0.0,0.0,0.0,0.0,0.0,0.0,0.0,0.0,0.0,0.0,0.0,0.0,0.0,0.0,0.0,0.0,0.0,0.0,0.0,0.0,0.0,0.0,0.0,0.0,0.0,0.0,0.0,0.0,0.0,0.0,0.0,0.0,0.0,0.0,0.0,0.0,0.0,0.0,0.0,0.0,0.0,0.0,0.0,0.0,0.0,0.0,0.0,0.0,0.0,0.0,0.0,0.0,0.0,0.0,0.0,0.0,0.0,0.0,0.0,0.0,0.0,0.0,0.0,0.0,0.0,0.0,0.0,0.0,0.0,0.0,0.0,0.0,0.0,0.0,0.0,0.0,0.0,0.0,0.0,0.0,0.0,0.0,0.0,0.0,0.0,0.0,0.0,0.0,0.0,0.0,0.0,0.0,0.0,0.0,0.0,0.0,0.0,0.0,0.0,0.0,0.0,0.0,0.0,-4.856,-4.8896,-4.9615,-4.8984,-4.7651,-4.5671,0.0,0.0,0.0,0.0,0.0,0.0,0.0,0.0,0.0,0.0,0.0,0.0,0.0,0.0,0.0,0.0,0.0,0.0,0.0,0.0,0.0,0.0,0.0,0.0,0.0,0.0,0.0,0.0,0.0,0.0,0.0,0.0,0.0,0.0,0.0,0.0,0.0,0.0,0.0,0.0,0.0,0.0,0.0,0.0,0.0,0.0,0.0,0.0,0.0,0.0,0.0,0.0,0.0,0.0,0.0,0.0,0.0,0.0,0.0,0.0,0.0,0.0,0.0,0.0,0.0,0.0,0.0,0.0,0.0,0.0,0.0,0.0,0.0,0.0,0.0,0.0,0.0,0.0,0.0,0.0,0.0,0.0,0.0,0.0,0.0,0.0,0.0,0.0,0.0,0.0,0.0,0.0,0.0,0.0,0.0,0.0,0.0,0.0,0.0,0.0,0.0,0.0,0.0,0.0,0.0,0.0,0.0,0.0,-4.8534,-4.8569,-4.8934,-4.9653,-4.9588,-4.8299,0.0,0.0,0.0,0.0,0.0,0.0,0.0,0.0,0.0,0.0,0.0,0.0,0.0,0.0,0.0,0.0,0.0,0.0,0.0,0.0,0.0,0.0,0.0,0.0,0.0,0.0,0.0,0.0,0.0,0.0,0.0,0.0,0.0,0.0,0.0,0.0,0.0,0.0,0.0,0.0,0.0,0.0,0.0,0.0,0.0,0.0,0.0,0.0,0.0,0.0,0.0,0.0,0.0,0.0,0.0,0.0,0.0,0.0,0.0,0.0,0.0,0.0,0.0,0.0,0.0,0.0,0.0,0.0,0.0,0.0,0.0,0.0,0.0,0.0,0.0,0.0,0.0,0.0,0.0,0.0,0.0,0.0,0.0,0.0,0.0,0.0,0.0,0.0,0.0,0.0,0.0,0.0,0.0,0.0,0.0,0.0,0.0,0.0,0.0,0.0,0.0,0.0,0.0,0.0,0.0,0.0,0.0,0.0,0.0,-4.7113,-4.7635,-4.8493,-4.9644,-4.8074,-4.6713,0.0,0.0,0.0,0.0,0.0,0.0,0.0,0.0,0.0,0.0,0.0,0.0,0.0,0.0,0.0,0.0,0.0,0.0,0.0,0.0,0.0,0.0,0.0,0.0,0.0,0.0,0.0,0.0,0.0,0.0,0.0,0.0,0.0,0.0,0.0,0.0,0.0,0.0,0.0,0.0,0.0,0.0,0.0,0.0,0.0,0.0,0.0,0.0,0.0,0.0,0.0,0.0,0.0,0.0,0.0,0.0,0.0,0.0,0.0,0.0,0.0,0.0,0.0,0.0,0.0,0.0,0.0,0.0,0.0,0.0,0.0,0.0,0.0,0.0,0.0,0.0,0.0,0.0,0.0,0.0,0.0,0.0,0.0,0.0,0.0,0.0,0.0,0.0,0.0,0.0,0.0,0.0,0.0,0.0,0.0,0.0,0.0,0.0,0.0,0.0,0.0,0.0,0.0,0.0,0.0,0.0,0.0,0.0,0.0,-4.6719,0.0,-4.8732,-4.932,-4.7369,-4.585,0.0,0.0,0.0,0.0,0.0,0.0,0.0,0.0,0.0,0.0,0.0,0.0,0.0,0.0,0.0,0.0,0.0,0.0,0.0,0.0,0.0,0.0,0.0,0.0,0.0,0.0,0.0,0.0,0.0,0.0,0.0,0.0,0.0,0.0,0.0,0.0,0.0,0.0,0.0,0.0,0.0,0.0,0.0,0.0,0.0,0.0,0.0,0.0,0.0,0.0,0.0,0.0,0.0,0.0,0.0,0.0,0.0,0.0,0.0,0.0,0.0,0.0,0.0,0.0,0.0,0.0,0.0,0.0,0.0,0.0,0.0,0.0,0.0,0.0,0.0,0.0,0.0,0.0,0.0,0.0,0.0,0.0,0.0,0.0,0.0,0.0,0.0,0.0,0.0,0.0,0.0,0.0,0.0,0.0,0.0,0.0,0.0,0.0,0.0,0.0,0.0,0.0,0.0,0.0,0.0,0.0,0.0,0.0,-4.584,-4.7539,-4.9219,-4.9643,-4.8749,-4.7696,-4.593,0.0,0.0,0.0,0.0,0.0,0.0,0.0,0.0,0.0,0.0,0.0,0.0,0.0,0.0,0.0,0.0,0.0,0.0,0.0,0.0,0.0,0.0,0.0,0.0,0.0,0.0,0.0,0.0,0.0,0.0,0.0,0.0,0.0,0.0,0.0,0.0,0.0,0.0,0.0,0.0,0.0,0.0,0.0,0.0,0.0,0.0,0.0,0.0,0.0,0.0,0.0,0.0,0.0,0.0,0.0,0.0,0.0,0.0,0.0,0.0,0.0,0.0,0.0,0.0,0.0,0.0,0.0,0.0,0.0,0.0,0.0,0.0,0.0,0.0,0.0,0.0,0.0,0.0,0.0,0.0,0.0,0.0,0.0,0.0,0.0,0.0,0.0,0.0,0.0,0.0,0.0,0.0,0.0,0.0,0.0,0.0,0.0,0.0,0.0,0.0,0.0,0.0,0.0,0.0,0.0,0.0,0.0,0.0,0.0,-4.6699,-4.8398,-4.9453,-4.9644,-4.756,-4.6273,0.0,0.0,0.0,0.0,0.0,0.0,0.0,0.0,0.0,0.0,0.0,0.0,0.0,0.0,0.0,0.0,0.0,0.0,0.0,0.0,0.0,0.0,0.0,0.0,0.0,0.0,0.0,0.0,0.0,0.0,0.0,0.0,0.0,0.0,0.0,0.0,0.0,0.0,0.0,0.0,0.0,0.0,0.0,0.0,0.0,0.0,0.0,0.0,0.0,0.0,0.0,0.0,0.0,0.0,0.0,0.0,0.0,0.0,0.0,0.0,0.0,0.0,0.0,0.0,0.0,0.0,0.0,0.0,0.0,0.0,0.0,0.0,0.0,0.0,0.0,0.0,0.0,0.0,0.0,0.0,0.0,0.0,0.0,0.0,0.0,0.0,0.0,0.0,0.0,0.0,0.0,0.0,0.0,0.0,0.0,0.0,0.0,0.0,0.0,0.0,0.0,0.0,0.0,0.0,0.0,0.0,0.0,0.0,0.0,-4.6327,-4.8007,-4.9004,-4.9218,-4.7147,-4.6114,-4.6286,0.0,0.0,0.0,0.0,0.0,0.0,0.0,0.0,0.0,0.0,0.0,0.0,0.0,0.0,0.0,0.0,0.0,0.0,0.0,0.0,0.0,0.0,0.0,0.0,0.0,0.0,0.0,0.0,0.0,0.0,0.0,0.0,0.0,0.0,0.0,0.0,0.0,0.0,0.0,0.0,0.0,0.0,0.0,0.0,0.0,0.0,0.0,0.0,0.0,0.0,0.0,0.0,0.0,0.0,0.0,0.0,0.0,0.0,0.0,0.0,0.0,0.0,0.0,0.0,0.0,0.0,0.0,0.0,0.0,0.0,0.0,0.0,0.0,0.0,0.0,0.0,0.0,0.0,0.0,0.0,0.0,0.0,0.0,0.0,0.0,0.0,0.0,0.0,0.0,0.0,0.0,0.0,0.0,0.0,0.0,0.0,0.0,0.0,0.0,0.0,0.0,0.0,0.0,0.0,0.0,0.0,0.0,0.0,-4.6301,-4.7906,-4.8396,-4.7713,-4.6727,-4.5757,0.0,0.0,0.0,0.0,0.0,0.0,0.0,0.0,0.0,0.0,0.0,0.0,0.0,0.0,0.0,0.0,0.0,0.0,0.0,0.0,0.0,0.0,0.0,0.0,0.0,0.0,0.0,0.0,0.0,0.0,0.0,0.0,0.0,0.0,0.0,0.0,0.0,0.0,0.0,0.0,0.0,0.0,0.0,0.0,0.0,0.0,0.0,0.0,0.0,0.0,0.0,0.0,0.0,0.0,0.0,0.0,0.0,0.0,0.0,0.0,0.0,0.0,0.0,0.0,0.0,0.0,0.0,0.0,0.0,0.0,0.0,0.0,0.0,0.0,0.0,0.0,0.0,0.0,0.0,0.0,0.0,0.0,0.0,0.0,0.0,0.0,0.0,0.0,0.0,0.0,0.0,0.0,0.0,0.0,0.0,0.0,0.0,0.0,0.0,0.0,0.0,0.0,0.0,0.0,0.0,0.0,0.0,0.0,0.0,-4.6276,-4.669,-4.7418,-4.8413,-4.7551,-4.6894,0.0,0.0,0.0,0.0,0.0,0.0,0.0,0.0,0.0,0.0,0.0,0.0,0.0,0.0,0.0,0.0,0.0,0.0,0.0,0.0,0.0,0.0,0.0,0.0,0.0,0.0,0.0,0.0,0.0,0.0,0.0,0.0,0.0,0.0,0.0,0.0,0.0,0.0,0.0,0.0,0.0,0.0,0.0,0.0,0.0,0.0,0.0,0.0,0.0,0.0,0.0,0.0,0.0,0.0,0.0,0.0,0.0,0.0,0.0,0.0,0.0,0.0,0.0,0.0,0.0,0.0,0.0,0.0,0.0,0.0,0.0,0.0,0.0,0.0,0.0,0.0,0.0,0.0,0.0,0.0,0.0,0.0,0.0,0.0,0.0,0.0,0.0,0.0,0.0,0.0,0.0,0.0,0.0,0.0,0.0,0.0,0.0,0.0,0.0,0.0,0.0,0.0,0.0,0.0,0.0,0.0,0.0,0.0,-4.5755,-4.6245,-4.6231,-4.6677,-4.7686,-4.7539,-4.7206,0.0,0.0,0.0,0.0,0.0,0.0,0.0,0.0,0.0,0.0,0.0,0.0,0.0,0.0,0.0,0.0,0.0,0.0,0.0,0.0,0.0,0.0,0.0,0.0,0.0,0.0,0.0,0.0,0.0,0.0,0.0,0.0,0.0,0.0,0.0,0.0,0.0,0.0,0.0,0.0,0.0,0.0,0.0,0.0,0.0,0.0,0.0,0.0,0.0,0.0,0.0,0.0,0.0,0.0,0.0,0.0,0.0,0.0,0.0,0.0,0.0,0.0,0.0,0.0,0.0,0.0,0.0,0.0,0.0,0.0,0.0,0.0,0.0,0.0,0.0,0.0,0.0,0.0,0.0,0.0,0.0,0.0,0.0,0.0,0.0,0.0,0.0,0.0,0.0,0.0,0.0,0.0,0.0,0.0,0.0,0.0,0.0,0.0,0.0,0.0,0.0,0.0,0.0,0.0,0.0,0.0,0.0,0.0,-4.6279,-4.6199,-4.6177,-4.618,-4.6222,-4.6967,-4.6992,0.0,0.0,0.0,0.0,0.0,0.0,0.0,0.0,0.0,0.0,0.0,0.0,0.0,0.0,0.0,0.0,0.0,0.0,0.0,0.0,0.0,0.0,0.0,0.0,0.0,0.0,0.0,0.0,0.0,0.0,0.0,0.0,0.0,0.0,0.0,0.0,0.0,0.0,0.0,0.0,0.0,0.0,0.0,0.0,0.0,0.0,0.0,0.0,0.0,0.0,0.0,0.0,0.0,0.0,0.0,0.0,0.0,0.0,0.0,0.0,0.0,0.0,0.0,0.0,0.0,0.0,0.0,0.0,0.0,0.0,0.0,0.0,0.0,0.0,0.0,0.0,0.0,0.0,0.0,0.0,0.0,0.0,0.0,0.0,0.0,0.0,0.0,0.0,0.0,0.0,0.0,0.0,0.0,0.0,0.0,0.0,0.0,0.0,0.0,0.0,0.0,0.0,0.0,0.0,0.0,0.0,0.0,0.0,-4.681,-4.6134,-4.6074,-4.6093,-4.6203,-4.6429,-4.6425,0.0,0.0,0.0,0.0,0.0,0.0,0.0,0.0,0.0,0.0,0.0,0.0,0.0,0.0,0.0,0.0,0.0,0.0,0.0,0.0,0.0,0.0,0.0,0.0,0.0,0.0,0.0,0.0,0.0,0.0,0.0,0.0,0.0,0.0,0.0,0.0,0.0,0.0,0.0,0.0,0.0,0.0,0.0,0.0,0.0,0.0,0.0,0.0,-4.7254,0.0,0.0,0.0,0.0,0.0,0.0,0.0,0.0,0.0,0.0,0.0,0.0,0.0,0.0,0.0,0.0,0.0,0.0,0.0,0.0,0.0,0.0,0.0,0.0,0.0,0.0,0.0,0.0,0.0,0.0,0.0,0.0,0.0,0.0,0.0,0.0,0.0,0.0,0.0,0.0,0.0,0.0,0.0,0.0,0.0,0.0,0.0,0.0,0.0,0.0,0.0,0.0,0.0,0.0,0.0,0.0,0.0,0.0,0.0,-4.655,-4.6078,-4.6027,-4.6027,-4.6102,-4.6192,-4.6041,0.0,0.0,0.0,0.0,0.0,0.0,0.0,0.0,0.0,0.0,0.0,0.0,0.0,0.0,0.0,0.0,0.0,0.0,0.0,0.0,0.0,0.0,0.0,0.0,0.0,0.0,0.0,0.0,0.0,0.0,0.0,0.0,0.0,0.0,0.0,0.0,0.0,0.0,0.0,0.0,0.0,0.0,0.0,0.0,0.0,0.0,0.0,0.0,0.0,0.0,0.0,0.0,0.0,0.0,0.0,0.0,0.0,0.0,0.0,0.0,0.0,0.0,0.0,0.0,0.0,0.0,0.0,0.0,0.0,0.0,0.0,0.0,0.0,0.0,0.0,0.0,0.0,0.0,0.0,0.0,0.0,0.0,0.0,0.0,0.0,0.0,0.0,0.0,0.0,0.0,0.0,0.0,0.0,0.0,0.0,0.0,0.0,0.0,0.0,0.0,0.0,0.0,0.0,0.0,0.0,0.0,0.0,-4.5298,-4.6037,-4.5973,-4.5966,-4.598,-4.5982,-4.6115,-4.5809,-4.5034,0.0,0.0,0.0,0.0,0.0,0.0,0.0,0.0,0.0,0.0,0.0,0.0,0.0,0.0,0.0,0.0,0.0,0.0,0.0,0.0,0.0,0.0,0.0,0.0,0.0,0.0,0.0,0.0,0.0,0.0,0.0,0.0,0.0,0.0,0.0,0.0,0.0,0.0,-4.4255,-4.7221,0.0,0.0,0.0,0.0,0.0,0.0,0.0,0.0,-4.7011,0.0,0.0,0.0,0.0,0.0,0.0,0.0,0.0,0.0,0.0,0.0,0.0,0.0,0.0,0.0,0.0,0.0,0.0,0.0,0.0,0.0,0.0,0.0,0.0,0.0,0.0,0.0,0.0,0.0,0.0,0.0,0.0,0.0,0.0,0.0,0.0,0.0,0.0,0.0,0.0,0.0,0.0,0.0,0.0,0.0,0.0,0.0,0.0,0.0,0.0,0.0,0.0,0.0,0.0,0.0,0.0,-4.451,-4.5499,-4.5969,-4.5835,-4.5822,-4.5899,-4.5997,-4.606,-4.5747,-4.4974,0.0,0.0,0.0,0.0,0.0,0.0,0.0,0.0,0.0,0.0,0.0,0.0,0.0,0.0,0.0,0.0,0.0,0.0,0.0,0.0,0.0,0.0,0.0,0.0,0.0,0.0,0.0,0.0,0.0,0.0,0.0,0.0,0.0,0.0,0.0,0.0,0.0,0.0,0.0,-4.9907,-5.1274,0.0,0.0,0.0,0.0,0.0,0.0,0.0,0.0,-4.6806,0.0,0.0,0.0,0.0,0.0,0.0,0.0,0.0,0.0,0.0,0.0,0.0,0.0,0.0,0.0,0.0,0.0,0.0,0.0,0.0,0.0,0.0,0.0,0.0,0.0,0.0,0.0,0.0,0.0,0.0,0.0,0.0,0.0,0.0,0.0,0.0,0.0,0.0,0.0,0.0,0.0,0.0,0.0,0.0,0.0,0.0,0.0,0.0,0.0,0.0,0.0,0.0,0.0,0.0,0.0,-4.404,-4.4841,-4.5417,-4.5737,-4.5786,-4.5841,-4.5886,-4.5589,-4.5443,0.0,0.0,0.0,0.0,0.0,0.0,0.0,0.0,0.0,0.0,0.0,0.0,0.0,0.0,0.0,0.0,0.0,0.0,0.0,0.0,0.0,0.0,0.0,0.0,0.0,0.0,0.0,0.0,0.0,0.0,0.0,0.0,0.0,0.0,0.0,0.0,0.0,0.0,0.0,0.0,-4.9681,-5.023,-4.8984,0.0,0.0,0.0,0.0,0.0,0.0,-4.7142,-4.6596,0.0,0.0,0.0,0.0,0.0,0.0,0.0,0.0,0.0,0.0,0.0,0.0,0.0,0.0,0.0,0.0,0.0,0.0,0.0,0.0,0.0,0.0,0.0,0.0,0.0,0.0,0.0,0.0,0.0,0.0,0.0,0.0,0.0,0.0,0.0,0.0,0.0,0.0,0.0,0.0,0.0,0.0,0.0,0.0,0.0,0.0,0.0,0.0,0.0,0.0,0.0,0.0,0.0,0.0,0.0,-4.3354,-4.3979,-4.475,-4.5599,-4.5719,-4.5764,-4.5766,-4.5313,-4.5305,0.0,0.0,0.0,0.0,0.0,0.0,0.0,0.0,0.0,0.0,0.0,0.0,0.0,0.0,0.0,0.0,0.0,0.0,0.0,0.0,0.0,0.0,0.0,0.0,0.0,0.0,0.0,0.0,0.0,0.0,0.0,0.0,0.0,0.0,0.0,0.0,0.0,0.0,0.0,0.0,0.0,-4.9355,-4.8627,-4.8828,0.0,0.0,0.0,0.0,-4.8885,-4.7636,0.0,0.0,0.0,0.0,0.0,0.0,0.0,0.0,0.0,0.0,0.0,0.0,0.0,0.0,0.0,0.0,0.0,0.0,0.0,0.0,0.0,0.0,0.0,0.0,0.0,0.0,0.0,0.0,0.0,0.0,0.0,0.0,0.0,0.0,0.0,0.0,0.0,0.0,0.0,0.0,0.0,0.0,0.0,0.0,0.0,0.0,0.0,0.0,0.0,0.0,0.0,0.0,0.0,0.0,0.0,0.0,-4.3204,-4.3284,-4.4013,-4.5444,-4.5594,-4.5662,-4.5704,-4.5802,-4.557,0.0,0.0,0.0,0.0,0.0,0.0,0.0,0.0,0.0,0.0,0.0,0.0,0.0,0.0,0.0,0.0,0.0,0.0,0.0,0.0,0.0,0.0,0.0,0.0,0.0,0.0,0.0,0.0,0.0,0.0,0.0,0.0,0.0,0.0,0.0,0.0,0.0,0.0,0.0,0.0,0.0,-5.1128,-4.8073,-4.8961,-4.9606,0.0,0.0,-4.8068,-4.9623,-4.8454,0.0,0.0,0.0,0.0,0.0,0.0,0.0,0.0,0.0,0.0,0.0,0.0,0.0,0.0,0.0,0.0,0.0,0.0,0.0,0.0,0.0,0.0,0.0,0.0,0.0,0.0,0.0,0.0,0.0,0.0,0.0,0.0,0.0,0.0,0.0,0.0,0.0,0.0,0.0,0.0,0.0,0.0,0.0,0.0,0.0,0.0,0.0,0.0,0.0,0.0,0.0,0.0,0.0,0.0,0.0,-4.0602,-4.2481,-4.2884,-4.3594,-4.4728,-4.5273,-4.5566,-4.5627,-4.537,-4.5064,0.0,0.0,0.0,0.0,0.0,0.0,0.0,0.0,0.0,0.0,0.0,0.0,0.0,0.0,0.0,0.0,0.0,0.0,0.0,0.0,0.0,0.0,0.0,0.0,0.0,0.0,0.0,0.0,0.0,0.0,0.0,0.0,0.0,0.0,0.0,0.0,0.0,0.0,0.0,0.0,0.0,0.0,-4.897,-4.9113,0.0,0.0,0.0,-4.87,-5.0427,0.0,0.0,0.0,0.0,0.0,0.0,0.0,0.0,0.0,0.0,0.0,0.0,0.0,0.0,0.0,0.0,0.0,0.0,0.0,0.0,0.0,0.0,0.0,0.0,0.0,0.0,0.0,0.0,0.0,0.0,0.0,0.0,0.0,0.0,0.0,0.0,0.0,0.0,0.0,0.0,0.0,0.0,0.0,0.0,0.0,0.0,0.0,0.0,0.0,0.0,0.0,0.0,0.0,0.0,0.0,0.0,0.0,-4.1941,-4.2607,-4.333,-4.4106,-4.4998,-4.5352,-4.5196,-4.4757,0.0,0.0,0.0,0.0,0.0,0.0,0.0,0.0,0.0,0.0,0.0,0.0,0.0,0.0,0.0,0.0,0.0,0.0,0.0,0.0,0.0,0.0,0.0,0.0,0.0,0.0,0.0,-3.5836,0.0,0.0,0.0,0.0,0.0,0.0,0.0,0.0,0.0,0.0,0.0,0.0,0.0,0.0,-4.7888,-4.9416,-4.9196,-4.8973,0.0,0.0,-4.9262,-5.0337,-4.8211,-4.6606,0.0,0.0,0.0,0.0,0.0,0.0,0.0,0.0,0.0,0.0,0.0,0.0,0.0,0.0,0.0,0.0,0.0,0.0,0.0,0.0,0.0,0.0,0.0,0.0,0.0,0.0,0.0,0.0,0.0,0.0,0.0,0.0,0.0,0.0,0.0,0.0,0.0,0.0,0.0,0.0,0.0,0.0,0.0,0.0,0.0,0.0,0.0,0.0,0.0,0.0,0.0,0.0,0.0,0.0,-3.9491,-4.1831,-4.2505,-4.3146,-4.3918,-4.4772,-4.4853,-4.4152,-4.4254,-4.3292,0.0,0.0,0.0,0.0,0.0,0.0,0.0,0.0,0.0,0.0,0.0,0.0,0.0,0.0,0.0,0.0,0.0,0.0,0.0,0.0,0.0,0.0,0.0,0.0,0.0,0.0,0.0,0.0,0.0,0.0,0.0,0.0,0.0,0.0,0.0,0.0,0.0,0.0,0.0,0.0,0.0,-4.7563,-4.8474,-4.9252,-4.9128,0.0,-4.8638,-4.9471,-4.871,-4.7823,-4.7212,-4.7208,0.0,0.0,0.0,0.0,0.0,0.0,0.0,0.0,0.0,0.0,0.0,0.0,0.0,0.0,0.0,0.0,0.0,0.0,0.0,0.0,0.0,0.0,0.0,0.0,0.0,0.0,0.0,0.0,0.0,0.0,0.0,0.0,0.0,0.0,0.0,0.0,0.0,0.0,0.0,0.0,0.0,0.0,0.0,0.0,0.0,0.0,0.0,0.0,0.0,0.0,0.0,0.0,0.0,-3.8894,-4.0277,-4.1389,-4.2044,-4.23,-4.3068,-4.3379,-4.3151,-4.3298,-4.2534,0.0,0.0,0.0,0.0,0.0,0.0,0.0,0.0,0.0,0.0,0.0,0.0,0.0,0.0,0.0,0.0,0.0,0.0,0.0,0.0,0.0,0.0,0.0,0.0,0.0,0.0,0.0,0.0,-3.7985,-3.8904,-3.8903,0.0,0.0,0.0,0.0,0.0,0.0,0.0,0.0,0.0,0.0,-4.7309,-4.7602,-4.7895,0.0,0.0,-4.7951,-4.8532,-4.9749,-4.8384,-4.7346,-4.785,-4.7656,0.0,0.0,0.0,0.0,0.0,0.0,0.0,0.0,0.0,0.0,0.0,0.0,0.0,0.0,0.0,0.0,0.0,0.0,0.0,0.0,0.0,0.0,0.0,0.0,0.0,0.0,0.0,0.0,0.0,0.0,0.0,0.0,0.0,0.0,0.0,0.0,0.0,0.0,0.0,0.0,0.0,0.0,0.0,0.0,0.0,0.0,0.0,0.0,0.0,0.0,0.0,0.0,-3.8504,-3.9282,-4.0631,-4.1301,-4.1211,-4.193,-4.2261,-4.2156,-4.2229,-4.1596,0.0,0.0,0.0,0.0,0.0,0.0,0.0,0.0,0.0,0.0,0.0,0.0,0.0,0.0,0.0,0.0,0.0,0.0,0.0,0.0,0.0,0.0,0.0,0.0,0.0,0.0,0.0,0.0,-3.914,-3.9414,-3.9159,0.0,0.0,0.0,0.0,0.0,0.0,0.0,0.0,0.0,0.0,-4.6777,-4.797,-4.8126,-4.8334,-4.8968,-4.8781,-4.9026,-5.0314,-4.9042,-4.7908,-4.7954,0.0,0.0,0.0,0.0,0.0,0.0,0.0,0.0,0.0,0.0,0.0,0.0,0.0,0.0,0.0,0.0,0.0,0.0,0.0,0.0,0.0,0.0,0.0,0.0,0.0,0.0,0.0,-3.9838,0.0,0.0,-3.8628,0.0,0.0,0.0,0.0,0.0,0.0,0.0,0.0,0.0,0.0,0.0,0.0,0.0,0.0,0.0,0.0,0.0,0.0,0.0,0.0,0.0,0.0,-3.8374,-3.9193,-4.0482,-4.1105,-4.1007,-4.1701,-4.1756,-4.1146,-4.108,-4.0363,-3.8975,0.0,0.0,0.0,0.0,0.0,0.0,0.0,0.0,0.0,0.0,0.0,0.0,0.0,0.0,0.0,0.0,0.0,0.0,0.0,0.0,0.0,0.0,0.0,0.0,0.0,0.0,-3.8571,-3.8613,-3.832,0.0,0.0,0.0,0.0,0.0,0.0,0.0,0.0,0.0,-4.783,-4.6051,-4.5909,-4.9968,-5.0585,-5.0545,-5.0638,-5.141,-5.147,-4.9903,-4.9656,-4.9057,0.0,0.0,0.0,0.0,0.0,0.0,0.0,0.0,0.0,0.0,0.0,0.0,0.0,0.0,0.0,0.0,0.0,0.0,0.0,0.0,0.0,0.0,0.0,0.0,0.0,0.0,0.0,-3.9368,-3.879,0.0,0.0,0.0,0.0,0.0,0.0,0.0,0.0,0.0,0.0,0.0,-4.2556,-4.2317,0.0,0.0,0.0,0.0,0.0,0.0,0.0,0.0,0.0,0.0,0.0,0.0,-3.8073,-3.8363,-3.9517,-4.008,-4.0026,-4.0209,-4.0183,-3.9958,-3.9995,-3.9391,-3.8078,0.0,0.0,0.0,0.0,0.0,0.0,0.0,0.0,0.0,0.0,0.0,0.0,0.0,0.0,0.0,0.0,0.0,0.0,0.0,0.0,0.0,0.0,0.0,0.0,0.0,-3.7928,0.0,0.0,0.0,0.0,0.0,0.0,0.0,0.0,0.0,0.0,0.0,-4.5406,-4.6467,-4.7796,-4.8979,-4.9811,-5.0408,-5.0361,0.0,0.0,0.0,0.0,0.0,0.0,0.0,0.0,0.0,0.0,0.0,0.0,0.0,0.0,-4.9064,-4.6714,-4.5019,-4.3943,-4.3871,0.0,0.0,0.0,0.0,0.0,0.0,0.0,0.0,0.0,0.0,0.0,0.0,0.0,0.0,-4.0027,-3.9489,-3.8654,0.0,0.0,0.0,0.0,0.0,0.0,0.0,0.0,-4.2548,-4.2953,-4.3077,-4.2817,-4.2394,0.0,-4.0827,-3.9931,0.0,0.0,0.0,0.0,0.0,0.0,0.0,0.0,-3.7996,-3.8243,-3.9109,-3.9514,-3.9401,-3.9354,-3.9283,-3.9285,-3.9389,-3.9058,-3.8298,-3.7669,-3.7032,0.0,0.0,0.0,0.0,0.0,0.0,0.0,0.0,0.0,0.0,0.0,0.0,0.0,0.0,0.0,0.0,0.0,0.0,0.0,0.0,0.0,0.0,0.0,-3.8357,0.0,0.0,0.0,0.0,0.0,0.0,0.0,0.0,0.0,-4.284,-4.4329,-4.5659,-4.6431,-4.7694,-4.9108,-5.0647,0.0,0.0,0.0,0.0,0.0,0.0,0.0,-5.1317,-5.1542,-5.0832,-4.9629,-4.7746,-4.8514,-4.9213,-4.8545,0.0,0.0,-4.732,-4.5745,-4.4729,-4.4969,-4.4978,-4.4824,-4.4496,-4.4853,-4.5028,0.0,0.0,0.0,0.0,0.0,0.0,0.0,0.0,-4.2097,-4.1725,0.0,-4.0842,0.0,0.0,0.0,0.0,-4.0791,-4.1311,0.0,0.0,-4.2709,-4.2679,-4.352,-4.2745,-4.2324,-4.2338,-4.2515,-4.1788,-4.0234,-3.8724,0.0,0.0,0.0,0.0,0.0,0.0,-3.8219,-3.8762,-3.9222,-3.9401,-3.921,-3.9129,-3.9101,-3.9101,-3.9219,-3.9344,-3.9439,-3.8986,-3.8364,-3.764,-3.6352,0.0,0.0,0.0,0.0,0.0,0.0,0.0,0.0,0.0,0.0,0.0,0.0,0.0,0.0,0.0,0.0,0.0,0.0,0.0,0.0,-3.8724,0.0,0.0,0.0,0.0,0.0,0.0,0.0,0.0,0.0,0.0,-4.4498,-4.4636,-4.545,-4.7881,0.0,0.0,0.0,0.0,-5.0942,-5.506,-5.5125,-5.4547,-5.4359,-5.2907,-5.1153,-4.9441,0.0,0.0,-4.529,-4.765,-4.9111,-4.7448,-4.7146,-4.7878,-4.9765,-4.8537,-4.7707,-4.8364,-4.7137,-4.6549,-4.7136,-4.6871,-4.7011,-4.4408,0.0,0.0,0.0,0.0,-4.2859,-4.3003,-4.3585,-4.2724,-4.2024,-4.1447,-4.1182,0.0,0.0,0.0,0.0,0.0,0.0,-4.2747,-4.3539,-4.3205,-4.3416,-4.4049,-4.3214,-4.2806,-4.2769,-4.2304,-4.1806,-4.1323,-4.0363,-3.9009,-3.7338,0.0,0.0,0.0,0.0,-3.855,-3.8602,-3.9014,-3.9178,-3.9129,-3.9021,-3.8979,-3.9021,-3.9115,-3.9237,-3.9344,-3.9293,-3.8999,-3.8402,-3.7521,0.0,0.0,0.0,0.0,0.0,0.0,0.0,0.0,0.0,0.0,0.0,0.0,0.0,0.0,0.0,0.0,0.0,0.0,0.0,-3.7854,-3.8976,-3.9613,0.0,0.0,0.0,0.0,0.0,0.0,0.0,0.0,0.0,-4.4264,-4.6565,-4.8588,0.0,0.0,-5.237,-5.4179,-5.3117,-5.2165,-5.2165,-5.1857,0.0,-4.9906,-4.9789,-4.9747,-4.9492,-4.8009,-4.6694,-4.6192,-4.6064,-4.5834,-4.5294,-4.5247,-4.5526,-4.6031,-4.5994,-4.5796,-4.5855,-4.5489,-4.5199,-4.5327,-4.525,-4.5162,-4.4443,-4.4119,-4.3497,-4.3492,-4.3798,-4.33,-4.3483,-4.4114,-4.3586,-4.3084,-4.2612,-4.2568,-4.2184,-4.1539,-4.1729,0.0,0.0,0.0,-4.3153,-4.3723,-4.3678,-4.3816,-4.4136,-4.364,-4.3398,-4.336,-4.2607,-4.2248,-4.2211,-4.1892,-4.0449,-3.805,0.0,0.0,-3.8119,-3.8431,-3.8686,-3.8856,-3.8992,-3.9031,-3.8974,-3.8815,-3.8803,-3.8925,-3.8921,-3.9017,-3.9205,-3.9298,-3.9226,-3.9012,-3.8356,-3.725,0.0,0.0,0.0,0.0,0.0,0.0,0.0,0.0,0.0,0.0,0.0,-3.3745,-3.26,0.0,0.0,0.0,-3.6029,-3.7575,-3.9577,-3.9946,0.0,0.0,0.0,0.0,0.0,0.0,0.0,-4.5086,-4.4547,-4.4219,-4.5082,-4.7018,-4.8286,-4.8086,-4.9171,-5.0488,-5.1874,0.0,-4.9672,-4.994,-4.9916,-4.9559,-4.8774,-4.846,-4.8162,-4.758,-4.6518,-4.5718,-4.5662,-4.4931,-4.4391,-4.4373,-4.4383,-4.443,-4.443,-4.4519,-4.4595,-4.4573,-4.4519,-4.4435,-4.434,-4.4188,-4.4079,-4.427,-4.4265,-4.4007,-4.3778,-4.3563,-4.3563,-4.392,-4.4468,-4.4468,-4.4532,-4.4584,-4.4524,-4.4209,-4.3681,-4.2878,0.0,-4.3421,-4.331,-4.3563,-4.4169,-4.4039,-4.3989,-4.3989,-4.3989,-4.3989,-4.3971,-4.3308,-4.2984,-4.2999,-4.3142,-4.2077,-3.9883,-3.9191,-3.923,-3.9872,-3.9007,-3.8841,-3.9464,-3.9254,-3.8991,-3.8773,-3.8588,-3.8606,-3.8762,-3.8719,-3.8825,-3.9059,-3.9087,-3.9205,-3.9439,-3.8937,-3.8318,-3.7559,0.0,0.0,0.0,0.0,0.0,0.0,0.0,0.0,0.0,0.0,0.0,0.0,0.0,0.0,0.0,-3.7373,0.0,-4.1635,-4.1203,0.0,0.0,0.0,-3.9435,-3.9391,-4.0686,-4.1949,-4.2868,0.0,0.0,-4.6176,-4.6212,-4.5529,-4.3804,-4.3307,-4.4266,-4.7431,-4.5863,-4.5178,-4.8405,-4.8649,-4.877,-4.8947,-4.796,-4.6442,-4.4878,-4.427,-4.4349,-4.4349,-4.4308,-4.427,-4.4237,-4.4252,-4.4255,-4.4255,-4.4158,-4.4124,-4.4325,-4.4218,-4.4079,-4.3986,-4.391,-4.3798,-4.4055,-4.4005,-4.397,-4.4022,-4.4111,-4.4111,-4.4186,-4.4344,-4.4344,-4.4354,-4.4364,-4.434,-4.4209,-4.3928,-4.3669,-4.3599,-4.3701,-4.3661,-4.3746,-4.3902,-4.3869,-4.3869,-4.3835,-4.3869,-4.3851,-4.3816,-4.3682,-4.359,-4.3553,-4.2984,-4.2515,-4.2168,-4.1434,-4.0651,-3.9887,-4.0124,-4.0289,-4.0304,-4.0164,-3.9577,-3.8606,-3.8525,-3.8476,-3.8496,-3.8643,-3.8738,-3.8795,-3.8935,-3.9092,-3.9178,-3.9145,-3.8548,-3.7281,-3.57,0.0,0.0,0.0,0.0,0.0,0.0,0.0,0.0,0.0,-3.6416,-3.341,0.0,-3.687,0.0,-3.8943,-4.0095,-4.0558,-4.0473,0.0,0.0,-4.1023,-4.1158,-4.1762,-4.1541,-4.1922,-4.3551,-4.3394,-4.3234,-4.3463,-4.3452,-4.2775,-4.1056,-4.41,-4.6891,-4.7669,-4.6067,-4.5239,-4.6481,-4.569,-4.4945,-4.5741,-4.5359,-4.4782,-4.4172,-4.4085,-4.4051,-4.4011,-4.4039,-4.4051,-4.4008,-4.4011,-4.3961,-4.395,-4.3883,-4.3899,-4.3931,-4.3945,-4.3894,-4.373,-4.3631,-4.3566,-4.3913,-4.3867,-4.3929,-4.4023,-4.4135,-4.4147,-4.4162,-4.4162,-4.4162,-4.4162,-4.4143,-4.4162,-4.4101,-4.3942,-4.3913,-4.3849,-4.3804,-4.3788,-4.3788,-4.3788,-4.3788,-4.3788,-4.3788,-4.3788,-4.3788,-4.3788,-4.3788,-4.3788,-4.3751,-4.3308,-4.2963,-4.2745,-4.2281,-4.174,-4.1124,-4.1336,-4.1381,-4.1278,-4.0639,-3.9719,-3.8544,-3.843,-3.8478,-3.8628,-3.871,-3.8873,-3.9124,-3.8896,-3.8789,-3.8914,-3.863,-3.8282,-3.7915,-3.6482,-3.5469,0.0,0.0,0.0,0.0,0.0,0.0,0.0,0.0,0.0,0.0,0.0,-3.7416,-3.7851,-3.9319,-4.0376,-4.0702,-4.073,-4.0874,-4.1264,-4.1311,-4.1329,-4.1371,-4.0865,-4.0919,-4.1969,-4.1585,-4.126,-4.1241,-4.1219,-4.0847,-3.9794,-4.2245,-4.4155,-4.4121,-4.324,-4.3033,-4.4102,-4.3427,-4.3062,-4.4105,-4.4147,-4.4026,-4.3947,-4.3913,-4.3915,-4.3867,-4.3881,-4.3897,-4.3849,-4.3851,-4.3835,-4.3804,-4.3736,-4.3719,-4.3719,-4.3703,-4.3669,-4.3582,-4.3462,-4.3303,-4.3849,-4.3786,-4.3883,-4.3897,-4.3881,-4.3942,-4.3989,-4.4005,-4.3989,-4.3989,-4.3974,-4.3992,-4.3926,-4.3865,-4.3849,-4.3816,-4.3771,-4.3771,-4.3753,-4.3771,-4.3753,-4.3771,-4.3771,-4.3771,-4.3753,-4.3771,-4.3771,-4.3771,-4.3753,-4.3753,-4.3367,-4.2615,-4.2615,-4.2723,-4.2906,-4.2573,-4.2297,-4.2059,-4.0849,-3.9734,-3.8737,-3.8734,-3.8872,-3.9091,-3.8956,-3.9053,-3.9458,-3.8772,-3.8474,-3.8624,-3.8057,-3.8087,-3.885,-3.745,-3.6918,0.0,-3.6232,0.0,0.0,0.0,0.0,0.0,0.0,0.0,0.0,-3.7863,-3.7913,-3.7727,-3.9099,-4.0327,-4.1093,-4.1169,-4.1109,-4.1,-4.0986,-4.0605,-3.9771,-3.9672,-3.9665,-3.9665,-3.9686,-3.9681,-3.975,-3.9614,-3.962,-3.9639,-3.9833,-4.0145,-3.9832,-3.9919,-4.0478,-4.176,-4.2112,-4.2851,-4.3754,-4.3945,-4.3867,-4.3804,-4.3804,-4.3788,-4.3769,-4.3804,-4.3804,-4.3769,-4.3753,-4.3753,-4.3771,-4.3669,-4.3582,-4.36,-4.348,-4.3411,-4.3428,-4.3322,-4.316,-4.3913,-4.3786,-4.3883,-4.3849,-4.382,-4.3818,-4.3915,-4.4005,-4.3945,-4.3881,-4.3853,-4.3835,-4.3767,-4.3649,-4.3667,-4.3615,-4.3566,-4.3549,-4.3566,-4.3549,-4.3549,-4.3566,-4.3549,-4.3549,-4.3549,-4.3549,-4.3531,-4.3566,-4.3566,-4.3566,-4.3609,-4.3685,-4.3701,-4.3818,-4.4055,0.0,0.0,0.0,-4.0836,-4.0125,-3.9834,-4.0723,-4.0882,-4.021,-3.9565,0.0,-3.842,-3.8341,-3.8396,-3.8529,-3.9012,0.0,0.0,0.0,0.0,0.0,0.0,0.0,0.0,0.0,0.0,0.0,-3.701,-3.7023,-3.7452,-3.8747,-3.9221,-3.845,-3.9296,-3.9949,-4.0015,-3.992,-3.9849,-3.982,-3.9777,-3.9664,-3.9482,-3.9502,-3.9546,-3.9527,-3.9577,-3.9633,-3.9633,-3.962,-3.9608,-3.9608,-3.9608,-3.9596,-3.9546,-3.9546,-4.0133,-4.1643,-4.2781,-4.359,-4.3889,-4.3851,-4.3769,-4.3703,-4.3736,-4.3736,-4.3667,-4.3754,-4.3754,-4.3667,-4.3634,-4.3634,-4.3566,-4.3532,-4.3532,-4.3532,-4.3375,-4.3251,-4.3269,-4.3178,-4.3086,-4.3881,-4.3804,-4.3867,-4.3883,0.0,-4.3865,-4.3945,-4.3989,-4.3899,-4.3818,-4.3804,-4.3788,-4.3719,-4.3617,-4.3617,-4.3583,-4.3479,-4.3479,-4.3479,-4.3479,-4.3479,-4.3479,-4.3479,-4.3479,-4.3479,-4.3479,-4.3479,-4.3479,-4.3479,-4.3479,-4.3582,-4.3749,-4.3749,-4.3828,-4.3946,-4.3556,-4.2817,-4.167,-4.107,-4.0273,-3.9294,-3.9761,-3.9945,-3.9616,-3.9217,0.0,0.0,0.0,0.0,0.0,0.0,0.0,0.0,-3.7976,0.0,-3.7891,-3.7229,-3.6796,-3.6774,-3.6756,-3.7155,-3.7947,-3.8047,-3.8194,-3.8439,-3.9229,-3.9489,-3.9024,-3.938,-3.9631,-3.9552,-3.9483,-3.9458,-3.9457,-3.9418,-3.9399,-3.9425,-3.9469,-3.9508,-3.9546,-3.9583,-3.9608,-3.9608,-3.9608,-3.9608,-3.9608,-3.9608,-3.9583,-3.9508,-3.9495,-4.0081,-4.1558,-4.3025,-4.391,-4.3867,-4.3769,-4.3686,-4.36,-4.36,-4.3635,-4.3566,-4.36,-4.3617,-4.3548,-4.3566,-4.3549,-4.3496,-4.3479,-4.3479,-4.3479,-4.3393,-4.3269,-4.3214,-4.3105,-4.2975,-4.3865,-4.3837,-4.3883,-4.3881,-4.3899,-4.3945,-4.3958,-4.3958,-4.3869,0.0,0.0,-4.3754,-4.3703,-4.3582,-4.3582,-4.3548,-4.3479,-4.3479,-4.3479,-4.3479,-4.3479,-4.3479,-4.3479,-4.3479,-4.3479,-4.3479,-4.3479,-4.3479,-4.3479,-4.3479,-4.3479,-4.3479,-4.3479,-4.3479,-4.3442,-4.2837,-4.211,-4.1339,-4.1299,-4.043,-3.8658,-3.8747,-3.887,-3.9025,-3.8859,-3.8878,-3.9052,-3.8384,-3.8022,-3.8083,-3.7558,-3.7522,-3.8184,-3.8209,-3.8496,-3.9055,-3.913,-3.9064,-3.899,-3.899,-3.8957,-3.8877,-3.8935,-3.9115,-3.9483,-3.94,-3.936,-3.936,-3.9391,-3.9405,-3.9405,-3.9391,-3.936,-3.936,-3.936,-3.9386,-3.9444,-3.9482,-3.952,-3.9571,-3.9577,-3.9608,-3.9608,-3.9608,-3.9608,-3.9608,-3.9608,-3.9665,-3.9701,-3.9906,-4.0475,-4.1818,-4.3101,-4.3865,-4.3802,-4.3684,-4.36,-4.3532,-4.3496,-4.3479,-4.3479,-4.3479,-4.3479,-4.3496,-4.3479,-4.3496,-4.3479,-4.3479,-4.3479,-4.3479,-4.3446,-4.3358,-4.3251,-4.3068,-4.2956,-4.3961,-4.3899,-4.3897,-4.3849,-4.382,-4.3837,-4.3818,-4.3837,-4.3804,-4.3736,-4.3634,-4.3566,-4.3532,-4.3515,-4.3532,-4.3515,-4.3479,-4.3479,-4.3479,-4.3479,-4.3479,-4.3479,-4.3479,-4.3479,-4.3479,-4.3479,-4.3479,-4.3479,-4.3479,-4.3479,-4.3479,-4.3479,-4.3479,-4.3479,-4.3479,-4.3386,-4.251,-4.0943,-4.1206,-4.0821,-3.9734,-4.0688,-4.0896,-4.0253,-3.9485,-3.8811,-3.8203,-3.806,-3.8022,-3.8102,-3.8651,-3.8888,-3.8706,-3.8697,-3.8645,-3.846,-3.8446,-3.8462,-3.8489,-3.8554,-3.8646,-3.8788,-3.8862,-3.8964,-3.9078,-3.9175,-3.921,-3.9242,-3.9315,-3.9405,-3.9405,-3.9301,-3.9224,-3.9242,-3.9242,-3.9242,-3.9251,-3.9412,-3.9508,-3.9539,-3.9552,-3.9608,-3.9608,-3.9608,-3.9608,-3.9608,-3.9683,-3.9821,-4.0416,-4.1012,-4.1692,-4.253,-4.3348,-4.3809,-4.3802,-4.3703,-4.36,-4.3532,-4.3515,-4.3515,-4.3479,-4.3479,-4.3479,-4.3479,-4.3479,-4.3479,-4.3479,-4.3479,-4.3479,-4.3479,-4.3446,-4.3394,-4.3358,-4.3196,-4.303,-4.3989,-4.3942,-4.3942,-4.3945,-4.3913,-4.3915,-4.3913,-4.3897,-4.3867,-4.3802,-4.3719,-4.3704,-4.3617,-4.3548,-4.3566,-4.3513,-4.3479,-4.3479,-4.3479,-4.3479,-4.3479,-4.3479,-4.3479,-4.3479,-4.3479,-4.3479,-4.3479,-4.3479,-4.3479,-4.3479,-4.3479,-4.3479,-4.3479,-4.3479,-4.3479,-4.3479,-4.2604,-4.086,-4.0987,-4.0398,-3.9029,-3.9512,-3.9639,-3.9258,-3.8839,-3.8489,-3.8118,-3.8099,-3.8133,-3.8158,-3.8486,-3.8636,-3.8491,-3.8476,-3.8399,-3.8257,-3.8241,-3.8274,-3.8354,-3.8449,-3.8575,-3.8735,-3.8825,-3.8881,-3.8954,-3.9036,-3.912,-3.9142,-3.9202,-3.9248,-3.9248,-3.9229,-3.9178,-3.9178,-3.9256,-3.9328,-3.9354,-3.9425,-3.9508,-3.9558,-3.9577,-3.9608,-3.9608,-3.9608,-3.9608,-3.9627,-3.9902,-4.0426,-4.1142,-4.188,-4.2441,-4.2794,-4.3426,-4.3841,-4.3851,-4.3769,-4.3667,-4.3583,-4.3566,-4.3549,-4.3496,-4.3479,-4.3479,-4.3479,-4.3479,-4.3479,-4.3479,-4.3479,-4.3479,-4.3479,-4.3498,-4.3446,-4.3394,-4.3251,-4.3068,-4.4085,-4.4067,-4.4085,-4.4067,-4.4067,-4.4085,-4.4067,-4.4051,-4.3992,-4.3931,-4.3886,-4.3837,-4.3736,-4.3651,-4.3615,-4.3565,-4.3513,-4.3515,-4.3479,-4.3479,-4.3479,-4.3479,-4.3479,-4.3479,-4.3479,-4.3479,-4.3479,-4.3479,-4.3479,-4.3479,-4.3479,-4.3479,-4.3479,-4.3479,-4.3479,-4.3479,-4.2695,-4.1187,-4.0896,-3.9956,-3.8281,-3.8209,-3.8227,-3.8209,-3.8209,-3.8209,-3.8209,-3.8209,-3.8209,-3.8209,-3.8209,-3.8209,-3.8192,-3.8174,-3.8157,-3.8192,-3.8157,-3.8207,-3.8289,-3.8417,-3.8544,-3.8658,-3.8735,-3.8807,-3.8896,-3.8935,-3.9021,-3.9087,-3.9115,-3.9115,-3.9115,-3.917,-3.9178,-3.9197,-3.9328,-3.9444,-3.9482,-3.9527,-3.9546,-3.9608,-3.9608,-3.9608,-3.9608,-3.9608,-3.9683,-3.9952,-4.0371,-4.1017,-4.1922,-4.2617,-4.2913,-4.3211,-4.3602,-4.3876,-4.3897,-4.3851,-4.3769,-4.3649,-4.3651,-4.3617,-4.3548,-4.3532,-4.3515,-4.3496,-4.3513,-4.3513,-4.3532,-4.3532,-4.3532,-4.3513,-4.3496,-4.348,-4.3394,-4.3287,-4.3123,-4.4289,-4.427,-4.427,-4.4252,-4.427,-4.427,-4.427,-4.4255,-4.4199,-4.4187,-4.4138,-4.3899,-4.3804,-4.3771,-4.3667,-4.3599,-4.3582,-4.3513,-4.3479,-4.3479,-4.3479,-4.3479,-4.3479,-4.3479,-4.3479,-4.3479,-4.3479,-4.3479,-4.3479,-4.3479,-4.3479,-4.3479,-4.3479,-4.3479,-4.3479,-4.3479,-4.3023,-4.2076,-4.1223,-3.9956,-3.8317,-3.8209,-3.8209,-3.8209,-3.8209,-3.8209,-3.8192,-3.8209,-3.8209,-3.8209,-3.8192,-3.8192,-3.8192,-3.8088,-3.8088,-3.8174,-3.8088,-3.8104,-3.8272,-3.8368,-3.8446,-3.851,-3.864,-3.8765,-3.8862,-3.891,-3.8964,-3.9059,-3.9082,-3.9101,-3.9101,-3.9188,-3.921,-3.9224,-3.9367,-3.9482,-3.9508,-3.954,-3.9589,-3.9608,-3.962,-3.962,-3.9602,-3.9677,-3.9946,-4.0497,-4.0852,-4.1437,-4.2614,-4.3039,-4.337,-4.3867,-4.4113,-4.3974,-4.3929,-4.3915,-4.3867,-4.3786,-4.3769,-4.3719,-4.3651,-4.3582,-4.3565,-4.3566,-4.3566,-4.36,-4.36,-4.36,-4.3582,-4.3565,-4.3531,-4.348,-4.3411,-4.3376,-4.3287,-4.4255,-4.4318,-4.4318,-4.4318,-4.4318,-4.4318,-4.4318,-4.43,-4.4289,-4.424,-4.4244,-4.4107,-4.3982,-4.3851,-4.38,-4.3718,-4.3599,-4.3565,-4.3549,-4.3496,-4.3479,-4.3479,-4.3479,-4.3479,-4.3479,-4.3479,-4.3479,-4.3479,-4.3479,-4.3479,-4.3479,-4.3479,-4.3479,-4.3479,-4.3479,-4.3479,-4.3076,-4.2221,-4.1277,-4.0209,-3.9055,-3.846,-3.8209,-3.8209,-3.8209,-3.8157,-3.8088,-3.8088,-3.8089,-3.8021,-3.8021,-3.8039,-3.8039,-3.802,-3.8018,-3.8088,-3.8105,-3.8174,-3.829,-3.8352,-3.843,-3.851,-3.8624,-3.8735,-3.8837,-3.8881,-3.8954,-3.9036,-3.9073,-3.9101,-3.9115,-3.9248,-3.9333,-3.9341,-3.9464,-3.9558,-3.9571,-3.962,-3.9657,-3.9638,-3.9656,-3.9668,-3.9743,-4.0083,-4.0459,-4.0923,-4.1503,-4.2508,-4.3142,-4.3545,-4.3932,-4.4188,-4.4226,-4.4147,-4.4089,-4.3992,-4.3945,-4.3883,-4.3867,-4.3835,-4.3753,-4.3719,-4.3703,-4.3669,-4.3703,-4.3701,-4.3701,-4.3719,-4.3703,-4.3634,-4.3531,-4.3497,-4.3463,-4.3429,-4.3359,-4.427,-4.4348,-4.4344,-4.434,-4.4358,-4.4358,-4.4358,-4.4344,-4.4344,-4.431,-4.4329,-4.424,-4.4135,-4.4008,-4.3947,-4.3816,-4.3682,-4.3634,-4.3565,-4.3513,-4.3496,-4.3479,-4.3479,-4.3479,-4.3479,-4.3479,-4.3479,-4.3479,-4.3479,-4.3479,-4.3479,-4.3479,-4.3479,-4.3479,-4.3479,-4.3479,-4.3205,-4.2513,-4.1439,-4.0533,-3.9794,-3.88,-3.8225,-3.8209,-3.8209,-3.8157,-3.8053,-3.8053,-3.8002,-3.7933,-3.7951,-3.7969,-3.7916,-3.7984,-3.8001,-3.8001,-3.8122,-3.8225,-3.8274,-3.8354,-3.8415,-3.846,-3.8609,-3.8719,-3.8792,-3.8848,-3.8921,-3.8993,-3.9078,-3.9101,-3.9115,-3.9275,-3.9405,-3.9399,-3.9533,-3.9608,-3.9633,-3.9669,-3.9693,-3.9698,-3.9703,-3.9814,-4.0066,-4.0546,-4.0973,-4.1643,-4.2538,-4.3431,-4.3563,-4.4055,-4.4378,-4.4358,-4.4344,-4.43,-4.4244,-4.4135,-4.4058,-4.3992,-4.3961,-4.3897,-4.3835,-4.3818,-4.3804,-4.3753,-4.382,-4.3818,-4.38,-4.3802,-4.3769,-4.3632,-4.3548,-4.3513,-4.3497,-4.3464,-4.3411,-4.4416,-4.4397,-4.4454,-4.4468,-4.4487,-4.4487,-4.4487,-4.4473,-4.4411,-4.4397,-4.4383,-4.431,-4.4304,-4.4237,-4.4042,-4.3915,-4.3846,-4.3682,-4.3615,-4.3617,-4.3549,-4.3496,-4.3479,-4.3479,-4.3479,-4.3479,-4.3479,-4.3479,-4.3479,-4.3496,-4.3479,-4.3479,-4.3479,-4.3479,-4.3479,-4.3479,-4.3461,-4.3187,-4.1799,-4.0891,-4.0551,-3.912,-3.8257,-3.8209,-3.8209,-3.8174,-3.8192,-3.8192,-3.814,-3.8001,-3.8088,-3.8123,-3.8019,-3.7984,-3.8001,-3.8001,-3.814,-3.8209,-3.8224,-3.832,-3.8417,-3.843,-3.8578,-3.8719,-3.8792,-3.8848,-3.8921,-3.8997,-3.9064,-3.9101,-3.9129,-3.9288,-3.9405,-3.9399,-3.952,-3.962,-3.9681,-3.9693,-3.9698,-3.9727,-3.9807,-4.0108,-4.0788,-4.0904,-4.1757,-4.2692,-4.3273,-4.3589,-4.4177,-4.4439,-4.4482,-4.4468,-4.4426,-4.4368,-4.4314,-4.4211,-4.4184,-4.4138,-4.4023,-4.3992,-4.3929,-4.3881,-4.3851,-4.3835,-4.3883,-4.3881,-4.3881,-4.3849,-4.3783,-4.3699,-4.3615,-4.3565,-4.3549,-4.3496,-4.3463,-4.4314,-4.4411,-4.4473,-4.4482,-4.4482,-4.4482,-4.4482,-4.4501,-4.4454,-4.4454,-4.4458,-4.4401,-4.4354,-4.4373,-4.4226,-4.4085,-4.3942,-4.3849,-4.3786,-4.3701,-4.3617,-4.3583,-4.3548,-4.3532,-4.3479,-4.3479,-4.3479,-4.3479,-4.3515,-4.3531,-4.3531,-4.3515,-4.3479,-4.3479,-4.3479,-4.3479,-4.3479,-4.3314,-4.1853,-4.0928,-4.066,-3.9157,-3.8257,-3.8209,-3.8209,-3.8157,-3.807,-3.807,-3.8037,-3.7933,-3.7986,-3.7986,-3.7951,-3.7984,-3.8018,-3.8105,-3.8157,-3.8225,-3.8256,-3.8352,-3.8415,-3.846,-3.8609,-3.8689,-3.875,-3.8822,-3.8925,-3.8935,-3.9031,-3.9115,-3.917,-3.9301,-3.9405,-3.9418,-3.9533,-3.9651,-3.9693,-3.971,-3.972,-3.9853,-4.0246,-4.0798,-4.1224,-4.1956,-4.2838,-4.3366,-4.3868,-4.4275,-4.4487,-4.4611,-4.4551,-4.457,-4.4515,-4.444,-4.4426,-4.4285,-4.4184,-4.415,-4.4104,-4.4039,-4.3958,-4.3942,-4.3929,-4.3929,-4.3945,-4.3961,-4.3961,-4.3913,-4.3849,-4.3816,-4.3734,-4.3632,-4.3583,-4.3531,-4.3515,-4.4329,-4.4426,-4.4468,-4.4482,-4.4482,-4.4482,-4.4482,-4.4482,-4.4482,-4.4482,-4.4501,-4.444,-4.4444,-4.4411,-4.4354,-4.4266,-4.4147,-4.4008,-4.3881,-4.3818,-4.3719,-4.3651,-4.3599,-4.3566,-4.3532,-4.3515,-4.3532,-4.3531,-4.36,-4.3634,-4.3617,-4.3531,-4.3531,-4.3532,-4.3515,-4.3479,-4.3479,-4.3222,-4.2107,-4.1271,-4.0766,-3.9515,-3.8594,-3.8295,-3.8224,-3.8191,-3.8088,-3.8071,-3.8037,-3.7951,-3.7951,-3.7986,-3.8003,-3.8037,-3.8105,-3.8191,-3.8225,-3.8241,-3.8289,-3.8403,-3.8462,-3.8491,-3.8624,-3.8707,-3.8689,-3.8822,-3.8896,-3.8921,-3.9003,-3.9129,-3.9271,-3.9557,-3.9685,-3.9518,-3.954,-3.9789,-4.0056,-4.0153,-4.0344,-4.0723,-4.1223,-4.1632,-4.1987,-4.2917,-4.3561,-4.3844,-4.4417,-4.4693,-4.4699,-4.4672,-4.4619,-4.4611,-4.4551,-4.451,-4.4468,-4.4358,-4.4274,-4.4226,-4.415,-4.407,-4.4005,-4.4005,-4.4005,-4.4005,-4.4005,-4.4005,-4.4008,-4.3961,-4.3929,-4.3897,-4.3832,-4.3716,-4.3649,-4.3565,-4.3531,-4.4426,-4.4487,-4.4482,-4.4482,-4.4482,-4.4482,-4.4482,-4.4515,-4.4496,-4.4528,-4.451,-4.4515,-4.4496,-4.4501,-4.4426,-4.4397,-4.4325,-4.4147,-4.3992,-4.3915,-4.3835,-4.3718,-4.3632,-4.3634,-4.3583,-4.3532,-4.36,-4.3667,-4.3753,-4.3769,-4.3736,-4.3634,-4.3599,-4.3583,-4.3496,-4.3515,-4.3479,-4.3296,-4.2599,-4.1832,-4.1014,-4.0121,-3.9217,-3.8414,-3.829,-3.8257,-3.8191,-3.8174,-3.814,-3.8036,-3.8105,-3.8192,-3.8175,-3.8192,-3.8209,-3.8225,-3.8257,-3.829,-3.8322,-3.8433,-3.8494,-3.8544,-3.8624,-3.8707,-3.8704,-3.8825,-3.891,-3.8925,-3.911,-3.9222,-3.9452,-4.0098,-4.0352,-3.9701,-3.9833,-4.0289,-4.0813,-4.1073,-4.1396,-4.2029,-4.2325,-4.2761,-4.3386,-4.371,-4.4001,-4.4512,-4.4701,-4.4738,-4.4738,-4.4706,-4.4672,-4.4632,-4.4592,-4.4565,-4.4515,-4.4458,-4.4387,-4.4333,-4.4229,-4.4135,-4.4039,-4.4005,-4.4005,-4.4005,-4.4005,-4.4005,-4.4005,-4.3992,-4.3976,-4.3929,-4.3865,-4.3798,-4.3732,-4.3649,-4.3565,-4.4411,-4.4426,-4.4487,-4.4482,-4.4482,-4.4482,-4.4528,-4.4565,-4.4584,-4.4592,-4.4632,-4.4632,-4.4605,-4.4565,-4.4537,-4.4482,-4.4397,-4.431,-4.4226,-4.4123,-4.3992,-4.3897,-4.3816,-4.3734,-4.3719,-4.3719,-4.3786,-4.3802,-4.382,-4.3851,-4.3835,-4.3736,-4.3651,-4.3599,-4.3565,-4.3532,-4.3479,-4.3406,-4.2708,-4.1869,-4.1033,-4.0229,-3.9341,-3.8494,-3.834,-3.829,-3.8274,-3.8207,-3.8192,-3.814,-3.8192,-3.8209,-3.8209,-3.8209,-3.8207,-3.8257,-3.829,-3.8354,-3.8433,-3.8478,-3.8559,-3.8624,-3.8692,-3.8707,-3.8723,-3.8859,-3.8947,-3.9017,-3.9536,-4.0049,-4.029,-4.0928,-4.1095,-4.0431,-4.0935,-4.1374,-4.1762,-4.1959,-4.2094,-4.2382,-4.2924,-4.3398,-4.3739,-4.4044,-4.4517,-4.4763,-4.4833,-4.4821,-4.4821,-4.4783,-4.4776,-4.4751,-4.4685,-4.4605,-4.4551,-4.4515,-4.4444,-4.4358,-4.427,-4.4214,-4.4101,-4.4039,-4.4039,-4.4055,-4.4039,-4.402,-4.402,-4.4023,-4.4008,-4.3976,-4.3929,-4.3881,-4.3816,-4.3751,-4.3649,-4.4426,-4.444,-4.4487,-4.4482,-4.4482,-4.4482,-4.4524,-4.4573,-4.4587,-4.4646,-4.4699,-4.4712,-4.4685,-4.4646,-4.4632,-4.4578,-4.4482,-4.4487,-4.4416,-4.4289,-4.415,-4.4023,-4.3929,-4.3853,-4.382,-4.3835,-4.3865,-4.3899,-4.3883,-4.3913,-4.3897,-4.3835,-4.3751,-4.3701,-4.3667,-4.3565,-4.3549,-4.3457,-4.3001,-4.2343,-4.1504,-4.07,-3.9827,-3.9031,-3.8583,-3.8389,-3.8338,-3.8289,-3.8257,-3.8225,-3.8209,-3.8209,-3.8224,-3.8241,-3.8274,-3.8322,-3.837,-3.8417,-3.8494,-3.8525,-3.8609,-3.8673,-3.8707,-3.8704,-3.8805,-3.9036,-3.9353,-3.9523,-4.0284,-4.0929,-4.1138,-4.1829,-4.2038,-4.1758,-4.1876,-4.2329,-4.266,-4.3111,-4.3329,-4.3531,-4.3853,-4.4099,-4.4308,-4.4497,-4.4895,-4.4895,-4.4895,-4.4895,-4.4883,-4.4858,-4.4833,-4.4796,-4.4751,-4.4672,-4.4605,-4.4551,-4.4496,-4.4416,-4.4314,-4.4255,-4.4162,-4.4135,-4.4119,-4.4147,-4.4162,-4.4162,-4.4162,-4.4101,-4.4089,-4.4058,-4.3992,-4.3929,-4.3881,-4.3816,-4.3751,-4.4501,-4.4482,-4.4482,-4.4482,-4.4482,-4.4482,-4.4556,-4.4605,-4.4587,-4.4659,-4.4712,-4.4719,-4.4725,-4.4712,-4.4712,-4.4672,-4.4619,-4.4592,-4.4524,-4.4397,-4.4285,-4.4165,-4.4023,-4.3899,-4.3867,-4.3915,-4.3897,-4.3945,-4.3992,-4.3989,-4.3974,-4.3897,-4.3881,-4.3867,-4.3804,-4.3667,-4.3599,-4.3582,-4.3494,-4.3019,-4.2231,-4.1462,-4.0622,-3.9735,-3.8914,-3.8444,-3.8399,-3.8401,-3.8338,-3.8242,-3.8224,-3.8257,-3.8272,-3.8307,-3.8338,-3.8399,-3.8478,-3.8494,-3.8525,-3.8624,-3.8673,-3.8707,-3.8817,-3.8793,-3.905,-3.9696,-4.0196,-4.0311,-4.1177,-4.1791,-4.1992,-4.2698,-4.3175,-4.327,-4.2919,-4.2995,-4.3677,-4.4383,-4.4554,-4.4699,-4.4888,-4.4876,-4.4793,-4.4869,-4.4907,-4.4895,-4.4895,-4.4895,-4.4895,-4.487,-4.4858,-4.4821,-4.4802,-4.4738,-4.4646,-4.4592,-4.4556,-4.444,-4.4358,-4.4314,-4.4237,-4.4211,-4.4199,-4.424,-4.427,-4.4285,-4.427,-4.4211,-4.4165,-4.4135,-4.4073,-4.3992,-4.3929,-4.3881,-4.3818,-4.4482,-4.4482,-4.4482,-4.4482,-4.4482,-4.4482,-4.4565,-4.4672,-4.4672,-4.4751,-4.4821,-4.4833,-4.4808,-4.477,-4.4757,-4.4751,-4.4699,-4.4685,-4.4632,-4.457,-4.4473,-4.4314,-4.4131,-4.4008,-4.3942,-4.3974,-4.3958,-4.3974,-4.4005,-4.4005,-4.3971,-4.3958,-4.3929,-4.3881,-4.3849,-4.3786,-4.3684,-4.3617,-4.36,-4.3163,-4.2358,-4.1552,-4.071,-3.9887,-3.9017,-3.8546,-3.8478,-3.843,-3.8401,-3.8352,-3.8334,-3.8352,-3.8368,-3.8368,-3.8417,-3.8462,-3.8476,-3.8541,-3.8624,-3.871,-3.8726,-3.8781,-3.9294,-3.9617,-3.9709,-4.0486,-4.0972,-4.1285,-4.201,-4.2626,-4.2809,-4.3512,-4.4074,-4.4293,-4.4007,-4.4065,-4.4442,-4.4743,-4.4907,-4.4955,-4.4967,-4.4967,-4.4967,-4.4967,-4.4974,-4.4919,-4.4907,-4.4895,-4.4907,-4.4895,-4.487,-4.4858,-4.4821,-4.4745,-4.4699,-4.4632,-4.4584,-4.4482,-4.4411,-4.4358,-4.431,-4.4285,-4.427,-4.4304,-4.4314,-4.4329,-4.4314,-4.427,-4.4259,-4.4211,-4.415,-4.407,-4.3992,-4.3945,-4.3867,-4.4482,-4.4482,-4.4482,-4.4482,-4.4496,-4.4542,-4.4605,-4.4699,-4.4719,-4.4815,-4.4883,-4.4895,-4.487,-4.4852,-4.4833,-4.4796,-4.4751,-4.4732,-4.4693,-4.4613,-4.4524,-4.4383,-4.424,-4.4116,-4.407,-4.407,-4.402,-4.4005,-4.4005,-4.4005,-4.4005,-4.4008,-4.3976,-4.3945,-4.3926,-4.3865,-4.3818,-4.3734,-4.3701,-4.3376,-4.2814,-4.2061,-4.1493,-4.0726,-3.9779,-3.8993,-3.8666,-3.8528,-3.8481,-3.8415,-3.8399,-3.8415,-3.8446,-3.8446,-3.8478,-3.8575,-3.8575,-3.8643,-3.8747,-3.8982,-3.9203,-3.9365,-3.9968,-4.0381,-4.0677,-4.1345,-4.194,-4.2151,-4.2958,-4.3434,-4.367,-4.4135,-4.4467,-4.4602,-4.4712,-4.4764,-4.4883,-4.4876,-4.4931,-4.4986,-4.501,-4.5022,-4.5026,-4.5045,-4.5033,-4.4998,-4.4974,-4.4943,-4.4943,-4.4919,-4.4895,-4.487,-4.4858,-4.4808,-4.4757,-4.4712,-4.4651,-4.4551,-4.4496,-4.4426,-4.4401,-4.4358,-4.4373,-4.4373,-4.4387,-4.4387,-4.4373,-4.4344,-4.4314,-4.427,-4.4226,-4.415,-4.4055,-4.3992,-4.3915,-4.4482,-4.4482,-4.4482,-4.4482,-4.4496,-4.4565,-4.4632,-4.4712,-4.4757,-4.484,-4.4902,-4.4895,-4.4895,-4.4895,-4.4883,-4.4858,-4.4815,-4.4808,-4.4757,-4.4699,-4.4592,-4.4454,-4.434,-4.424,-4.4195,-4.4199,-4.4085,-4.4036,-4.402,-4.4039,-4.4005,-4.4023,-4.4005,-4.4005,-4.3974,-4.3945,-4.3931,-4.3865,-4.3818,-4.3699,-4.3374,-4.273,-4.22,-4.186,-4.0726,-3.9774,-3.9297,-3.9061,-3.9012,-3.8741,-3.8542,-3.8481,-3.8525,-3.8544,-3.874,-3.8933,-3.9077,-3.915,-3.9111,-3.9735,-4.0026,-4.0171,-4.0841,-4.1343,-4.1604,-4.2273,-4.2866,-4.2999,-4.3811,-4.4142,-4.4285,-4.4454,-4.4551,-4.4672,-4.4712,-4.4776,-4.4858,-4.4895,-4.4919,-4.4991,-4.5022,-4.5038,-4.5091,-4.5114,-4.5095,-4.5057,-4.5033,-4.501,-4.4998,-4.4962,-4.4919,-4.4895,-4.487,-4.4858,-4.4821,-4.4783,-4.4725,-4.4632,-4.4578,-4.4524,-4.4468,-4.444,-4.4468,-4.4468,-4.444,-4.4444,-4.4458,-4.443,-4.4387,-4.4329,-4.427,-4.4162,-4.4051,-4.4023,-4.3961,-4.4482,-4.4482,-4.4482,-4.4482,-4.4515,-4.4565,-4.4646,-4.4712,-4.4789,-4.4833,-4.4902,-4.4895,-4.4895,-4.4895,-4.4895,-4.4883,-4.487,-4.4858,-4.4833,-4.477,-4.4712,-4.4619,-4.4496,-4.4373,-4.4285,-4.4255,-4.418,-4.415,-4.4135,-4.407,-4.4005,-4.4005,-4.402,-4.4005,-4.4005,-4.3989,-4.3961,-4.3897,-4.3899,-4.3835,-4.3658,-4.3049,-4.2574,-4.2329,-4.1364,-4.0836,-4.0636,-4.0581,-4.0565,-4.0256,-3.9415,-3.8829,-3.8899,-3.9318,-3.9572,-3.9738,-4.0196,-4.0508,-4.0581,-4.0671,-4.0868,-4.1006,-4.1646,-4.2223,-4.2455,-4.3119,-4.3658,-4.3889,-4.4162,-4.4358,-4.444,-4.4487,-4.4565,-4.4672,-4.4712,-4.4764,-4.4877,-4.4895,-4.4962,-4.5045,-4.508,-4.5095,-4.517,-4.5181,-4.5159,-4.5125,-4.5091,-4.5057,-4.5033,-4.501,-4.4955,-4.4931,-4.4907,-4.4895,-4.4865,-4.4827,-4.4776,-4.4712,-4.4659,-4.4632,-4.4578,-4.4524,-4.4537,-4.451,-4.4482,-4.4515,-4.4542,-4.4501,-4.4458,-4.4401,-4.431,-4.4222,-4.4147,-4.4085,-4.3989,-4.4482,-4.4482,-4.4482,-4.4482,-4.451,-4.4592,-4.4653,-4.4725,-4.4796,-4.4858,-4.4895,-4.4895,-4.4895,-4.4895,-4.4895,-4.4895,-4.4895,-4.4895,-4.4858,-4.4796,-4.4745,-4.4712,-4.4627,-4.4537,-4.4454,-4.4354,-4.427,-4.424,-4.4226,-4.4195,-4.4162,-4.4147,-4.4113,-4.4147,-4.4113,-4.4101,-4.4089,-4.4042,-4.3976,-4.3913,-4.374,-4.3463,-4.2913,-4.2555,-4.1961,-4.1599,-4.1158,-4.1091,-4.1077,-4.0875,-4.0288,-3.9829,-3.9882,-4.0212,-4.0432,-4.0561,-4.0783,-4.1095,-4.1113,-4.1475,-4.1726,-4.1793,-4.2592,-4.3005,-4.3301,-4.3775,-4.4051,-4.4211,-4.4314,-4.4401,-4.4468,-4.4524,-4.4592,-4.4672,-4.4719,-4.4802,-4.487,-4.4895,-4.4943,-4.5068,-4.5103,-4.5159,-4.5192,-4.5224,-4.5224,-4.5203,-4.5159,-4.5136,-4.5114,-4.5091,-4.5033,-4.4979,-4.4955,-4.4919,-4.4877,-4.4852,-4.4827,-4.4776,-4.4738,-4.4725,-4.4699,-4.4646,-4.4573,-4.4565,-4.4551,-4.4578,-4.4592,-4.4584,-4.4528,-4.4473,-4.4401,-4.4329,-4.4255,-4.418,-4.4085,-4.4496,-4.4482,-4.4482,-4.4482,-4.4524,-4.4627,-4.4693,-4.4732,-4.4833,-4.4883,-4.4895,-4.4895,-4.4895,-4.4895,-4.4895,-4.4895,-4.4895,-4.4895,-4.4877,-4.4821,-4.4808,-4.477,-4.4706,-4.4667,-4.4619,-4.4454,-4.4373,-4.4344,-4.4314,-4.4318,-4.427,-4.4285,-4.43,-4.427,-4.427,-4.424,-4.4214,-4.4184,-4.4101,-4.4055,-4.3976,-4.3886,-4.3489,-4.3005,-4.2721,-4.238,-4.194,-4.1746,-4.1605,-4.146,-4.146,-4.1479,-4.146,-4.1315,-4.1279,-4.1279,-4.1534,-4.1735,-4.1897,-4.2222,-4.2584,-4.2654,-4.3338,-4.3823,-4.3942,-4.4033,-4.4177,-4.43,-4.4387,-4.4458,-4.4496,-4.4551,-4.4632,-4.4712,-4.4776,-4.484,-4.4883,-4.4895,-4.4998,-4.508,-4.5125,-4.5181,-4.5235,-4.5267,-4.5277,-4.5277,-4.5235,-4.5203,-4.5181,-4.5159,-4.5103,-4.5033,-4.4991,-4.4943,-4.4902,-4.4877,-4.4852,-4.484,-4.4802,-4.4789,-4.4789,-4.4738,-4.4685,-4.4632,-4.4632,-4.4659,-4.4659,-4.4632,-4.4597,-4.4542,-4.4473,-4.4401,-4.4329,-4.4274,-4.4165,-4.4556,-4.4482,-4.4482,-4.4542,-4.4592,-4.4672,-4.4719,-4.4783,-4.4858,-4.4895,-4.4895,-4.4895,-4.4895,-4.4895,-4.4895,-4.4895,-4.4907,-4.4919,-4.4907,-4.4883,-4.4883,-4.4846,-4.4796,-4.477,-4.4738,-4.4646,-4.4537,-4.444,-4.4368,-4.4344,-4.4329,-4.4333,-4.4314,-4.4314,-4.4314,-4.4285,-4.4285,-4.427,-4.4222,-4.4211,-4.4195,-4.4131,-4.3986,-4.3582,-4.3449,-4.3342,-4.3293,-4.319,-4.3195,-4.3179,-4.3128,-4.3056,-4.2854,-4.2413,-4.2174,-4.2213,-4.2597,-4.2834,-4.2975,-4.3175,-4.3478,-4.3631,-4.3788,-4.3976,-4.4107,-4.4165,-4.4255,-4.4387,-4.4458,-4.4528,-4.4578,-4.4605,-4.4672,-4.4732,-4.4796,-4.4852,-4.4914,-4.4962,-4.5022,-4.5103,-4.5159,-4.5222,-4.5246,-4.5277,-4.5277,-4.5277,-4.5256,-4.5224,-4.5213,-4.5192,-4.5178,-4.5103,-4.5045,-4.4986,-4.4926,-4.4895,-4.487,-4.487,-4.4846,-4.4821,-4.484,-4.4815,-4.4764,-4.4738,-4.4712,-4.4712,-4.4699,-4.4699,-4.4672,-4.4619,-4.4556,-4.4473,-4.4416,-4.4358,-4.427,-4.4613,-4.4605,-4.4605,-4.4619,-4.4659,-4.4725,-4.4757,-4.4796,-4.4858,-4.4895,-4.4895,-4.4895,-4.4919,-4.495,-4.4943,-4.4955,-4.501,-4.4991,-4.4991,-4.4991,-4.4955,-4.4931,-4.4914,-4.487,-4.4808,-4.4764,-4.4685,-4.4605,-4.4491,-4.4468,-4.4444,-4.4416,-4.4401,-4.4401,-4.4401,-4.4373,-4.4358,-4.434,-4.4329,-4.4318,-4.4318,-4.4274,-4.4165,-4.4076,-4.3945,-4.3881,-4.3835,-4.3753,-4.3701,-4.3666,-4.3649,-4.3651,-4.3523,-4.3339,-4.3028,-4.305,-4.3345,-4.36,-4.3703,-4.3734,-4.3798,-4.3881,-4.3929,-4.4042,-4.4169,-4.4244,-4.4329,-4.4468,-4.4565,-4.4619,-4.4665,-4.4685,-4.4751,-4.477,-4.4821,-4.4883,-4.4943,-4.5003,-4.508,-4.5136,-4.517,-4.5213,-4.5256,-4.5277,-4.5277,-4.5277,-4.5277,-4.5256,-4.5235,-4.5224,-4.5222,-4.5136,-4.5068,-4.4998,-4.4995,-4.5066,-4.5103,-4.5085,-4.5198,-4.5174,-4.5085,-4.5174,-4.5004,-4.4821,-4.4815,-4.4928,-4.4789,-4.4802,-4.4751,-4.4712,-4.4646,-4.4597,-4.451,-4.444,-4.4387,-4.4706,-4.4712,-4.4712,-4.4712,-4.4719,-4.4789,-4.4796,-4.4821,-4.4889,-4.4895,-4.4895,-4.4895,-4.4931,-4.4979,-4.5014,-4.5057,-4.5103,-4.5084,-4.5091,-4.508,-4.5057,-4.5014,-4.4991,-4.4955,-4.4907,-4.4858,-4.4833,-4.4757,-4.4646,-4.4605,-4.4578,-4.4524,-4.451,-4.4496,-4.4468,-4.4426,-4.4411,-4.4397,-4.4354,-4.4344,-4.4329,-4.4314,-4.4285,-4.4214,-4.4119,-4.4023,-4.3979,-4.3849,-4.3818,-4.382,-4.3804,-4.3788,-4.3788,-4.3788,-4.3753,-4.3666,-4.3667,-4.3719,-4.3802,-4.3851,-4.3899,-4.3929,-4.4008,-4.4104,-4.4211,-4.4329,-4.4426,-4.4592,-4.4659,-4.4712,-4.4725,-4.4776,-4.4815,-4.4833,-4.4883,-4.4931,-4.501,-4.5068,-4.5136,-4.517,-4.5203,-4.5235,-4.5267,-4.5277,-4.5277,-4.5277,-4.5277,-4.5277,-4.5256,-4.5267,-4.5254,-4.517,-4.5091,-4.4991,-4.5064,-4.5293,-4.5388,-4.5501,-4.5786,-4.6001,-4.5811,-4.5679,-4.5565,-4.5571,-4.5294,-4.5369,-4.513,-4.4877,-4.4808,-4.4757,-4.4751,-4.4699,-4.4619,-4.4551,-4.4487,-4.4764,-4.4712,-4.4712,-4.4719,-4.4802,-4.4796,-4.4852,-4.4883,-4.4883,-4.4895,-4.4895,-4.4895,-4.4931,-4.5022,-4.5061,-4.5103,-4.5114,-4.5125,-4.5125,-4.5125,-4.5103,-4.5091,-4.5072,-4.5091,-4.5014,-4.4967,-4.4955,-4.4858,-4.4764,-4.4712,-4.4659,-4.4624,-4.4578,-4.4584,-4.4528,-4.4496,-4.4501,-4.4501,-4.4487,-4.4458,-4.4416,-4.4383,-4.434,-4.4285,-4.4229,-4.4169,-4.4123,-4.3995,-4.3915,-4.3883,-4.3837,-4.3804,-4.3788,-4.3788,-4.3835,-4.3835,-4.3818,-4.3802,-4.3883,-4.3915,-4.3963,-4.4008,-4.4104,-4.4195,-4.4314,-4.444,-4.4578,-4.4672,-4.4712,-4.4751,-4.4789,-4.4783,-4.4821,-4.487,-4.495,-4.4967,-4.5033,-4.5103,-4.517,-4.5213,-4.5254,-4.5256,-4.5277,-4.5277,-4.5277,-4.5277,-4.5297,-4.5316,-4.5507,-4.5679,-4.575,-4.5807,-4.5807,-4.5718,-4.5709,-4.5874,-4.5937,-4.6032,-4.6335,-4.6714,-4.6563,-4.6468,-4.679,-4.6721,-4.6329,-4.5855,-4.5622,-4.5344,-4.4997,-4.4821,-4.4815,-4.4764,-4.4712,-4.4632,-4.4597,-4.4833,-4.4827,-4.4808,-4.4821,-4.4865,-4.4846,-4.4877,-4.4883,-4.4895,-4.4895,-4.4907,-4.4931,-4.5003,-4.5114,-4.5181,-4.5203,-4.5203,-4.5203,-4.5203,-4.5192,-4.517,-4.514,-4.5148,-4.5125,-4.508,-4.5061,-4.5038,-4.5014,-4.4907,-4.4796,-4.4706,-4.4672,-4.4659,-4.4646,-4.4592,-4.4565,-4.4551,-4.4537,-4.451,-4.4487,-4.4473,-4.4458,-4.4411,-4.4354,-4.4329,-4.427,-4.4199,-4.4138,-4.4026,-4.3976,-4.3929,-4.3913,-4.3913,-4.3913,-4.391,-4.3961,-4.3929,-4.3929,-4.3942,-4.3942,-4.4023,-4.4104,-4.4165,-4.4259,-4.4383,-4.4551,-4.4667,-4.4745,-4.4783,-4.4821,-4.4865,-4.4846,-4.4895,-4.4943,-4.501,-4.5057,-4.5091,-4.5148,-4.5203,-4.5254,-4.5324,-4.5401,-4.5507,-4.5602,-4.5583,-4.5468,-4.5545,-4.566,-4.6118,-4.6691,-4.674,-4.6744,-4.6727,-4.6673,-4.6701,-4.6771,-4.6809,-4.6885,-4.6923,-4.7207,-4.7245,-4.7302,-4.7656,-4.7561,-4.7074,-4.662,-4.6203,-4.5615,-4.5098,-4.4934,-4.4858,-4.4808,-4.4776,-4.4751,-4.4672,-4.4895,-4.4895,-4.4895,-4.4895,-4.4895,-4.4895,-4.4895,-4.4895,-4.4895,-4.4926,-4.4962,-4.5003,-4.5095,-4.5192,-4.5265,-4.5267,-4.5277,-4.5277,-4.5277,-4.5286,-4.5265,-4.5224,-4.5213,-4.517,-4.5148,-4.5106,-4.5106,-4.5084,-4.5038,-4.4955,-4.4846,-4.4745,-4.4738,-4.4725,-4.4685,-4.4659,-4.4619,-4.4619,-4.4584,-4.4556,-4.4537,-4.4542,-4.4515,-4.4454,-4.4411,-4.4387,-4.4274,-4.4229,-4.4165,-4.4089,-4.4055,-4.4039,-4.3989,-4.3974,-4.3974,-4.4005,-4.4005,-4.4055,-4.4055,-4.4073,-4.4101,-4.4165,-4.427,-4.4373,-4.4524,-4.464,-4.4745,-4.4808,-4.4846,-4.4883,-4.4926,-4.4919,-4.4955,-4.5003,-4.5038,-4.5125,-4.5208,-4.5374,-4.5407,-4.5371,-4.5507,-4.5755,-4.5851,-4.5984,-4.5927,-4.5698,-4.5774,-4.6023,-4.6672,-4.7474,-4.7476,-4.7414,-4.7329,-4.7274,-4.7315,-4.7403,-4.7536,-4.777,-4.7808,-4.7997,-4.8187,-4.8294,-4.851,-4.8232,-4.7858,-4.7682,-4.7448,-4.6285,-4.5217,-4.5281,-4.5287,-4.4953,-4.4833,-4.4827,-4.4751,-4.4895,-4.4895,-4.4895,-4.4895,-4.4895,-4.4895,-4.4895,-4.4895,-4.4895,-4.4943,-4.5003,-4.5125,-4.5181,-4.5213,-4.5275,-4.5277,-4.5277,-4.5277,-4.5277,-4.5277,-4.5277,-4.5267,-4.5256,-4.5246,-4.5235,-4.5184,-4.5192,-4.5159,-4.5095,-4.5103,-4.4998,-4.4914,-4.4877,-4.4789,-4.4738,-4.4706,-4.4685,-4.4672,-4.4619,-4.4619,-4.4632,-4.4638,-4.4597,-4.4565,-4.451,-4.4473,-4.4383,-4.4329,-4.4274,-4.4199,-4.4165,-4.4116,-4.4067,-4.4051,-4.4051,-4.407,-4.4116,-4.4165,-4.4165,-4.4165,-4.4199,-4.4259,-4.4358,-4.4528,-4.4672,-4.4751,-4.4827,-4.4883,-4.4919,-4.5038,-4.5043,-4.5029,-4.5242,-4.5574,-4.5773,-4.5787,-4.5832,-4.5761,-4.5744,-4.5564,-4.5793,-4.629,-4.6519,-4.671,-4.671,-4.6519,-4.6844,-4.7111,-4.7474,-4.8094,-4.8022,-4.7945,-4.7841,-4.7762,-4.7719,-4.7947,-4.8466,-4.8725,-4.8838,-4.9148,-4.947,-4.9502,-4.9219,-4.9226,-4.8941,-4.8827,-4.853,-4.7403,-4.6506,-4.6045,-4.571,-4.5319,-4.4959,-4.4808,-4.4732,-4.4895,-4.4895,-4.4895,-4.4895,-4.4895,-4.4895,-4.4895,-4.4907,-4.4943,-4.5033,-4.5125,-4.5181,-4.5213,-4.5265,-4.5267,-4.5277,-4.5277,-4.5277,-4.5277,-4.5277,-4.5277,-4.5277,-4.5277,-4.5297,-4.5286,-4.5246,-4.5265,-4.5265,-4.5243,-4.5181,-4.5129,-4.5061,-4.5022,-4.4962,-4.4883,-4.4796,-4.4745,-4.4712,-4.4685,-4.4685,-4.4685,-4.4685,-4.4659,-4.464,-4.4592,-4.4524,-4.4473,-4.4383,-4.431,-4.4285,-4.4255,-4.4226,-4.4177,-4.4162,-4.4162,-4.4162,-4.4226,-4.424,-4.4274,-4.427,-4.4285,-4.4401,-4.4515,-4.4632,-4.4802,-4.4846,-4.4938,-4.4967,-4.506,-4.5261,-4.5817,-4.5905,-4.6081,-4.65,-4.6649,-4.6576,-4.6552,-4.647,-4.6511,-4.6522,-4.6836,-4.7253,-4.7406,-4.7502,-4.7444,-4.7406,-4.7818,-4.8181,-4.8525,-4.8831,-4.8835,-4.8838,-4.8753,-4.88,-4.8808,-4.9131,-4.9505,-4.9593,-4.9719,-4.9832,-4.9965,-4.9927,-4.9739,-4.9841,-4.9848,-4.9562,-4.91,-4.8416,-4.7745,-4.7081,-4.6329,-4.5615,-4.5256,-4.5016,-4.4939,-4.4895,-4.4895,-4.4895,-4.4895,-4.4895,-4.4895,-4.4926,-4.495,-4.4967,-4.508,-4.5192,-4.5213,-4.5265,-4.5297,-4.5277,-4.5277,-4.5277,-4.5277,-4.5277,-4.5277,-4.5277,-4.5277,-4.5277,-4.5277,-4.5297,-4.5277,-4.5277,-4.5297,-4.5286,-4.5246,-4.5224,-4.5203,-4.52,-4.5114,-4.5022,-4.4931,-4.4858,-4.484,-4.4776,-4.4789,-4.4802,-4.4764,-4.4719,-4.4719,-4.4667,-4.4632,-4.4565,-4.451,-4.4444,-4.4387,-4.4344,-4.4314,-4.43,-4.4318,-4.4318,-4.4314,-4.4329,-4.4325,-4.4377,-4.4373,-4.4416,-4.4496,-4.4646,-4.4745,-4.4858,-4.495,-4.5079,-4.5525,-4.5567,-4.5856,-4.6648,-4.6812,-4.6893,-4.7243,-4.7331,-4.7296,-4.7346,-4.7341,-4.7458,-4.7565,-4.7917,-4.8215,-4.8458,-4.8553,-4.8482,-4.8509,-4.8869,-4.9156,-4.9366,-4.9641,-4.9851,-4.9854,-4.9837,-4.9954,-5.0088,-4.9936,-4.9784,-4.9829,-4.9917,-4.9955,-5.0031,-5.0012,-5.0038,-5.0044,-5.0038,-5.007,-4.974,-4.9169,-4.8587,-4.7972,-4.7163,-4.6354,-4.6272,-4.6063,-4.5621,-4.4895,-4.4895,-4.4895,-4.4895,-4.4907,-4.4895,-4.4931,-4.4998,-4.5003,-4.5103,-4.5222,-4.5275,-4.5297,-4.5277,-4.5277,-4.5277,-4.5277,-4.5277,-4.5277,-4.5277,-4.5277,-4.5277,-4.5277,-4.5277,-4.5277,-4.5277,-4.5277,-4.5277,-4.5277,-4.5267,-4.5286,-4.5373,-4.5379,-4.5317,-4.5152,-4.5103,-4.5091,-4.5049,-4.495,-4.495,-4.4919,-4.4865,-4.4821,-4.4783,-4.4757,-4.4725,-4.4667,-4.4605,-4.457,-4.4515,-4.4473,-4.443,-4.4387,-4.4373,-4.4358,-4.4358,-4.4401,-4.4458,-4.4538,-4.4538,-4.4645,-4.4651,-4.4757,-4.4946,-4.4995,-4.5155,-4.5597,-4.6252,-4.6412,-4.6805,-4.7323,-4.7709,-4.7819,-4.8079,-4.8205,-4.8266,-4.8353,-4.8403,-4.857,-4.8679,-4.8881,-4.9152,-4.9452,-4.9635,-4.9562,-4.9663,-4.995,-5.0111,-5.0111,-5.0168,-5.0271,-5.0278,-5.0255,-5.0231,-5.0194,-5.0145,-5.0082,-5.0108,-5.0076,-5.0089,-5.0089,-5.0114,-5.0139,-5.0175,-5.0175,-5.0163,-5.0126,-4.9981,-4.9353,-4.8693,-4.7959,-4.7321,-4.727,-4.7017,-4.6479,-4.4895,-4.4895,-4.4943,-4.4955,-4.4974,-4.4974,-4.4998,-4.5003,-4.5091,-4.5181,-4.5246,-4.5297,-4.5277,-4.5277,-4.5277,-4.5277,-4.5277,-4.5277,-4.5277,-4.5277,-4.5277,-4.5277,-4.5277,-4.5277,-4.5277,-4.5277,-4.5277,-4.5277,-4.5277,-4.5277,-4.5277,-4.5354,-4.5755,-4.5712,-4.5322,-4.5136,-4.5103,-4.5091,-4.5057,-4.5033,-4.501,-4.4943,-4.4914,-4.4877,-4.484,-4.4783,-4.4776,-4.4731,-4.4772,-4.4764,-4.4742,-4.4753,-4.4706,-4.4706,-4.4664,-4.4626,-4.4662,-4.4947,-4.5353,-4.5581,-4.5337,-4.5124,-4.5029,-4.5416,-4.5803,-4.5974,-4.6515,-4.7072,-4.7301,-4.7781,-4.8396,-4.8587,-4.882,-4.9431,-4.9633,-4.9637,-4.9667,-4.969,-4.977,-4.9852,-5.0019,-4.9961,-5.0127,-5.0129,-5.0078,-5.0074,-5.027,-5.0241,-5.0237,-5.0225,-5.029,-5.029,-5.0278,-5.0259,-5.0236,-5.0207,-5.0182,-5.017,-5.0151,-5.0151,-5.0175,-5.0188,-5.0219,-5.0243,-5.0255,-5.0255,-5.0175,-5.0082,-4.9923,-4.9389,-4.8674,-4.8054,-4.7776,-4.7503,-4.7123,-4.4895,-4.4895,-4.4967,-4.501,-4.501,-4.5033,-4.5038,-4.5091,-4.5181,-4.5246,-4.5297,-4.5277,-4.5277,-4.5277,-4.5277,-4.5277,-4.5277,-4.5277,-4.5277,-4.5277,-4.5277,-4.5277,-4.5277,-4.5277,-4.5277,-4.5277,-4.5277,-4.5277,-4.5277,-4.5277,-4.5488,-4.5851,-4.6252,-4.6364,-4.6148,-4.6202,-4.597,-4.5875,-4.5681,-4.5457,-4.5213,-4.5014,-4.4986,-4.4938,-4.487,-4.4821,-4.4903,-4.5016,-4.5185,-4.521,-4.5366,-4.5504,-4.5523,-4.5542,-4.5561,-4.5561,-4.567,-4.6006,-4.6443,-4.6638,-4.6422,-4.614,-4.5889,-4.6202,-4.6771,-4.69,-4.7449,-4.793,-4.82,-4.8716,-4.9251,-4.9423,-4.9671,-5.0264,-5.0275,-5.023,-5.0275,-5.0229,-5.0273,-5.0432,-5.0513,-5.0542,-5.0572,-5.0544,-5.0467,-5.0474,-5.05,-5.0454,-5.0375,-5.0325,-5.0302,-5.0302,-5.0321,-5.0309,-5.0309,-5.0278,-5.0255,-5.0224,-5.0338,-5.046,-5.0243,-5.0255,-5.0278,-5.0309,-5.0298,-5.0267,-5.0207,-5.0095,-4.9968,-4.9808,-4.9451,-4.8869,-4.8338,-4.8123,-4.7964,-4.4895,-4.4907,-4.4967,-4.5022,-4.5033,-4.5091,-4.5148,-4.5203,-4.5256,-4.5277,-4.5277,-4.5277,-4.5277,-4.5277,-4.5277,-4.5277,-4.5277,-4.5277,-4.5277,-4.5277,-4.5277,-4.5277,-4.5277,-4.5277,-4.5277,-4.5277,-4.5277,-4.5277,-4.5297,-4.5526,-4.5889,-4.6347,-4.6806,-4.7169,-4.7502,-4.7701,-4.7288,-4.68,-4.6492,-4.621,-4.5891,-4.551,-4.5546,-4.5518,-4.5462,-4.5407,-4.5533,-4.5798,-4.6051,-4.6308,-4.6679,-4.6973,-4.7149,-4.7192,-4.7211,-4.7195,-4.7168,-4.7277,-4.7535,-4.7634,-4.7869,-4.7774,-4.7819,-4.7846,-4.7762,-4.7865,-4.8315,-4.8804,-4.9148,-4.9595,-5.0015,-5.0073,-5.0149,-5.0302,-5.0302,-5.0317,-5.0382,-5.0396,-5.047,-5.0551,-5.0593,-5.0613,-5.0643,-5.0653,-5.0719,-5.0709,-5.0726,-5.0873,-5.0749,-5.0375,-5.0363,-5.0302,-5.0321,-5.0378,-5.0417,-5.0627,-5.092,-5.1088,-5.0947,-5.0985,-5.0672,-5.0615,-5.0806,-5.0844,-5.0474,-5.0286,-5.0219,-5.0158,-5.0076,-4.9917,-4.9756,-4.9622,-4.9059,-4.9235,-4.9132,-4.4919,-4.4967,-4.5057,-4.5103,-4.5148,-4.5222,-4.5265,-4.5275,-4.5297,-4.5277,-4.5277,-4.5277,-4.5277,-4.5277,-4.5277,-4.5277,-4.5277,-4.5277,-4.5277,-4.5277,-4.5277,-4.5277,-4.5277,-4.5277,-4.5277,-4.5277,-4.5277,-4.5335,-4.5507,-4.5774,-4.6194,-4.6519,-4.7619,-4.8299,-4.8788,-4.9274,-4.8498,-4.7826,-4.7529,-4.7132,-4.6919,-4.6691,-4.667,-4.6573,-4.6517,-4.648,-4.6613,-4.6796,-4.7024,-4.7214,-4.7308,-4.7441,-4.7479,-4.7479,-4.7479,-4.746,-4.7547,-4.7786,-4.8452,-4.8651,-4.888,-4.939,-4.9543,-4.9267,-4.9007,-4.8851,-4.9146,-4.9545,-4.979,-5.0096,-5.0187,-5.0264,-5.0302,-5.0302,-5.0302,-5.0348,-5.0393,-5.0468,-5.054,-5.0603,-5.0643,-5.0788,-5.0798,-5.0856,-5.0903,-5.0884,-5.1008,-5.1252,-5.1283,-5.0987,-5.0815,-5.0772,-5.076,-5.0932,-5.1123,-5.1334,-5.1697,-5.1945,-5.1773,-5.1747,-5.1861,-5.1804,-5.1697,-5.1391,-5.0951,-5.0534,-5.02,-5.0151,-5.0133,-5.0038,-4.9916,-4.9914,-4.9925,-4.9893,-4.9838,-4.4955,-4.5003,-4.5103,-4.5181,-4.5254,-4.5286,-4.5277,-4.5277,-4.5277,-4.5277,-4.5277,-4.5277,-4.5277,-4.5277,-4.5277,-4.5277,-4.5277,-4.5277,-4.5277,-4.5277,-4.5277,-4.5277,-4.5277,-4.5277,-4.5277,-4.5297,-4.5354,-4.5488,-4.587,-4.6596,-4.7092,-4.7698,-4.8807,-4.9215,-4.9658,-4.9945,-4.9747,-4.9056,-4.8536,-4.8159,-4.7934,-4.7777,-4.765,-4.7679,-4.763,-4.7549,-4.758,-4.7713,-4.7966,-4.8137,-4.8194,-4.8536,-4.8604,-4.8623,-4.8672,-4.8729,-4.8803,-4.9102,-4.9545,-4.9655,-5.0016,-5.0338,-5.0532,-5.0265,-4.9995,-4.9771,-4.9967,-5.0191,-5.0245,-5.0317,-5.0294,-5.0302,-5.0302,-5.0302,-5.0325,-5.0359,-5.0416,-5.0489,-5.0563,-5.0663,-5.0779,-5.0933,-5.1029,-5.1106,-5.1395,-5.1836,-5.2064,-5.2165,-5.2187,-5.1966,-5.1813,-5.1747,-5.1677,-5.1677,-5.1888,-5.2098,-5.2365,-5.2556,-5.2442,-5.2492,-5.2829,-5.2733,-5.2358,-5.1907,-5.141,-5.1049,-5.0739,-5.0314,-5.017,-5.0076,-4.9999,-4.9965,-4.9939,-4.9893,-4.9843,-4.5022,-4.5045,-4.514,-4.5254,-4.5277,-4.5277,-4.5277,-4.5277,-4.5277,-4.5277,-4.5277,-4.5277,-4.5277,-4.5277,-4.5277,-4.5277,-4.5277,-4.5277,-4.5277,-4.5277,-4.5277,-4.5277,-4.5277,-4.5277,-4.5277,-4.5297,-4.5545,-4.5965,-4.6691,-4.7428,-4.8264,-4.9092,-4.9275,-4.9641,-5.0259,-5.0374,-5.0227,-5.0013,-4.9441,-4.8976,-4.8407,-4.8048,-4.7899,-4.799,-4.7957,-4.7903,-4.8023,-4.8384,-4.8897,-4.9169,-4.9461,-4.9898,-4.9917,-4.991,-4.999,-5.0049,-4.9912,-5.0038,-5.0199,-5.0278,-5.0398,-5.0554,-5.0594,-5.0557,-5.0402,-5.0284,-5.0374,-5.0358,-5.0393,-5.0099,-4.9989,-4.9862,-4.9824,-4.9595,-4.9435,-4.9491,-4.9567,-4.9754,-5.0018,-5.025,-5.0721,-5.0991,-5.1914,-5.2029,-5.2106,-5.2769,-5.3151,-5.3155,-5.3146,-5.3012,-5.2762,-5.2645,-5.2377,-5.2346,-5.2766,-5.2957,-5.3053,-5.311,-5.3168,-5.3357,-5.3764,-5.3465,-5.2931,-5.2619,-5.2294,-5.1773,-5.1386,-5.0942,-5.0474,-5.0101,-5.0025,-4.9973,-4.9933,-4.9906,-4.983,-4.5114,-4.514,-4.5235,-4.5286,-4.5277,-4.5277,-4.5277,-4.5277,-4.5277,-4.5277,-4.5277,-4.5277,-4.5277,-4.5277,-4.5277,-4.5277,-4.5277,-4.5277,-4.5277,-4.5277,-4.5277,-4.5277,-4.5277,-4.5277,-4.5316,-4.5526,-4.5908,-4.6729,-4.7494,-4.831,-4.8879,-4.9188,-4.9603,-5.03,-5.0534,-5.0562,-5.0521,-5.0492,-5.0197,-4.9843,-4.953,-4.9603,-4.9656,-4.9532,-4.9434,-4.9302,-4.9403,-4.9531,-4.9797,-4.9967,-5.0018,-5.0193,-5.0294,-5.0333,-5.0379,-5.0446,-5.0438,-5.0481,-5.0532,-5.0582,-5.0613,-5.0643,-5.0663,-5.0673,-5.0663,-5.0613,-5.0542,-5.0489,-5.0262,-4.9912,-4.9599,-4.9435,-4.9213,-4.885,-4.8563,-4.8652,-4.8783,-4.9219,-4.9567,-5.0125,-5.0683,-5.151,-5.251,-5.2933,-5.301,-5.3374,-5.387,-5.4114,-5.4219,-5.4142,-5.3642,-5.3409,-5.2912,-5.2938,-5.3473,-5.3817,-5.3913,-5.4237,-5.4428,-5.4581,-5.4668,-5.4291,-5.3838,-5.3573,-5.3235,-5.2612,-5.2014,-5.1532,-5.1051,-5.0393,-5.0082,-5.0031,-4.9933,-4.9893,-4.9816,-4.517,-4.5203,-4.5275,-4.5277,-4.5277,-4.5277,-4.5277,-4.5277,-4.5277,-4.5277,-4.5277,-4.5277,-4.5277,-4.5277,-4.5277,-4.5277,-4.5277,-4.5277,-4.5277,-4.5277,-4.5277,-4.5277,-4.5297,-4.5335,-4.566,-4.5946,-4.7131,-4.8028,-4.846,-4.9174,-4.9723,-4.9737,-5.0338,-5.0582,-5.0642,-5.0613,-5.0593,-5.0593,-5.0511,-5.0457,-5.0371,-5.0337,-5.029,-5.0255,-5.0219,-5.0175,-5.0151,-5.0145,-5.017,-5.0219,-5.0231,-5.029,-5.0348,-5.0359,-5.0446,-5.053,-5.0562,-5.0563,-5.0623,-5.0643,-5.0673,-5.0683,-5.0693,-5.0683,-5.0683,-5.0643,-5.0613,-5.0485,-4.9876,-4.9469,-4.9155,-4.8941,-4.8575,-4.82,-4.8288,-4.8447,-4.9358,-5.0315,-5.097,-5.1769,-5.2222,-5.2587,-5.3414,-5.378,-5.3953,-5.4489,-5.4918,-5.4833,-5.4975,-5.4961,-5.4536,-5.4212,-5.3772,-5.3855,-5.4486,-5.4715,-5.4791,-5.5154,-5.539,-5.525,-5.5032,-5.497,-5.4764,-5.446,-5.3965,-5.3221,-5.2643,-5.2045,-5.1183,-5.0385,-5.0158,-5.007,-4.9992,-4.9893,-4.983,-4.5213,-4.5233,-4.5267,-4.5277,-4.5277,-4.5277,-4.5277,-4.5277,-4.5277,-4.5277,-4.5277,-4.5277,-4.5277,-4.5277,-4.5277,-4.5277,-4.5277,-4.5277,-4.5277,-4.5277,-4.5277,-4.5277,-4.5354,-4.5488,-4.6156,-4.7092,-4.822,-4.8812,-4.9251,-4.9893,-5.0284,-5.0472,-5.0563,-5.0633,-5.0673,-5.0683,-5.0682,-5.0623,-5.0582,-5.0562,-5.0478,-5.0382,-5.0337,-5.029,-5.0267,-5.0212,-5.02,-5.0219,-5.0219,-5.0243,-5.029,-5.0348,-5.0393,-5.0427,-5.0511,-5.0593,-5.0613,-5.0643,-5.0683,-5.0683,-5.0702,-5.0712,-5.0702,-5.0693,-5.0693,-5.0558,-5.0538,-5.0306,-4.9679,-4.9022,-4.8709,-4.831,-4.7906,-4.7906,-4.8108,-4.863,-4.9963,-5.1161,-5.1999,-5.2914,-5.3337,-5.3606,-5.4164,-5.453,-5.4904,-5.547,-5.5638,-5.557,-5.5461,-5.5281,-5.5008,-5.4906,-5.4734,-5.5021,-5.5326,-5.5288,-5.5212,-5.5275,-5.5403,-5.5403,-5.5389,-5.5281,-5.5251,-5.5266,-5.4695,-5.39,-5.3061,-5.2368,-5.1436,-5.046,-5.0202,-5.0082,-5.0018,-4.9939,-4.9843,-4.5286,-4.5286,-4.5277,-4.5277,-4.5277,-4.5277,-4.5277,-4.5277,-4.5277,-4.5277,-4.5277,-4.5277,-4.5277,-4.5277,-4.5277,-4.5277,-4.5277,-4.5277,-4.5277,-4.5277,-4.5277,-4.5277,-4.5621,-4.629,-4.7264,-4.8181,-4.8976,-4.9385,-4.9752,-5.0213,-5.0489,-5.0511,-5.0633,-5.0673,-5.0683,-5.0683,-5.0683,-5.0653,-5.0642,-5.0603,-5.0542,-5.0478,-5.0382,-5.0348,-5.0314,-5.029,-5.0278,-5.0278,-5.0278,-5.0302,-5.0337,-5.0404,-5.0448,-5.0511,-5.0593,-5.0633,-5.0682,-5.0693,-5.0693,-5.0692,-5.0702,-5.0758,-5.073,-5.0692,-5.0529,-5.0144,-5.0192,-5.0384,-4.97,-4.8659,-4.8156,-4.7633,-4.7256,-4.7843,-4.8209,-4.9386,-5.0659,-5.1316,-5.1962,-5.2818,-5.353,-5.4203,-5.5107,-5.5299,-5.5318,-5.5671,-5.5615,-5.5547,-5.5492,-5.5446,-5.5384,-5.5403,-5.5403,-5.539,-5.5371,-5.5352,-5.5333,-5.5371,-5.5409,-5.5453,-5.5488,-5.5539,-5.5524,-5.5516,-5.5221,-5.456,-5.3721,-5.2606,-5.1656,-5.0744,-5.031,-5.0082,-5.0018,-4.9965,-4.9885]},{"header":{"parameterUnit":"m.s-1","parameterCategory":1,"la1":31.0,"la2":29.5877,"lo1":-88.7671,"lo2":-86.6584,"dy":0.0162,"dx":0.0185,"nx":115,"ny":88,"refTime":"2024-03-31T06:00:00:Z","depth":0,"parameterNumber":3,"parameterNumberName":"V-component_of_WINDS"},"data":[0.0,0.0,0.0,0.0,0.0,0.0,0.0,0.0,0.0,0.0,0.0,0.0,0.0,0.0,0.0,0.0,0.0,0.0,0.0,0.0,0.0,0.0,0.0,0.0,0.0,0.0,0.0,0.0,0.0,0.0,0.0,0.0,0.0,0.0,0.0,0.0,0.0,0.0,0.0,0.0,0.0,0.0,0.0,0.0,0.0,0.0,0.0,0.0,0.0,0.0,0.0,0.0,0.0,0.0,0.0,0.0,0.0,0.0,0.0,0.0,0.0,0.0,0.0,0.0,0.0,0.0,0.0,0.0,0.0,0.0,0.0,0.0,0.0,0.0,0.0,0.0,0.0,0.0,0.0,0.0,0.0,0.0,0.0,0.0,0.0,0.0,0.0,0.0,0.0,0.0,0.0,0.0,0.0,0.0,0.0,0.0,0.0,0.0,0.0,0.0,0.0,0.0,0.0,0.0,0.0,0.0,0.0,0.0,0.0,0.0,0.0,0.0,0.0,0.0,0.0,0.0,0.0,0.0,0.0,0.0,0.0,0.0,0.0,0.0,0.0,0.0,0.0,0.0,0.0,0.0,0.0,0.0,0.0,0.0,0.0,0.0,0.0,0.0,0.0,0.0,0.0,0.0,0.0,0.0,0.0,0.0,0.0,0.0,0.0,0.0,0.0,0.0,0.0,0.0,0.0,0.0,0.0,0.0,0.0,0.0,0.0,0.0,0.0,0.0,0.0,0.0,0.0,0.0,0.0,0.0,0.0,0.0,0.0,0.0,0.0,0.0,0.0,0.0,0.0,0.0,0.0,0.0,0.0,0.0,0.0,0.0,0.0,0.0,0.0,0.0,0.0,0.0,0.0,0.0,0.0,0.0,0.0,0.0,0.0,0.0,0.0,0.0,0.0,0.0,0.0,0.0,0.0,0.0,0.0,0.0,0.0,0.0,0.0,0.0,0.0,0.0,0.0,0.0,0.0,0.0,0.0,0.0,0.0,0.0,0.0,0.0,0.0,0.0,0.0,0.0,0.0,0.0,0.0,0.0,0.0,0.0,0.0,0.0,0.0,0.0,0.0,0.0,0.0,0.0,0.0,0.0,0.0,0.0,0.0,0.0,0.0,0.0,0.0,0.0,0.0,0.0,0.0,0.0,0.0,0.0,0.0,0.0,0.0,0.0,0.0,0.0,0.0,0.0,0.0,0.0,0.0,0.0,0.0,0.0,0.0,0.0,0.0,0.0,0.0,0.0,0.0,0.0,0.0,0.0,0.0,0.0,0.0,0.0,0.0,0.0,0.0,0.0,0.0,0.0,0.0,0.0,0.0,0.0,0.0,0.0,0.0,0.0,0.0,0.0,0.0,0.0,0.0,0.0,0.0,0.0,0.0,0.0,0.0,0.0,0.0,0.0,0.0,0.0,0.0,0.0,0.0,0.0,0.0,0.0,0.0,0.0,0.0,0.0,0.0,0.0,0.0,0.0,0.0,0.0,0.0,0.0,0.0,0.0,0.0,0.0,0.0,0.0,0.0,0.0,0.0,0.0,0.0,0.0,0.0,0.0,0.0,0.0,0.0,0.0,0.0,0.0,0.0,0.0,0.0,0.0,0.0,0.0,0.0,0.0,0.0,0.0,0.0,0.0,0.0,0.0,0.0,0.0,0.0,0.0,0.0,0.0,0.0,0.0,0.0,0.0,0.0,0.0,0.0,0.0,0.0,0.0,0.0,0.0,0.0,0.0,0.0,0.0,0.0,0.0,0.0,0.0,0.0,0.0,0.0,0.0,0.0,0.0,0.0,0.0,0.0,0.0,0.0,0.0,0.0,0.0,0.0,0.0,0.0,0.0,0.0,0.0,0.0,0.0,0.0,0.0,0.0,0.0,0.0,0.0,0.0,0.0,0.0,0.0,0.0,0.0,0.0,0.0,0.0,0.0,0.0,0.0,0.0,0.0,0.0,0.0,0.0,0.0,0.0,0.0,0.0,0.0,0.0,0.0,0.0,0.0,0.0,0.0,0.0,0.0,0.0,0.0,0.0,0.0,0.0,0.0,0.0,0.0,0.0,0.0,0.0,0.0,0.0,0.0,0.0,0.0,0.0,0.0,0.0,0.0,0.0,0.0,0.0,0.0,0.0,0.0,0.0,0.0,0.0,0.0,0.0,0.0,0.0,0.0,0.0,0.0,0.0,0.0,0.0,0.0,0.0,0.0,0.0,0.0,0.0,0.0,0.0,0.0,0.0,0.0,0.0,0.0,0.0,0.0,0.0,0.0,0.0,0.0,0.0,0.0,0.0,0.0,0.0,0.0,0.0,0.0,0.0,0.0,0.0,0.0,0.0,0.0,0.0,0.0,0.0,0.0,0.0,0.0,0.0,0.0,0.0,0.0,0.0,0.0,0.0,0.0,0.0,0.0,0.0,0.0,0.0,0.0,0.0,0.0,0.0,0.0,0.0,0.0,0.0,0.0,0.0,0.0,0.0,0.0,0.0,0.0,0.0,0.0,0.0,0.0,0.0,0.0,0.0,0.0,0.0,0.0,0.0,0.0,0.0,0.0,0.0,0.0,0.0,0.0,0.0,0.0,0.0,0.0,0.0,0.0,0.0,0.0,0.0,0.0,0.0,0.0,0.0,0.0,0.0,0.0,0.0,0.0,0.0,0.0,0.0,0.0,0.0,0.0,0.0,0.0,0.0,0.0,0.0,0.0,0.0,0.0,0.0,0.0,0.0,0.0,0.0,0.0,0.0,0.0,0.0,0.0,0.0,0.0,0.0,0.0,0.0,0.0,0.0,0.0,0.0,0.0,0.0,0.0,0.0,0.0,0.0,0.0,0.0,0.0,0.0,0.0,0.0,0.0,0.0,0.0,0.0,0.0,0.0,0.0,0.0,0.0,0.0,0.0,0.0,0.0,0.0,0.0,0.0,0.0,0.0,0.0,0.0,0.0,0.0,0.0,0.0,0.0,0.0,0.0,0.0,0.0,0.0,0.0,0.0,0.0,0.0,0.0,0.0,0.0,0.0,0.0,0.0,0.0,0.0,0.0,0.0,0.0,0.0,0.0,0.0,0.0,0.0,0.0,0.0,0.0,0.0,0.0,0.0,0.0,0.0,0.0,0.0,0.0,0.0,0.0,0.0,0.0,0.0,0.0,0.0,0.0,0.0,0.0,0.0,0.0,0.0,0.0,0.0,0.0,0.0,0.0,0.0,0.0,0.0,0.0,0.0,0.0,0.0,0.0,0.0,0.0,0.0,0.0,0.0,0.0,0.0,0.0,0.0,0.0,0.0,0.0,0.0,0.0,0.0,0.0,0.0,0.0,0.0,0.0,0.0,0.0,0.0,0.0,0.0,0.0,0.0,0.0,0.0,0.0,0.0,0.0,0.0,0.0,0.0,0.0,0.0,0.0,0.0,0.0,0.0,0.0,0.0,0.0,0.0,0.0,0.0,0.0,0.0,0.0,0.0,0.0,0.0,0.0,0.0,0.0,0.0,0.0,0.0,0.0,0.0,0.0,0.0,0.0,0.0,0.0,0.0,0.0,0.0,0.0,0.0,0.0,0.0,0.0,0.0,0.0,0.0,0.0,0.0,0.0,0.0,0.0,0.0,0.0,0.0,0.0,0.0,0.0,0.0,0.0,0.0,0.0,0.0,0.0,0.0,0.0,0.0,0.0,0.0,0.0,0.0,0.0,0.0,0.0,0.0,0.0,0.0,0.0,0.0,0.0,0.0,0.0,0.0,0.0,0.0,0.0,0.0,0.0,0.0,0.0,0.0,0.0,0.0,0.0,0.0,0.0,0.0,0.0,0.0,0.0,0.0,0.0,0.0,0.0,0.0,0.0,0.0,0.0,0.0,0.0,0.0,0.0,0.0,0.0,0.0,0.0,0.0,0.0,0.0,0.0,0.0,0.0,0.0,0.0,0.0,0.0,0.0,0.0,0.0,0.0,0.0,0.0,0.0,0.0,0.0,0.0,0.0,0.0,0.0,0.0,0.0,0.0,0.0,0.0,0.0,0.0,0.0,0.0,0.0,0.0,0.0,0.0,0.0,0.0,0.0,0.0,0.0,0.0,0.0,0.0,0.0,0.0,0.0,0.0,0.0,0.0,0.0,0.0,0.0,0.0,0.0,0.0,0.0,0.0,0.0,0.0,0.0,0.0,0.0,0.0,0.0,0.0,0.0,0.0,0.0,0.0,0.0,0.0,0.0,0.0,0.0,0.0,0.0,0.0,0.0,0.0,0.0,0.0,0.0,0.0,0.0,0.0,0.0,0.0,0.0,0.0,0.0,0.0,-0.8476,0.0,0.0,0.0,0.0,0.0,0.0,0.0,0.0,0.0,0.0,0.0,0.0,0.0,0.0,0.0,0.0,0.0,0.0,0.0,0.0,0.0,0.0,0.0,0.0,0.0,0.0,0.0,0.0,0.0,0.0,0.0,0.0,0.0,0.0,0.0,0.0,0.0,0.0,0.0,0.0,0.0,0.0,0.0,0.0,0.0,0.0,0.0,0.0,0.0,0.0,0.0,0.0,0.0,0.0,0.0,0.0,0.0,0.0,0.0,0.0,0.0,0.0,0.0,0.0,0.0,0.0,0.0,0.0,0.0,0.0,0.0,0.0,0.0,0.0,0.0,0.0,0.0,0.0,0.0,0.0,0.0,0.0,0.0,0.0,0.0,0.0,0.0,0.0,0.0,0.0,0.0,0.0,0.0,0.0,0.0,0.0,0.0,0.0,0.0,0.0,0.0,0.0,0.0,0.0,0.0,0.0,0.0,0.0,0.0,0.0,-0.8133,-0.8478,-0.816,-0.8171,-0.8476,0.0,0.0,0.0,0.0,0.0,0.0,0.0,0.0,0.0,0.0,0.0,0.0,0.0,0.0,0.0,0.0,0.0,0.0,0.0,0.0,0.0,0.0,0.0,0.0,0.0,0.0,0.0,0.0,0.0,0.0,0.0,0.0,0.0,0.0,0.0,0.0,0.0,0.0,0.0,0.0,0.0,0.0,0.0,0.0,0.0,0.0,0.0,0.0,0.0,0.0,0.0,0.0,0.0,0.0,0.0,0.0,0.0,0.0,0.0,0.0,0.0,0.0,0.0,0.0,0.0,0.0,0.0,0.0,0.0,0.0,0.0,0.0,0.0,0.0,0.0,0.0,0.0,0.0,0.0,0.0,0.0,0.0,0.0,0.0,0.0,0.0,0.0,0.0,0.0,0.0,0.0,0.0,0.0,0.0,0.0,0.0,0.0,0.0,0.0,0.0,0.0,0.0,0.0,0.0,0.0,0.0,0.0,0.0,0.0,0.0,0.0,0.0,-0.8078,-0.8134,-0.8435,0.0,0.0,0.0,0.0,0.0,0.0,0.0,0.0,0.0,0.0,0.0,0.0,0.0,0.0,0.0,0.0,0.0,0.0,0.0,0.0,0.0,0.0,0.0,0.0,0.0,0.0,0.0,0.0,0.0,0.0,0.0,0.0,0.0,0.0,0.0,0.0,0.0,0.0,0.0,0.0,0.0,0.0,0.0,0.0,0.0,0.0,0.0,0.0,0.0,0.0,0.0,0.0,0.0,0.0,0.0,0.0,0.0,0.0,0.0,0.0,0.0,0.0,0.0,0.0,0.0,0.0,0.0,0.0,0.0,0.0,0.0,0.0,0.0,0.0,0.0,0.0,0.0,0.0,0.0,0.0,0.0,0.0,0.0,0.0,0.0,0.0,0.0,0.0,0.0,0.0,0.0,0.0,0.0,0.0,0.0,0.0,0.0,0.0,0.0,0.0,0.0,0.0,0.0,0.0,0.0,0.0,0.0,0.0,0.0,0.0,-0.7261,-0.7654,-0.7792,0.0,-0.8319,0.0,0.0,0.0,0.0,0.0,0.0,0.0,0.0,0.0,0.0,0.0,0.0,0.0,0.0,0.0,0.0,0.0,0.0,0.0,0.0,0.0,0.0,0.0,0.0,0.0,0.0,0.0,0.0,0.0,0.0,0.0,0.0,0.0,0.0,0.0,0.0,0.0,0.0,0.0,0.0,0.0,0.0,0.0,0.0,0.0,0.0,0.0,0.0,0.0,0.0,0.0,0.0,0.0,0.0,0.0,0.0,0.0,0.0,0.0,0.0,0.0,0.0,0.0,0.0,0.0,0.0,0.0,0.0,0.0,0.0,0.0,0.0,0.0,0.0,0.0,0.0,0.0,0.0,0.0,0.0,0.0,0.0,0.0,0.0,0.0,0.0,0.0,0.0,0.0,0.0,0.0,0.0,0.0,0.0,0.0,0.0,0.0,0.0,0.0,0.0,0.0,0.0,0.0,0.0,0.0,0.0,0.0,0.0,0.0,0.0,-0.6116,-0.6493,-0.7415,-0.7965,0.0,0.0,0.0,0.0,0.0,0.0,0.0,0.0,0.0,0.0,0.0,0.0,0.0,0.0,0.0,0.0,0.0,0.0,0.0,0.0,0.0,0.0,0.0,0.0,0.0,0.0,0.0,0.0,0.0,0.0,0.0,0.0,0.0,0.0,0.0,0.0,0.0,0.0,0.0,0.0,0.0,0.0,0.0,0.0,0.0,0.0,0.0,0.0,0.0,0.0,0.0,0.0,0.0,0.0,0.0,0.0,0.0,0.0,0.0,0.0,0.0,0.0,0.0,0.0,0.0,0.0,0.0,0.0,0.0,0.0,0.0,0.0,0.0,0.0,0.0,0.0,0.0,0.0,0.0,0.0,0.0,0.0,0.0,0.0,0.0,0.0,0.0,0.0,0.0,0.0,0.0,0.0,0.0,0.0,0.0,0.0,0.0,0.0,0.0,0.0,0.0,0.0,0.0,0.0,0.0,0.0,0.0,0.0,0.0,0.0,-0.4302,-0.5085,-0.5872,-0.6939,-0.7654,-0.8002,0.0,0.0,0.0,0.0,0.0,0.0,0.0,0.0,0.0,0.0,0.0,0.0,0.0,0.0,0.0,0.0,0.0,0.0,0.0,0.0,0.0,0.0,0.0,0.0,0.0,0.0,0.0,0.0,0.0,0.0,0.0,0.0,0.0,0.0,0.0,0.0,0.0,0.0,0.0,0.0,0.0,0.0,0.0,0.0,0.0,0.0,0.0,0.0,0.0,0.0,0.0,0.0,0.0,0.0,0.0,0.0,0.0,0.0,0.0,0.0,0.0,0.0,0.0,0.0,0.0,0.0,0.0,0.0,0.0,0.0,0.0,0.0,0.0,0.0,0.0,0.0,0.0,0.0,0.0,0.0,0.0,0.0,0.0,0.0,0.0,0.0,0.0,0.0,0.0,0.0,0.0,0.0,0.0,0.0,0.0,0.0,0.0,0.0,0.0,0.0,0.0,0.0,0.0,0.0,0.0,0.0,0.0,0.0,-0.3394,-0.345,-0.4281,-0.5877,-0.6253,-0.6895,0.0,0.0,0.0,0.0,0.0,0.0,0.0,0.0,0.0,0.0,0.0,0.0,0.0,0.0,0.0,0.0,0.0,0.0,0.0,0.0,0.0,0.0,0.0,0.0,0.0,0.0,0.0,0.0,0.0,0.0,0.0,0.0,0.0,0.0,0.0,0.0,0.0,0.0,0.0,0.0,0.0,0.0,0.0,0.0,0.0,0.0,0.0,0.0,0.0,0.0,0.0,0.0,0.0,0.0,0.0,0.0,0.0,0.0,0.0,0.0,0.0,0.0,0.0,0.0,0.0,0.0,0.0,0.0,0.0,0.0,0.0,0.0,0.0,0.0,0.0,0.0,0.0,0.0,0.0,0.0,0.0,0.0,0.0,0.0,0.0,0.0,0.0,0.0,0.0,0.0,0.0,0.0,0.0,0.0,0.0,0.0,0.0,0.0,0.0,0.0,0.0,0.0,0.0,0.0,0.0,0.0,0.0,0.0,0.0,-0.1234,-0.1976,-0.3125,-0.4671,-0.5424,-0.6098,0.0,0.0,0.0,0.0,0.0,0.0,0.0,0.0,0.0,0.0,0.0,0.0,0.0,0.0,0.0,0.0,0.0,0.0,0.0,0.0,0.0,0.0,0.0,0.0,0.0,0.0,0.0,0.0,0.0,0.0,0.0,0.0,0.0,0.0,0.0,0.0,0.0,0.0,0.0,0.0,0.0,0.0,0.0,0.0,0.0,0.0,0.0,0.0,0.0,0.0,0.0,0.0,0.0,0.0,0.0,0.0,0.0,0.0,0.0,0.0,0.0,0.0,0.0,0.0,0.0,0.0,0.0,0.0,0.0,0.0,0.0,0.0,0.0,0.0,0.0,0.0,0.0,0.0,0.0,0.0,0.0,0.0,0.0,0.0,0.0,0.0,0.0,0.0,0.0,0.0,0.0,0.0,0.0,0.0,0.0,0.0,0.0,0.0,0.0,0.0,0.0,0.0,0.0,0.0,0.0,0.0,0.0,0.0,0.0,0.0,0.0,-0.1915,-0.3341,-0.4457,-0.5275,0.0,0.0,0.0,0.0,0.0,0.0,0.0,0.0,0.0,0.0,0.0,0.0,0.0,0.0,0.0,0.0,0.0,0.0,0.0,0.0,0.0,0.0,0.0,0.0,0.0,0.0,0.0,0.0,0.0,0.0,0.0,0.0,0.0,0.0,0.0,0.0,0.0,0.0,0.0,0.0,0.0,0.0,0.0,0.0,0.0,0.0,0.0,0.0,0.0,0.0,0.0,0.0,0.0,0.0,0.0,0.0,0.0,0.0,0.0,0.0,0.0,0.0,0.0,0.0,0.0,0.0,0.0,0.0,0.0,0.0,0.0,0.0,0.0,0.0,0.0,0.0,0.0,0.0,0.0,0.0,0.0,0.0,0.0,0.0,0.0,0.0,0.0,0.0,0.0,0.0,0.0,0.0,0.0,0.0,0.0,0.0,0.0,0.0,0.0,0.0,0.0,0.0,0.0,0.0,0.0,0.0,0.0,0.0,0.0,0.0,0.0,-0.0704,-0.1969,-0.3335,-0.4524,0.0,0.0,0.0,0.0,0.0,0.0,0.0,0.0,0.0,0.0,0.0,0.0,0.0,0.0,0.0,0.0,0.0,0.0,0.0,0.0,0.0,0.0,0.0,0.0,0.0,0.0,0.0,0.0,0.0,0.0,0.0,0.0,0.0,0.0,0.0,0.0,0.0,0.0,0.0,0.0,0.0,0.0,0.0,0.0,0.0,0.0,0.0,0.0,0.0,0.0,0.0,0.0,0.0,0.0,0.0,0.0,0.0,0.0,0.0,0.0,0.0,0.0,0.0,0.0,0.0,0.0,0.0,0.0,0.0,0.0,0.0,0.0,0.0,0.0,0.0,0.0,0.0,0.0,0.0,0.0,0.0,0.0,0.0,0.0,0.0,0.0,0.0,0.0,0.0,0.0,0.0,0.0,0.0,0.0,0.0,0.0,0.0,0.0,0.0,0.0,0.0,0.0,0.0,0.0,0.0,0.0,0.0,0.0,0.0,0.0,0.0,-0.0216,-0.065,-0.2701,-0.3997,0.0,0.0,0.0,0.0,0.0,0.0,0.0,0.0,0.0,0.0,0.0,0.0,0.0,0.0,0.0,0.0,0.0,0.0,0.0,0.0,0.0,0.0,0.0,0.0,0.0,0.0,0.0,0.0,0.0,0.0,0.0,0.0,0.0,0.0,0.0,0.0,0.0,0.0,0.0,0.0,0.0,0.0,0.0,0.0,0.0,0.0,0.0,0.0,0.0,0.0,0.0,0.0,0.0,0.0,0.0,0.0,0.0,0.0,0.0,0.0,0.0,0.0,0.0,0.0,0.0,0.0,0.0,0.0,0.0,0.0,0.0,0.0,0.0,0.0,0.0,0.0,0.0,0.0,0.0,0.0,0.0,0.0,0.0,0.0,0.0,0.0,0.0,0.0,0.0,0.0,0.0,0.0,0.0,0.0,0.0,0.0,0.0,0.0,0.0,0.0,0.0,0.0,0.0,0.0,0.0,0.0,0.0,0.0,0.0,0.0303,0.0209,0.016,0.0161,-0.1955,-0.3275,-0.3846,0.0,0.0,0.0,0.0,0.0,0.0,0.0,0.0,0.0,0.0,0.0,0.0,0.0,0.0,0.0,0.0,0.0,0.0,0.0,0.0,0.0,0.0,0.0,0.0,0.0,0.0,0.0,0.0,0.0,0.0,0.0,0.0,0.0,0.0,0.0,0.0,0.0,0.0,0.0,0.0,0.0,0.0,0.0,0.0,0.0,0.0,0.0,0.0,0.0,0.0,0.0,0.0,0.0,0.0,0.0,0.0,0.0,0.0,0.0,0.0,0.0,0.0,0.0,0.0,0.0,0.0,0.0,0.0,0.0,0.0,0.0,0.0,0.0,0.0,0.0,0.0,0.0,0.0,0.0,0.0,0.0,0.0,0.0,0.0,0.0,0.0,0.0,0.0,0.0,0.0,0.0,0.0,0.0,0.0,0.0,0.0,0.0,0.0,0.0,0.0,0.0,0.0,0.0,0.0,0.0,0.0,0.0,0.0,0.0808,0.0627,0.0475,0.0416,-0.102,-0.2398,0.0,0.0,0.0,0.0,0.0,0.0,0.0,0.0,0.0,0.0,0.0,0.0,0.0,0.0,0.0,0.0,0.0,0.0,0.0,0.0,0.0,0.0,0.0,0.0,0.0,0.0,0.0,0.0,0.0,0.0,0.0,0.0,0.0,0.0,0.0,0.0,0.0,0.0,0.0,0.0,0.0,0.0,0.0,0.0,0.0,0.0,0.0,0.0,0.0,0.0,0.0,0.0,0.0,0.0,0.0,0.0,0.0,0.0,0.0,0.0,0.0,0.0,0.0,0.0,0.0,0.0,0.0,0.0,0.0,0.0,0.0,0.0,0.0,0.0,0.0,0.0,0.0,0.0,0.0,0.0,0.0,0.0,0.0,0.0,0.0,0.0,0.0,0.0,0.0,0.0,0.0,0.0,0.0,0.0,0.0,0.0,0.0,0.0,0.0,0.0,0.0,0.0,0.0,0.0,0.0,0.0,0.0,0.0,0.0,0.1111,0.163,0.1501,0.0687,-0.083,-0.2355,0.0,0.0,0.0,0.0,0.0,0.0,0.0,0.0,0.0,0.0,0.0,0.0,0.0,0.0,0.0,0.0,0.0,0.0,0.0,0.0,0.0,0.0,0.0,0.0,0.0,0.0,0.0,0.0,0.0,0.0,0.0,0.0,0.0,0.0,0.0,0.0,0.0,0.0,0.0,0.0,0.0,0.0,0.0,0.0,0.0,0.0,0.0,0.0,0.0,0.0,0.0,0.0,0.0,0.0,0.0,0.0,0.0,0.0,0.0,0.0,0.0,0.0,0.0,0.0,0.0,0.0,0.0,0.0,0.0,0.0,0.0,0.0,0.0,0.0,0.0,0.0,0.0,0.0,0.0,0.0,0.0,0.0,0.0,0.0,0.0,0.0,0.0,0.0,0.0,0.0,0.0,0.0,0.0,0.0,0.0,0.0,0.0,0.0,0.0,0.0,0.0,0.0,0.0,0.0,0.0,0.0,0.0,0.0,0.1548,0.1514,0.2322,0.2395,0.1665,0.0207,-0.1391,0.0,0.0,0.0,0.0,0.0,0.0,0.0,0.0,0.0,0.0,0.0,0.0,0.0,0.0,0.0,0.0,0.0,0.0,0.0,0.0,0.0,0.0,0.0,0.0,0.0,0.0,0.0,0.0,0.0,0.0,0.0,0.0,0.0,0.0,0.0,0.0,0.0,0.0,0.0,0.0,0.0,0.0,0.0,0.0,0.0,0.0,0.0,0.0,0.0,0.0,0.0,0.0,0.0,0.0,0.0,0.0,0.0,0.0,0.0,0.0,0.0,0.0,0.0,0.0,0.0,0.0,0.0,0.0,0.0,0.0,0.0,0.0,0.0,0.0,0.0,0.0,0.0,0.0,0.0,0.0,0.0,0.0,0.0,0.0,0.0,0.0,0.0,0.0,0.0,0.0,0.0,0.0,0.0,0.0,0.0,0.0,0.0,0.0,0.0,0.0,0.0,0.0,0.0,0.0,0.0,0.0,0.0,0.0,0.2122,0.2169,0.2925,0.3179,0.2827,0.1538,-0.0051,0.0,0.0,0.0,0.0,0.0,0.0,0.0,0.0,0.0,0.0,0.0,0.0,0.0,0.0,0.0,0.0,0.0,0.0,0.0,0.0,0.0,0.0,0.0,0.0,0.0,0.0,0.0,0.0,0.0,0.0,0.0,0.0,0.0,0.0,0.0,0.0,0.0,0.0,0.0,0.0,0.0,0.0,0.0,0.0,0.0,0.0,0.0,0.0,0.0,0.0,0.0,0.0,0.0,0.0,0.0,0.0,0.0,0.0,0.0,0.0,0.0,0.0,0.0,0.0,0.0,0.0,0.0,0.0,0.0,0.0,0.0,0.0,0.0,0.0,0.0,0.0,0.0,0.0,0.0,0.0,0.0,0.0,0.0,0.0,0.0,0.0,0.0,0.0,0.0,0.0,0.0,0.0,0.0,0.0,0.0,0.0,0.0,0.0,0.0,0.0,0.0,0.0,0.0,0.0,0.0,0.0,0.0,0.0,0.2812,0.3277,0.4031,0.4033,0.313,0.1824,0.0253,0.0,0.0,0.0,0.0,0.0,0.0,0.0,0.0,0.0,0.0,0.0,0.0,0.0,0.0,0.0,0.0,0.0,0.0,0.0,0.0,0.0,0.0,0.0,0.0,0.0,0.0,0.0,0.0,0.0,0.0,0.0,0.0,0.0,0.0,0.0,0.0,0.0,0.0,0.0,0.0,0.0,0.0,0.0,0.0,0.0,0.0,0.0,0.0,-0.1702,0.0,0.0,0.0,0.0,0.0,0.0,0.0,0.0,0.0,0.0,0.0,0.0,0.0,0.0,0.0,0.0,0.0,0.0,0.0,0.0,0.0,0.0,0.0,0.0,0.0,0.0,0.0,0.0,0.0,0.0,0.0,0.0,0.0,0.0,0.0,0.0,0.0,0.0,0.0,0.0,0.0,0.0,0.0,0.0,0.0,0.0,0.0,0.0,0.0,0.0,0.0,0.0,0.0,0.0,0.0,0.0,0.0,0.0,0.0,0.3204,0.3981,0.4533,0.4533,0.3932,0.2674,0.1105,0.0,0.0,0.0,0.0,0.0,0.0,0.0,0.0,0.0,0.0,0.0,0.0,0.0,0.0,0.0,0.0,0.0,0.0,0.0,0.0,0.0,0.0,0.0,0.0,0.0,0.0,0.0,0.0,0.0,0.0,0.0,0.0,0.0,0.0,0.0,0.0,0.0,0.0,0.0,0.0,0.0,0.0,0.0,0.0,0.0,0.0,0.0,0.0,0.0,0.0,0.0,0.0,0.0,0.0,0.0,0.0,0.0,0.0,0.0,0.0,0.0,0.0,0.0,0.0,0.0,0.0,0.0,0.0,0.0,0.0,0.0,0.0,0.0,0.0,0.0,0.0,0.0,0.0,0.0,0.0,0.0,0.0,0.0,0.0,0.0,0.0,0.0,0.0,0.0,0.0,0.0,0.0,0.0,0.0,0.0,0.0,0.0,0.0,0.0,0.0,0.0,0.0,0.0,0.0,0.0,0.0,0.0,0.2572,0.3522,0.468,0.4933,0.4985,0.4782,0.3528,0.215,0.0639,0.0,0.0,0.0,0.0,0.0,0.0,0.0,0.0,0.0,0.0,0.0,0.0,0.0,0.0,0.0,0.0,0.0,0.0,0.0,0.0,0.0,0.0,0.0,0.0,0.0,0.0,0.0,0.0,0.0,0.0,0.0,0.0,0.0,0.0,0.0,0.0,0.0,0.0,-0.14,-0.1546,0.0,0.0,0.0,0.0,0.0,0.0,0.0,0.0,-0.1385,0.0,0.0,0.0,0.0,0.0,0.0,0.0,0.0,0.0,0.0,0.0,0.0,0.0,0.0,0.0,0.0,0.0,0.0,0.0,0.0,0.0,0.0,0.0,0.0,0.0,0.0,0.0,0.0,0.0,0.0,0.0,0.0,0.0,0.0,0.0,0.0,0.0,0.0,0.0,0.0,0.0,0.0,0.0,0.0,0.0,0.0,0.0,0.0,0.0,0.0,0.0,0.0,0.0,0.0,0.0,0.0,0.3259,0.3381,0.4325,0.6034,0.6134,0.5687,0.4834,0.3726,0.2598,0.1521,0.0,0.0,0.0,0.0,0.0,0.0,0.0,0.0,0.0,0.0,0.0,0.0,0.0,0.0,0.0,0.0,0.0,0.0,0.0,0.0,0.0,0.0,0.0,0.0,0.0,0.0,0.0,0.0,0.0,0.0,0.0,0.0,0.0,0.0,0.0,0.0,0.0,0.0,0.0,-0.1198,-0.1231,0.0,0.0,0.0,0.0,0.0,0.0,0.0,0.0,-0.097,0.0,0.0,0.0,0.0,0.0,0.0,0.0,0.0,0.0,0.0,0.0,0.0,0.0,0.0,0.0,0.0,0.0,0.0,0.0,0.0,0.0,0.0,0.0,0.0,0.0,0.0,0.0,0.0,0.0,0.0,0.0,0.0,0.0,0.0,0.0,0.0,0.0,0.0,0.0,0.0,0.0,0.0,0.0,0.0,0.0,0.0,0.0,0.0,0.0,0.0,0.0,0.0,0.0,0.0,0.0,0.3514,0.4219,0.5275,0.6734,0.6537,0.6137,0.5634,0.4189,0.3078,0.0,0.0,0.0,0.0,0.0,0.0,0.0,0.0,0.0,0.0,0.0,0.0,0.0,0.0,0.0,0.0,0.0,0.0,0.0,0.0,0.0,0.0,0.0,0.0,0.0,0.0,0.0,0.0,0.0,0.0,0.0,0.0,0.0,0.0,0.0,0.0,0.0,0.0,0.0,0.0,-0.0813,-0.0658,-0.0107,0.0,0.0,0.0,0.0,0.0,0.0,-0.0771,-0.0712,0.0,0.0,0.0,0.0,0.0,0.0,0.0,0.0,0.0,0.0,0.0,0.0,0.0,0.0,0.0,0.0,0.0,0.0,0.0,0.0,0.0,0.0,0.0,0.0,0.0,0.0,0.0,0.0,0.0,0.0,0.0,0.0,0.0,0.0,0.0,0.0,0.0,0.0,0.0,0.0,0.0,0.0,0.0,0.0,0.0,0.0,0.0,0.0,0.0,0.0,0.0,0.0,0.0,0.0,0.0,0.3745,0.4962,0.619,0.7375,0.6986,0.6686,0.6534,0.4613,0.3367,0.0,0.0,0.0,0.0,0.0,0.0,0.0,0.0,0.0,0.0,0.0,0.0,0.0,0.0,0.0,0.0,0.0,0.0,0.0,0.0,0.0,0.0,0.0,0.0,0.0,0.0,0.0,0.0,0.0,0.0,0.0,0.0,0.0,0.0,0.0,0.0,0.0,0.0,0.0,0.0,0.0,0.0054,0.0743,0.016,0.0,0.0,0.0,0.0,-0.0427,-0.0156,0.0,0.0,0.0,0.0,0.0,0.0,0.0,0.0,0.0,0.0,0.0,0.0,0.0,0.0,0.0,0.0,0.0,0.0,0.0,0.0,0.0,0.0,0.0,0.0,0.0,0.0,0.0,0.0,0.0,0.0,0.0,0.0,0.0,0.0,0.0,0.0,0.0,0.0,0.0,0.0,0.0,0.0,0.0,0.0,0.0,0.0,0.0,0.0,0.0,0.0,0.0,0.0,0.0,0.0,0.0,0.0,0.4303,0.5506,0.6774,0.8166,0.7988,0.759,0.7086,0.4814,0.3486,0.0,0.0,0.0,0.0,0.0,0.0,0.0,0.0,0.0,0.0,0.0,0.0,0.0,0.0,0.0,0.0,0.0,0.0,0.0,0.0,0.0,0.0,0.0,0.0,0.0,0.0,0.0,0.0,0.0,0.0,0.0,0.0,0.0,0.0,0.0,0.0,0.0,0.0,0.0,0.0,0.0,0.0725,0.1101,0.0588,0.0595,0.0,0.0,0.1311,0.2112,0.201,0.0,0.0,0.0,0.0,0.0,0.0,0.0,0.0,0.0,0.0,0.0,0.0,0.0,0.0,0.0,0.0,0.0,0.0,0.0,0.0,0.0,0.0,0.0,0.0,0.0,0.0,0.0,0.0,0.0,0.0,0.0,0.0,0.0,0.0,0.0,0.0,0.0,0.0,0.0,0.0,0.0,0.0,0.0,0.0,0.0,0.0,0.0,0.0,0.0,0.0,0.0,0.0,0.0,0.0,0.0,0.3374,0.4465,0.6266,0.7638,0.8492,0.834,0.8035,0.7686,0.5169,0.3695,0.0,0.0,0.0,0.0,0.0,0.0,0.0,0.0,0.0,0.0,0.0,0.0,0.0,0.0,0.0,0.0,0.0,0.0,0.0,0.0,0.0,0.0,0.0,0.0,0.0,0.0,0.0,0.0,0.0,0.0,0.0,0.0,0.0,0.0,0.0,0.0,0.0,0.0,0.0,0.0,0.0,0.0,0.1817,0.2144,0.0,0.0,0.0,0.2606,0.2477,0.0,0.0,0.0,0.0,0.0,0.0,0.0,0.0,0.0,0.0,0.0,0.0,0.0,0.0,0.0,0.0,0.0,0.0,0.0,0.0,0.0,0.0,0.0,0.0,0.0,0.0,0.0,0.0,0.0,0.0,0.0,0.0,0.0,0.0,0.0,0.0,0.0,0.0,0.0,0.0,0.0,0.0,0.0,0.0,0.0,0.0,0.0,0.0,0.0,0.0,0.0,0.0,0.0,0.0,0.0,0.0,0.0,0.4732,0.7034,0.8521,0.8923,0.8849,0.8662,0.8326,0.5992,0.0,0.0,0.0,0.0,0.0,0.0,0.0,0.0,0.0,0.0,0.0,0.0,0.0,0.0,0.0,0.0,0.0,0.0,0.0,0.0,0.0,0.0,0.0,0.0,0.0,0.0,0.0,-0.1291,0.0,0.0,0.0,0.0,0.0,0.0,0.0,0.0,0.0,0.0,0.0,0.0,0.0,0.0,0.2772,0.3077,0.371,0.4285,0.0,0.0,0.3877,0.3354,0.353,0.3515,0.0,0.0,0.0,0.0,0.0,0.0,0.0,0.0,0.0,0.0,0.0,0.0,0.0,0.0,0.0,0.0,0.0,0.0,0.0,0.0,0.0,0.0,0.0,0.0,0.0,0.0,0.0,0.0,0.0,0.0,0.0,0.0,0.0,0.0,0.0,0.0,0.0,0.0,0.0,0.0,0.0,0.0,0.0,0.0,0.0,0.0,0.0,0.0,0.0,0.0,0.0,0.0,0.0,0.0,0.4499,0.5322,0.7734,0.9319,0.9988,0.9926,0.9739,0.9284,0.7604,0.5892,0.0,0.0,0.0,0.0,0.0,0.0,0.0,0.0,0.0,0.0,0.0,0.0,0.0,0.0,0.0,0.0,0.0,0.0,0.0,0.0,0.0,0.0,0.0,0.0,0.0,0.0,0.0,0.0,0.0,0.0,0.0,0.0,0.0,0.0,0.0,0.0,0.0,0.0,0.0,0.0,0.0,0.4685,0.4988,0.5068,0.5489,0.0,0.5649,0.5036,0.5873,0.5554,0.5223,0.5431,0.0,0.0,0.0,0.0,0.0,0.0,0.0,0.0,0.0,0.0,0.0,0.0,0.0,0.0,0.0,0.0,0.0,0.0,0.0,0.0,0.0,0.0,0.0,0.0,0.0,0.0,0.0,0.0,0.0,0.0,0.0,0.0,0.0,0.0,0.0,0.0,0.0,0.0,0.0,0.0,0.0,0.0,0.0,0.0,0.0,0.0,0.0,0.0,0.0,0.0,0.0,0.0,0.0,0.456,0.5303,0.7858,0.9417,0.996,1.0191,1.0065,0.9566,0.8171,0.6499,0.0,0.0,0.0,0.0,0.0,0.0,0.0,0.0,0.0,0.0,0.0,0.0,0.0,0.0,0.0,0.0,0.0,0.0,0.0,0.0,0.0,0.0,0.0,0.0,0.0,0.0,0.0,0.0,-0.0456,-0.0382,-0.0467,0.0,0.0,0.0,0.0,0.0,0.0,0.0,0.0,0.0,0.0,0.5233,0.5424,0.6093,0.0,0.0,0.6846,0.6497,0.6826,0.6424,0.6076,0.614,0.6115,0.0,0.0,0.0,0.0,0.0,0.0,0.0,0.0,0.0,0.0,0.0,0.0,0.0,0.0,0.0,0.0,0.0,0.0,0.0,0.0,0.0,0.0,0.0,0.0,0.0,0.0,0.0,0.0,0.0,0.0,0.0,0.0,0.0,0.0,0.0,0.0,0.0,0.0,0.0,0.0,0.0,0.0,0.0,0.0,0.0,0.0,0.0,0.0,0.0,0.0,0.0,0.0,0.4856,0.5521,0.8174,0.9773,1.0227,1.0649,1.0537,0.9975,0.9121,0.7709,0.0,0.0,0.0,0.0,0.0,0.0,0.0,0.0,0.0,0.0,0.0,0.0,0.0,0.0,0.0,0.0,0.0,0.0,0.0,0.0,0.0,0.0,0.0,0.0,0.0,0.0,0.0,0.0,-0.0128,-0.0086,-0.0342,0.0,0.0,0.0,0.0,0.0,0.0,0.0,0.0,0.0,0.0,0.621,0.6422,0.7139,0.7709,0.7701,0.7508,0.7327,0.7295,0.6947,0.6733,0.6686,0.0,0.0,0.0,0.0,0.0,0.0,0.0,0.0,0.0,0.0,0.0,0.0,0.0,0.0,0.0,0.0,0.0,0.0,0.0,0.0,0.0,0.0,0.0,0.0,0.0,0.0,0.0,0.0695,0.0,0.0,0.059,0.0,0.0,0.0,0.0,0.0,0.0,0.0,0.0,0.0,0.0,0.0,0.0,0.0,0.0,0.0,0.0,0.0,0.0,0.0,0.0,0.0,0.0,0.5521,0.5989,0.879,1.0487,1.094,1.1369,1.1237,1.0641,1.0816,0.983,0.7488,0.0,0.0,0.0,0.0,0.0,0.0,0.0,0.0,0.0,0.0,0.0,0.0,0.0,0.0,0.0,0.0,0.0,0.0,0.0,0.0,0.0,0.0,0.0,0.0,0.0,0.0,-0.0505,-0.0211,-0.0042,0.0,0.0,0.0,0.0,0.0,0.0,0.0,0.0,0.0,0.5661,0.6882,0.7889,0.825,0.8352,0.8232,0.802,0.7626,0.7348,0.7402,0.72,0.7113,0.0,0.0,0.0,0.0,0.0,0.0,0.0,0.0,0.0,0.0,0.0,0.0,0.0,0.0,0.0,0.0,0.0,0.0,0.0,0.0,0.0,0.0,0.0,0.0,0.0,0.0,0.0,0.2279,0.2118,0.0,0.0,0.0,0.0,0.0,0.0,0.0,0.0,0.0,0.0,0.0,0.565,0.5524,0.0,0.0,0.0,0.0,0.0,0.0,0.0,0.0,0.0,0.0,0.0,0.0,0.569,0.6119,0.9169,1.0927,1.1194,1.1625,1.1712,1.1364,1.1233,1.0096,0.779,0.0,0.0,0.0,0.0,0.0,0.0,0.0,0.0,0.0,0.0,0.0,0.0,0.0,0.0,0.0,0.0,0.0,0.0,0.0,0.0,0.0,0.0,0.0,0.0,0.0,0.029,0.0,0.0,0.0,0.0,0.0,0.0,0.0,0.0,0.0,0.0,0.0,0.5374,0.6737,0.7357,0.7758,0.8001,0.8097,0.8145,0.0,0.0,0.0,0.0,0.0,0.0,0.0,0.0,0.0,0.0,0.0,0.0,0.0,0.0,0.821,0.8605,0.7989,0.7452,0.7637,0.0,0.0,0.0,0.0,0.0,0.0,0.0,0.0,0.0,0.0,0.0,0.0,0.0,0.0,0.4075,0.3759,0.4063,0.0,0.0,0.0,0.0,0.0,0.0,0.0,0.0,0.6406,0.7332,0.8081,0.7984,0.7905,0.0,0.7015,0.539,0.0,0.0,0.0,0.0,0.0,0.0,0.0,0.0,0.606,0.6829,0.9615,1.1284,1.1671,1.2032,1.2198,1.2057,1.1714,1.074,0.9062,0.745,0.5907,0.0,0.0,0.0,0.0,0.0,0.0,0.0,0.0,0.0,0.0,0.0,0.0,0.0,0.0,0.0,0.0,0.0,0.0,0.0,0.0,0.0,0.0,0.0,0.1298,0.0,0.0,0.0,0.0,0.0,0.0,0.0,0.0,0.0,0.5118,0.5492,0.6315,0.7614,0.7874,0.7943,0.7965,0.0,0.0,0.0,0.0,0.0,0.0,0.0,0.8472,0.9669,1.0053,1.0379,1.0858,1.0644,1.0461,1.0596,0.0,0.0,0.9681,0.8996,0.8593,0.8792,0.8947,0.912,0.9356,0.9739,1.0034,0.0,0.0,0.0,0.0,0.0,0.0,0.0,0.0,0.6385,0.6096,0.0,0.6058,0.0,0.0,0.0,0.0,0.4467,0.6728,0.0,0.0,1.0352,1.1187,1.0147,1.0114,1.0112,0.9969,0.8312,0.7415,0.723,0.6567,0.0,0.0,0.0,0.0,0.0,0.0,0.6739,0.8151,1.0281,1.1671,1.2363,1.2619,1.2705,1.2705,1.2272,1.1794,1.1262,0.954,0.833,0.7786,0.4745,0.0,0.0,0.0,0.0,0.0,0.0,0.0,0.0,0.0,0.0,0.0,0.0,0.0,0.0,0.0,0.0,0.0,0.0,0.0,0.0,0.2241,0.0,0.0,0.0,0.0,0.0,0.0,0.0,0.0,0.0,0.0,0.571,0.6571,0.7555,0.8174,0.0,0.0,0.0,0.0,0.8582,0.8045,0.787,0.7909,0.8245,0.8676,0.9192,0.9835,0.0,0.0,1.0978,1.144,1.1961,1.2326,1.2248,1.166,1.0012,0.9875,1.0032,1.0225,1.045,1.0747,1.1153,1.1253,1.1341,0.7631,0.0,0.0,0.0,0.0,0.6167,0.6907,0.8127,0.816,0.8074,0.7869,0.8005,0.0,0.0,0.0,0.0,0.0,0.0,0.8551,0.9802,1.0622,1.1532,1.2475,1.234,1.2274,1.2264,1.1533,1.1202,1.1121,1.0627,0.8114,0.3883,0.0,0.0,0.0,0.0,0.8018,0.9134,1.1187,1.24,1.2619,1.3009,1.3137,1.3009,1.2662,1.2277,1.1794,1.0989,0.9814,0.8338,0.7081,0.0,0.0,0.0,0.0,0.0,0.0,0.0,0.0,0.0,0.0,0.0,0.0,0.0,0.0,0.0,0.0,0.0,0.0,0.0,0.2688,0.3367,0.3902,0.0,0.0,0.0,0.0,0.0,0.0,0.0,0.0,0.0,0.7308,0.7271,0.7478,0.0,0.0,0.7944,0.7856,0.8353,0.8729,0.8729,0.9027,0.0,0.9701,0.9791,1.0291,1.1882,1.3032,1.3665,1.3573,1.31,1.2765,1.2881,1.2761,1.2412,1.1958,1.1308,1.1047,1.138,1.1553,1.1742,1.2251,1.2602,1.2844,1.0824,0.9529,0.8062,0.7767,0.8365,0.8368,0.9143,1.0438,1.0464,1.0294,1.0083,1.0269,0.9594,0.8216,0.8159,0.0,0.0,0.0,1.051,1.1971,1.2062,1.2719,1.3757,1.3707,1.3631,1.362,1.3281,1.3118,1.3107,1.2409,1.0132,0.6453,0.0,0.0,0.591,0.7819,0.9288,1.0366,1.2014,1.2918,1.3088,1.3555,1.3646,1.3355,1.3307,1.296,1.2314,1.2015,1.1155,0.9682,0.8723,0.7452,0.0,0.0,0.0,0.0,0.0,0.0,0.0,0.0,0.0,0.0,0.0,0.2064,0.1922,0.0,0.0,0.0,0.3628,0.3866,0.4247,0.464,0.0,0.0,0.0,0.0,0.0,0.0,0.0,0.7242,0.7855,0.8345,0.8406,0.8238,0.8243,0.8479,0.8394,0.8336,0.8332,0.0,0.915,0.9312,0.9646,1.0139,1.0645,1.0799,1.1396,1.2972,1.3779,1.4196,1.4178,1.363,1.3255,1.3249,1.3147,1.3055,1.3055,1.2608,1.2262,1.2414,1.2608,1.2899,1.3292,1.3721,1.4004,1.3588,1.327,0.9857,0.9255,1.0559,1.0559,1.1461,1.2856,1.2856,1.2559,1.2155,1.2662,1.1742,0.9884,0.9801,0.0,1.1128,1.2215,1.3163,1.3979,1.4256,1.4346,1.4346,1.4346,1.4346,1.434,1.3915,1.3708,1.3661,1.2728,1.162,1.0454,0.9771,0.9192,0.8657,0.9455,1.0498,1.1736,1.2612,1.3283,1.373,1.4188,1.4195,1.3822,1.3997,1.3701,1.2833,1.2747,1.2314,1.1402,0.9979,0.8802,0.7983,0.0,0.0,0.0,0.0,0.0,0.0,0.0,0.0,0.0,0.0,0.0,0.0,0.0,0.0,0.0,0.492,0.0,0.6037,0.602,0.0,0.0,0.0,0.7042,0.7701,0.8001,0.8154,0.8236,0.0,0.0,0.9133,0.9349,0.947,0.9511,0.9403,0.9308,0.9327,0.9592,0.9809,0.9738,1.0008,1.0478,1.13,1.1736,1.239,1.34,1.3588,1.3665,1.3665,1.3599,1.3588,1.363,1.3582,1.3636,1.3636,1.3817,1.3859,1.334,1.3624,1.4004,1.4292,1.4586,1.4921,1.4208,1.4298,1.3233,1.2779,1.2753,1.2753,1.2984,1.3346,1.3346,1.3244,1.3141,1.3292,1.3253,1.3169,1.3351,1.3642,1.4094,1.4344,1.4584,1.4796,1.4892,1.4892,1.4933,1.4892,1.4885,1.4927,1.4775,1.4744,1.4731,1.4278,1.3507,1.2441,1.2028,1.0987,0.93,1.0144,1.1126,1.213,1.2519,1.3194,1.4195,1.4356,1.4433,1.4489,1.4208,1.4004,1.3786,1.3264,1.2796,1.24,1.1642,1.0826,0.9902,0.816,0.0,0.0,0.0,0.0,0.0,0.0,0.0,0.0,0.0,0.3868,0.3511,0.0,0.5141,0.0,0.6561,0.7341,0.7838,0.7867,0.0,0.0,0.8207,0.8327,0.8592,0.9067,0.9246,0.891,0.9372,0.9733,0.9785,0.9832,1.0072,1.0522,0.9979,0.954,0.9536,0.9949,1.034,1.0518,1.1233,1.1938,1.2363,1.3007,1.3584,1.4033,1.4112,1.4154,1.4406,1.4256,1.4154,1.4352,1.4406,1.4496,1.4652,1.479,1.4742,1.4646,1.4544,1.4634,1.5057,1.5343,1.5642,1.464,1.4838,1.4592,1.4304,1.4022,1.3919,1.3871,1.3871,1.3871,1.3871,1.3865,1.3871,1.4064,1.449,1.464,1.4831,1.5083,1.5131,1.5131,1.5131,1.5131,1.5131,1.5131,1.5131,1.5131,1.5131,1.5131,1.5131,1.5118,1.4965,1.4584,1.394,1.3789,1.2911,1.1405,1.1221,1.1427,1.1934,1.257,1.3386,1.4363,1.4608,1.4482,1.3964,1.3851,1.3385,1.2571,1.2124,1.1674,1.125,1.0895,1.0392,0.9717,0.8506,0.758,0.0,0.0,0.0,0.0,0.0,0.0,0.0,0.0,0.0,0.0,0.0,0.6682,0.7015,0.7866,0.8444,0.8605,0.8565,0.8735,0.9148,0.9206,0.9304,0.9646,0.9999,1.0107,0.9834,1.0176,1.0431,1.0426,1.0516,1.0706,1.1083,1.068,1.0346,1.0237,1.0481,1.0829,1.1303,1.1941,1.2653,1.3327,1.3919,1.4358,1.4598,1.464,1.4694,1.4838,1.4736,1.4688,1.4831,1.4885,1.4933,1.5083,1.522,1.5267,1.5267,1.5315,1.541,1.554,1.5872,1.6244,1.4831,1.5077,1.479,1.4688,1.4736,1.449,1.4346,1.4298,1.4346,1.4346,1.4394,1.44,1.4538,1.4783,1.4831,1.4927,1.5178,1.5178,1.5172,1.5178,1.5172,1.5178,1.5178,1.5178,1.5172,1.5178,1.5178,1.5178,1.5172,1.5172,1.5091,1.4934,1.4934,1.4502,1.3631,1.2308,1.1631,1.1614,1.2684,1.3585,1.4291,1.4578,1.4148,1.2985,1.3082,1.2407,1.0758,1.0525,1.0129,0.9541,0.9312,0.9188,0.9103,0.8302,0.7805,0.0,0.6961,0.0,0.0,0.0,0.0,0.0,0.0,0.0,0.0,0.7962,0.8102,0.8407,0.8982,0.9218,0.9016,0.9033,0.9302,0.9938,1.0077,1.0312,1.0796,1.0862,1.0814,1.0814,1.0959,1.1051,1.1024,1.1219,1.1267,1.1273,1.1234,1.1133,1.1093,1.1071,1.1321,1.2024,1.2424,1.3152,1.4058,1.4544,1.4838,1.5083,1.5083,1.5131,1.5124,1.5083,1.5083,1.5124,1.5172,1.5172,1.5178,1.541,1.554,1.5547,1.5879,1.6123,1.6021,1.6305,1.673,1.464,1.5077,1.479,1.4831,1.5035,1.4981,1.4694,1.4298,1.4544,1.4736,1.4939,1.4933,1.507,1.535,1.5356,1.5445,1.5642,1.5689,1.5642,1.5689,1.5689,1.5642,1.5689,1.5689,1.5689,1.5689,1.5683,1.5642,1.5642,1.5642,1.5229,1.4458,1.441,1.3921,1.2945,0.0,0.0,0.0,1.2729,1.328,1.3716,1.3084,1.2645,1.2438,1.2143,0.0,1.1062,1.0768,1.0423,0.9919,0.9999,0.0,0.0,0.0,0.0,0.0,0.0,0.0,0.0,0.0,0.0,0.0,0.9313,0.9017,0.8733,0.8856,0.9145,0.9676,0.9752,0.996,1.0488,1.0696,1.0958,1.1277,1.15,1.1608,1.1742,1.1607,1.1527,1.1521,1.1348,1.1224,1.1224,1.1267,1.1311,1.1311,1.1311,1.1354,1.1527,1.1527,1.1745,1.2286,1.3182,1.4058,1.4526,1.4885,1.5124,1.5315,1.522,1.522,1.5356,1.5226,1.5226,1.5356,1.5452,1.5452,1.5642,1.5737,1.5737,1.5737,1.6163,1.6494,1.6447,1.6683,1.6972,1.4736,1.5083,1.4838,1.479,0.0,1.4783,1.4544,1.4346,1.4742,1.4981,1.5083,1.5131,1.5267,1.5499,1.5499,1.5594,1.5825,1.5825,1.5825,1.5825,1.5825,1.5825,1.5825,1.5825,1.5825,1.5825,1.5825,1.5825,1.5825,1.5825,1.554,1.5064,1.5064,1.4771,1.4226,1.41,1.3654,1.2939,1.3344,1.3818,1.4302,1.3983,1.3511,1.3015,1.279,0.0,0.0,0.0,0.0,0.0,0.0,0.0,0.0,1.0979,0.0,1.1539,1.1028,1.0769,1.098,1.0975,1.1138,1.1556,1.1496,1.0997,1.0031,1.0328,1.072,1.1006,1.0967,1.1084,1.1435,1.1602,1.1688,1.1828,1.1957,1.1952,1.1866,1.1785,1.1656,1.1527,1.1397,1.1311,1.1311,1.1311,1.1311,1.1311,1.1311,1.1397,1.1656,1.1699,1.192,1.2706,1.3772,1.4586,1.4838,1.5124,1.5363,1.5547,1.5547,1.5506,1.5642,1.5547,1.5499,1.5635,1.5642,1.5689,1.5778,1.5825,1.5825,1.5825,1.6116,1.6447,1.6588,1.6871,1.72,1.4783,1.4987,1.479,1.4736,1.4742,1.4544,1.4442,1.4442,1.4892,0.0,0.0,1.5226,1.5315,1.554,1.554,1.5635,1.5825,1.5825,1.5825,1.5825,1.5825,1.5825,1.5825,1.5825,1.5825,1.5825,1.5825,1.5825,1.5825,1.5825,1.5825,1.5825,1.5825,1.5825,1.5812,1.5591,1.5015,1.4083,1.4019,1.4317,1.4888,1.4874,1.4436,1.3485,1.3428,1.282,1.1614,1.1461,1.1308,1.11,1.0947,1.107,1.1447,1.15,1.1632,1.194,1.1963,1.2176,1.2668,1.2668,1.2893,1.3434,1.3264,1.2662,1.1462,1.1811,1.208,1.208,1.2043,1.2,1.2,1.2043,1.208,1.208,1.208,1.1995,1.1871,1.1742,1.1613,1.144,1.1348,1.1311,1.1311,1.1311,1.1311,1.1311,1.1311,1.1467,1.176,1.1963,1.2374,1.3185,1.4108,1.4783,1.5029,1.5309,1.5547,1.5737,1.5778,1.5825,1.5825,1.5825,1.5825,1.5778,1.5825,1.5778,1.5825,1.5825,1.5825,1.5825,1.6028,1.6265,1.6494,1.6911,1.7246,1.4496,1.4742,1.4688,1.4831,1.5035,1.4987,1.4981,1.4987,1.5083,1.522,1.5452,1.5642,1.5737,1.5784,1.5737,1.5784,1.5825,1.5825,1.5825,1.5825,1.5825,1.5825,1.5825,1.5825,1.5825,1.5825,1.5825,1.5825,1.5825,1.5825,1.5825,1.5825,1.5825,1.5825,1.5825,1.5738,1.563,1.5308,1.4289,1.3907,1.4119,1.3319,1.2796,1.2499,1.2402,1.2005,1.1452,1.1455,1.1308,1.1106,1.1174,1.175,1.2904,1.2995,1.3448,1.4475,1.4566,1.4524,1.4342,1.4223,1.3971,1.3688,1.3476,1.3179,1.2839,1.254,1.2363,1.2326,1.216,1.2,1.2,1.2203,1.232,1.2326,1.2326,1.2326,1.2235,1.1909,1.1656,1.1618,1.1435,1.1311,1.1311,1.1311,1.1311,1.1311,1.1332,1.156,1.2164,1.2686,1.3195,1.3716,1.4294,1.4765,1.5029,1.5315,1.5547,1.5737,1.5784,1.5784,1.5825,1.5825,1.5825,1.5825,1.5825,1.5825,1.5825,1.5825,1.5825,1.5825,1.6028,1.617,1.6265,1.669,1.7113,1.4346,1.449,1.449,1.4544,1.464,1.4694,1.464,1.4688,1.4838,1.5029,1.5267,1.5369,1.5499,1.5635,1.5642,1.573,1.5825,1.5825,1.5825,1.5825,1.5825,1.5825,1.5825,1.5825,1.5825,1.5825,1.5825,1.5825,1.5825,1.5825,1.5825,1.5825,1.5825,1.5825,1.5825,1.5825,1.577,1.5582,1.5019,1.4754,1.4738,1.4332,1.4037,1.3999,1.3897,1.3772,1.3592,1.3585,1.355,1.3419,1.3487,1.3824,1.4391,1.4433,1.4692,1.5215,1.5257,1.5173,1.4915,1.4615,1.4279,1.3955,1.3701,1.3483,1.327,1.2966,1.2711,1.2577,1.2454,1.2375,1.2375,1.2369,1.24,1.24,1.2283,1.2118,1.2032,1.1866,1.1656,1.1483,1.1348,1.1311,1.1311,1.1311,1.1311,1.1316,1.1489,1.1927,1.2529,1.3054,1.3483,1.3853,1.4372,1.4669,1.4885,1.5124,1.5356,1.5594,1.5642,1.5689,1.5778,1.5825,1.5825,1.5825,1.5825,1.5825,1.5825,1.5825,1.5825,1.5825,1.5886,1.6028,1.617,1.6602,1.7019,1.4112,1.4106,1.4112,1.4106,1.4106,1.4112,1.4106,1.4154,1.44,1.4646,1.4844,1.4987,1.522,1.5404,1.5445,1.5588,1.573,1.5784,1.5825,1.5825,1.5825,1.5825,1.5825,1.5825,1.5825,1.5825,1.5825,1.5825,1.5825,1.5825,1.5825,1.5825,1.5825,1.5825,1.5825,1.5825,1.5751,1.5656,1.5596,1.5538,1.5418,1.5389,1.5396,1.5389,1.5389,1.5389,1.5389,1.5389,1.5389,1.5389,1.5389,1.5389,1.5431,1.5423,1.5465,1.5431,1.5465,1.534,1.5082,1.4699,1.4363,1.4166,1.3955,1.3695,1.344,1.3264,1.3009,1.2747,1.2662,1.2662,1.2662,1.2491,1.24,1.2406,1.2118,1.1871,1.1742,1.1661,1.1527,1.1311,1.1311,1.1311,1.1311,1.1311,1.1332,1.1456,1.1767,1.2199,1.2717,1.3182,1.3479,1.3832,1.4272,1.4627,1.4688,1.4885,1.5124,1.535,1.5404,1.5499,1.5635,1.5737,1.5784,1.5778,1.573,1.573,1.5737,1.5737,1.5737,1.573,1.5778,1.5879,1.617,1.6508,1.6878,1.3593,1.3588,1.3588,1.3582,1.3588,1.3588,1.3588,1.3636,1.3883,1.3985,1.4076,1.4742,1.5083,1.5178,1.5356,1.5493,1.554,1.573,1.5825,1.5825,1.5825,1.5825,1.5825,1.5825,1.5825,1.5825,1.5825,1.5825,1.5825,1.5825,1.5825,1.5825,1.5825,1.5825,1.5825,1.5825,1.5765,1.5679,1.5618,1.5538,1.5433,1.5389,1.5389,1.5389,1.5389,1.5389,1.5431,1.5389,1.5389,1.5389,1.5431,1.5431,1.5431,1.5582,1.5582,1.5423,1.5582,1.5492,1.5124,1.4824,1.4566,1.4398,1.4159,1.387,1.3476,1.3398,1.3179,1.2833,1.2699,1.2705,1.2705,1.2497,1.2363,1.232,1.1989,1.1742,1.1656,1.1478,1.1305,1.1311,1.1267,1.1267,1.1262,1.1283,1.1407,1.1612,1.1859,1.2225,1.2724,1.3005,1.3259,1.3569,1.3962,1.4394,1.4592,1.4694,1.4838,1.5077,1.5124,1.5267,1.5404,1.554,1.5588,1.5642,1.5642,1.5547,1.5547,1.5547,1.554,1.5588,1.5683,1.5879,1.6123,1.6272,1.6508,1.3636,1.3497,1.3497,1.3497,1.3497,1.3497,1.3497,1.3491,1.3593,1.3684,1.3738,1.4172,1.4556,1.4885,1.4975,1.5213,1.5493,1.5588,1.5689,1.5778,1.5825,1.5825,1.5825,1.5825,1.5825,1.5825,1.5825,1.5825,1.5825,1.5825,1.5825,1.5825,1.5825,1.5825,1.5825,1.5825,1.5732,1.5681,1.5639,1.5535,1.5483,1.5393,1.5389,1.5389,1.5389,1.5465,1.5582,1.5582,1.5631,1.5797,1.5797,1.5805,1.5805,1.5748,1.565,1.5582,1.5541,1.5423,1.5131,1.4866,1.4608,1.4398,1.4201,1.3955,1.361,1.3483,1.327,1.2966,1.279,1.2705,1.2662,1.2375,1.2166,1.2075,1.1736,1.1483,1.144,1.1267,1.1138,1.1132,1.0997,1.0954,1.0975,1.121,1.1458,1.1686,1.1999,1.239,1.2728,1.295,1.3222,1.3457,1.3732,1.3919,1.4166,1.44,1.4544,1.479,1.4838,1.4933,1.5172,1.5267,1.5315,1.541,1.5315,1.5261,1.5261,1.5267,1.5315,1.5452,1.5683,1.5832,1.5927,1.6076,1.6319,1.3588,1.34,1.3346,1.3292,1.3298,1.3298,1.3298,1.3346,1.3346,1.3389,1.3394,1.3684,1.4022,1.4352,1.4598,1.4927,1.5255,1.5452,1.5588,1.573,1.5778,1.5825,1.5825,1.5825,1.5825,1.5825,1.5825,1.5825,1.5825,1.5825,1.5825,1.5825,1.5825,1.5825,1.5825,1.5825,1.5779,1.5737,1.5597,1.5508,1.5525,1.5382,1.5347,1.5389,1.5389,1.5465,1.5616,1.5616,1.5741,1.5955,1.5963,1.5922,1.5997,1.5782,1.5692,1.5692,1.5499,1.5347,1.5173,1.4915,1.465,1.4475,1.4243,1.3997,1.3737,1.3519,1.3307,1.3094,1.2839,1.2705,1.2662,1.2289,1.2,1.1952,1.157,1.1311,1.1224,1.1094,1.1008,1.0916,1.0824,1.0715,1.0829,1.1149,1.1507,1.1794,1.2147,1.2505,1.2749,1.2945,1.3093,1.3298,1.3346,1.3491,1.3738,1.4022,1.4262,1.44,1.4496,1.4688,1.4933,1.4981,1.5083,1.5172,1.5035,1.4981,1.4975,1.5029,1.5124,1.5397,1.5635,1.573,1.5832,1.5981,1.6123,1.3104,1.3098,1.2905,1.2856,1.2861,1.2861,1.2861,1.291,1.305,1.3098,1.3147,1.3389,1.3545,1.363,1.431,1.4694,1.4777,1.5255,1.5445,1.5499,1.5689,1.5778,1.5825,1.5825,1.5825,1.5825,1.5825,1.5825,1.5825,1.5778,1.5825,1.5825,1.5825,1.5825,1.5825,1.5825,1.5818,1.5772,1.5472,1.539,1.5515,1.5262,1.5215,1.5389,1.5389,1.5423,1.5431,1.5431,1.5506,1.5692,1.5582,1.5548,1.5699,1.5733,1.5692,1.5692,1.5506,1.5389,1.5298,1.495,1.4699,1.4608,1.4328,1.3997,1.3737,1.3519,1.3307,1.3143,1.2881,1.2705,1.2619,1.2246,1.2,1.1952,1.1613,1.1267,1.1051,1.1008,1.0916,1.0738,1.0666,1.0747,1.0929,1.1248,1.1531,1.189,1.2204,1.2448,1.2667,1.2743,1.2807,1.2856,1.3001,1.3195,1.3443,1.3781,1.3931,1.4076,1.4304,1.44,1.4592,1.4736,1.4885,1.4933,1.479,1.4736,1.4736,1.4831,1.5022,1.5207,1.5445,1.5588,1.5689,1.5778,1.5927,1.3443,1.305,1.291,1.2807,1.2807,1.2807,1.2807,1.2813,1.2905,1.2905,1.2958,1.3152,1.3244,1.3249,1.3732,1.4112,1.449,1.4831,1.5077,1.5261,1.5499,1.5594,1.5635,1.5737,1.5825,1.5825,1.5825,1.5825,1.5784,1.5683,1.5683,1.5784,1.5825,1.5825,1.5825,1.5825,1.5825,1.5765,1.5492,1.5404,1.5557,1.5276,1.5215,1.5389,1.5389,1.5465,1.5575,1.5575,1.5707,1.5955,1.588,1.588,1.5914,1.5782,1.565,1.5541,1.5465,1.5347,1.5166,1.4866,1.465,1.4475,1.4243,1.4082,1.3913,1.3652,1.3355,1.3264,1.2918,1.2662,1.2491,1.2203,1.2,1.1957,1.157,1.123,1.1008,1.0873,1.0689,1.0492,1.0455,1.0504,1.0805,1.1095,1.1428,1.1721,1.196,1.2174,1.2285,1.2424,1.2565,1.257,1.2764,1.2953,1.3001,1.3539,1.3931,1.3973,1.4118,1.4256,1.4442,1.449,1.4592,1.4592,1.4544,1.4496,1.4496,1.464,1.4831,1.4927,1.5166,1.5397,1.5594,1.5683,1.5784,1.3394,1.3001,1.2856,1.2807,1.2807,1.2807,1.2807,1.2807,1.2807,1.2807,1.2813,1.2953,1.3007,1.305,1.3244,1.3534,1.3919,1.4352,1.4736,1.4981,1.5267,1.5404,1.5493,1.5642,1.5737,1.5784,1.5737,1.5683,1.5547,1.5452,1.5499,1.5683,1.5683,1.5737,1.5784,1.5825,1.5825,1.5732,1.5482,1.5379,1.5445,1.5218,1.5106,1.5278,1.5298,1.5382,1.5582,1.5624,1.5707,1.5914,1.5914,1.588,1.5839,1.5707,1.5541,1.5382,1.5347,1.5257,1.5082,1.479,1.4524,1.4391,1.4201,1.4088,1.4082,1.3652,1.344,1.3307,1.3003,1.2619,1.2429,1.2236,1.2086,1.1894,1.1478,1.1175,1.1014,1.0806,1.0622,1.0484,1.0421,1.0476,1.0663,1.1049,1.1367,1.1594,1.1798,1.1975,1.2029,1.2127,1.2322,1.2424,1.2565,1.271,1.2856,1.3298,1.3642,1.3732,1.3973,1.416,1.4298,1.4298,1.4298,1.4298,1.4298,1.4298,1.4352,1.4496,1.4592,1.4688,1.4879,1.5159,1.535,1.5588,1.5683,1.3001,1.2861,1.2807,1.2807,1.2807,1.2807,1.2807,1.2764,1.2759,1.2716,1.271,1.2764,1.2759,1.2813,1.3001,1.3098,1.334,1.3919,1.44,1.4694,1.4933,1.5213,1.5397,1.5452,1.5594,1.5737,1.5547,1.5356,1.5172,1.5124,1.522,1.5452,1.5493,1.5594,1.5778,1.5784,1.5825,1.5758,1.5558,1.5381,1.5284,1.5051,1.4956,1.5083,1.5131,1.5215,1.5382,1.5423,1.5506,1.5658,1.5541,1.5431,1.5472,1.5431,1.5389,1.5347,1.5215,1.5131,1.4999,1.4657,1.444,1.4363,1.4201,1.4088,1.4039,1.3701,1.3398,1.3355,1.2991,1.2649,1.2439,1.2403,1.2241,1.176,1.1375,1.1126,1.0984,1.0766,1.061,1.0577,1.0602,1.0711,1.0868,1.1101,1.138,1.1512,1.1717,1.1883,1.1883,1.1927,1.2127,1.2273,1.2419,1.2516,1.2764,1.2958,1.3201,1.3448,1.3786,1.4022,1.4256,1.4298,1.4298,1.4298,1.4298,1.4298,1.4298,1.44,1.4448,1.4592,1.4783,1.4921,1.5112,1.535,1.5588,1.305,1.3001,1.2861,1.2807,1.2807,1.2807,1.2716,1.2516,1.2521,1.2419,1.2273,1.2273,1.237,1.2516,1.2613,1.2807,1.3098,1.3389,1.3732,1.4124,1.44,1.4688,1.4927,1.5166,1.5267,1.5267,1.5077,1.5029,1.5035,1.4885,1.4933,1.522,1.5404,1.5493,1.5588,1.5737,1.5825,1.5798,1.5545,1.5394,1.529,1.5041,1.4905,1.4825,1.5006,1.5131,1.5173,1.534,1.5431,1.5506,1.5431,1.5389,1.5389,1.5389,1.534,1.5215,1.5131,1.4915,1.4657,1.4482,1.4321,1.4201,1.413,1.4088,1.4046,1.3665,1.3411,1.3387,1.3133,1.282,1.251,1.2562,1.2417,1.1976,1.1641,1.1377,1.1141,1.0851,1.0642,1.0616,1.0702,1.082,1.0905,1.1135,1.1254,1.1317,1.1438,1.1487,1.1487,1.1634,1.1736,1.1834,1.2078,1.237,1.2565,1.2764,1.3007,1.3298,1.3588,1.3835,1.4064,1.4256,1.4256,1.4208,1.4256,1.425,1.425,1.4304,1.4352,1.4448,1.4592,1.4736,1.4927,1.5118,1.535,1.3001,1.2953,1.2861,1.2807,1.2807,1.2807,1.2662,1.2414,1.2365,1.2224,1.2029,1.198,1.2078,1.2224,1.2273,1.2467,1.2807,1.2861,1.3104,1.3593,1.3973,1.4304,1.4592,1.4939,1.5035,1.4933,1.4783,1.4742,1.479,1.464,1.4688,1.4933,1.5118,1.5261,1.5356,1.5588,1.5689,1.5656,1.5598,1.5464,1.5312,1.5065,1.4891,1.4787,1.4811,1.488,1.4957,1.5082,1.5215,1.5347,1.5389,1.5389,1.5298,1.5257,1.5173,1.4999,1.4873,1.4699,1.444,1.4356,1.4243,1.4124,1.4088,1.4039,1.3932,1.3632,1.355,1.3416,1.3235,1.2954,1.2675,1.2689,1.2602,1.2171,1.1761,1.1441,1.1182,1.0999,1.0853,1.0853,1.0934,1.0995,1.1047,1.1094,1.1194,1.1194,1.1194,1.1194,1.1243,1.134,1.1438,1.1585,1.1834,1.2127,1.237,1.2565,1.2759,1.3104,1.3443,1.3636,1.3871,1.4022,1.407,1.3919,1.3871,1.3871,1.3871,1.4064,1.4166,1.4262,1.44,1.4592,1.4736,1.4927,1.5118,1.2813,1.2807,1.2807,1.2807,1.2807,1.2807,1.2619,1.237,1.2365,1.2175,1.198,1.1878,1.1932,1.198,1.198,1.2127,1.2322,1.2419,1.2662,1.3098,1.3539,1.3925,1.4304,1.4742,1.4838,1.4694,1.4688,1.4544,1.44,1.4346,1.4394,1.4688,1.4736,1.4838,1.5083,1.5356,1.5493,1.554,1.5669,1.5604,1.5371,1.5142,1.4936,1.4856,1.4598,1.4517,1.4692,1.4741,1.4957,1.5305,1.5298,1.5215,1.5124,1.509,1.4957,1.4692,1.4482,1.444,1.4356,1.4201,1.4124,1.4088,1.4128,1.4024,1.3828,1.3814,1.3743,1.3586,1.333,1.3076,1.2888,1.2851,1.2686,1.2356,1.1802,1.137,1.0991,1.1066,1.1109,1.1093,1.114,1.1189,1.1116,1.1135,1.1145,1.1194,1.1194,1.1194,1.1194,1.1292,1.134,1.1487,1.1639,1.1883,1.2224,1.2419,1.2619,1.2953,1.3298,1.3443,1.363,1.3781,1.3883,1.3684,1.3588,1.3539,1.3588,1.3781,1.3925,1.4022,1.4214,1.44,1.4592,1.4736,1.4981,1.2807,1.2807,1.2807,1.2807,1.2807,1.2807,1.2516,1.2127,1.2127,1.1834,1.1487,1.1438,1.1536,1.1683,1.1731,1.1834,1.2029,1.2078,1.2273,1.257,1.291,1.3443,1.3968,1.4352,1.449,1.4394,1.4442,1.4394,1.4298,1.4298,1.434,1.4442,1.4592,1.4736,1.4831,1.5077,1.5309,1.5499,1.5547,1.555,1.5365,1.5124,1.4867,1.4616,1.4491,1.4412,1.4482,1.4608,1.4741,1.4866,1.4859,1.4866,1.4824,1.4824,1.4699,1.4524,1.4433,1.4314,1.4201,1.4137,1.4095,1.4115,1.4302,1.4273,1.4013,1.4039,1.4008,1.3814,1.3549,1.3287,1.3088,1.2992,1.2742,1.218,1.1895,1.1601,1.1235,1.1156,1.1145,1.0949,1.09,1.09,1.09,1.09,1.0953,1.1096,1.1145,1.1194,1.1145,1.1194,1.1292,1.134,1.1487,1.178,1.2029,1.2273,1.2521,1.2807,1.305,1.3298,1.3389,1.3539,1.3588,1.3545,1.3443,1.3394,1.3443,1.3588,1.369,1.3781,1.3973,1.416,1.44,1.4544,1.4838,1.2807,1.2807,1.2807,1.2807,1.2759,1.2667,1.237,1.2029,1.1878,1.159,1.1243,1.1194,1.1292,1.1443,1.1438,1.1585,1.1834,1.1829,1.1975,1.2268,1.2662,1.3147,1.3684,1.4016,1.416,1.416,1.425,1.4298,1.4298,1.4298,1.4298,1.4352,1.4448,1.4544,1.4538,1.4783,1.4981,1.5166,1.5261,1.536,1.5425,1.5153,1.5,1.4823,1.4626,1.4385,1.4313,1.4405,1.4531,1.465,1.4692,1.465,1.4566,1.4566,1.4482,1.4279,1.4279,1.4208,1.4151,1.4188,1.4269,1.4279,1.4449,1.4399,1.4205,1.4186,1.4135,1.3747,1.3596,1.3383,1.3143,1.3021,1.2646,1.216,1.198,1.1785,1.1243,1.1189,1.1047,1.0904,1.0806,1.0757,1.0654,1.0659,1.0708,1.0855,1.0953,1.0998,1.0998,1.1096,1.1194,1.1292,1.134,1.1536,1.1731,1.198,1.2278,1.2565,1.2759,1.3001,1.3152,1.3298,1.3249,1.3249,1.3201,1.3201,1.3249,1.3346,1.3443,1.3588,1.3732,1.3973,1.4208,1.44,1.4694,1.2807,1.2807,1.2807,1.2807,1.2759,1.2516,1.2273,1.198,1.1731,1.1492,1.1247,1.1194,1.1194,1.1194,1.1243,1.134,1.159,1.1536,1.1731,1.2029,1.2419,1.2905,1.3292,1.3684,1.3829,1.3883,1.4112,1.4202,1.425,1.4256,1.4298,1.4304,1.4298,1.4298,1.4394,1.4544,1.4646,1.4783,1.4981,1.5207,1.5306,1.5079,1.4996,1.5133,1.4823,1.4526,1.4352,1.4314,1.4392,1.4726,1.4699,1.4531,1.4356,1.4363,1.434,1.4267,1.4271,1.4298,1.4235,1.4462,1.4519,1.4522,1.4563,1.4488,1.4275,1.4247,1.4135,1.3661,1.3551,1.3338,1.3065,1.2905,1.2565,1.2127,1.198,1.1736,1.134,1.1194,1.1096,1.0801,1.0757,1.0605,1.0462,1.0364,1.0359,1.0609,1.0708,1.0806,1.0855,1.1002,1.1096,1.1194,1.1292,1.134,1.1487,1.1634,1.1932,1.2273,1.2467,1.2662,1.2856,1.2953,1.2856,1.2856,1.2953,1.3007,1.2958,1.3055,1.3201,1.3394,1.3588,1.3871,1.4154,1.4304,1.4496,1.2807,1.2807,1.2807,1.2807,1.2764,1.2516,1.2224,1.198,1.1688,1.1438,1.1247,1.1194,1.1194,1.1194,1.1194,1.1243,1.1292,1.134,1.1438,1.1683,1.198,1.2322,1.2759,1.3249,1.3539,1.3636,1.3877,1.3973,1.4022,1.416,1.4298,1.4298,1.425,1.4298,1.4298,1.4346,1.4496,1.4688,1.4742,1.4933,1.5086,1.4876,1.4815,1.5041,1.4953,1.4863,1.4841,1.4821,1.4865,1.4801,1.4541,1.4325,1.4302,1.4408,1.4452,1.4512,1.468,1.4794,1.4821,1.4803,1.4774,1.4622,1.4747,1.4693,1.4257,1.4427,1.4291,1.3891,1.3607,1.3298,1.2953,1.2861,1.2516,1.2127,1.198,1.1785,1.1345,1.1194,1.1002,1.0659,1.0511,1.0359,1.0117,1.0068,1.0167,1.0314,1.0462,1.0609,1.0708,1.0806,1.0949,1.1047,1.1145,1.1194,1.1394,1.1541,1.1736,1.198,1.2175,1.2273,1.2467,1.2662,1.2613,1.271,1.2807,1.2764,1.2667,1.2813,1.2958,1.3152,1.3389,1.3678,1.3919,1.4112,1.4346,1.2807,1.2807,1.2807,1.2807,1.271,1.2419,1.2122,1.1932,1.1585,1.134,1.1194,1.1194,1.1194,1.1194,1.1194,1.1194,1.1194,1.1194,1.134,1.1585,1.178,1.198,1.2219,1.2613,1.2905,1.3244,1.3588,1.3684,1.3732,1.3829,1.3871,1.3919,1.3962,1.3919,1.3962,1.4064,1.4166,1.431,1.4448,1.464,1.4848,1.4754,1.4671,1.4809,1.4911,1.4936,1.4777,1.4905,1.5001,1.4928,1.4713,1.4546,1.4516,1.4636,1.4716,1.4763,1.4894,1.5008,1.5015,1.4993,1.493,1.48,1.4822,1.4703,1.4436,1.4435,1.4154,1.3781,1.3443,1.3152,1.2856,1.2662,1.2419,1.2127,1.1878,1.1639,1.1292,1.1194,1.0998,1.056,1.0413,1.0167,1.0019,0.9871,0.9871,0.9969,1.0167,1.0265,1.0364,1.0462,1.0708,1.085,1.0949,1.1096,1.1345,1.1443,1.1541,1.1736,1.1883,1.1932,1.2029,1.2224,1.2414,1.2516,1.2565,1.2467,1.2419,1.2521,1.2716,1.291,1.3152,1.3394,1.3636,1.3877,1.4112,1.2759,1.2807,1.2807,1.2807,1.2662,1.2219,1.1975,1.1829,1.1438,1.1243,1.1194,1.1194,1.1194,1.1194,1.1194,1.1194,1.1194,1.1194,1.1345,1.1487,1.1536,1.1683,1.1927,1.2073,1.2322,1.2905,1.3249,1.3346,1.3443,1.3497,1.3588,1.3539,1.3491,1.3588,1.3588,1.3684,1.3835,1.3931,1.4064,1.4208,1.4448,1.4472,1.4551,1.4703,1.4867,1.4955,1.4852,1.4988,1.5092,1.509,1.509,1.5097,1.509,1.5089,1.5075,1.5075,1.5117,1.519,1.5146,1.5107,1.508,1.5,1.4817,1.4663,1.449,1.4148,1.3823,1.3491,1.3201,1.2958,1.2759,1.2565,1.2273,1.198,1.1736,1.1492,1.1243,1.1194,1.0855,1.0511,1.0314,1.0068,0.9821,0.9673,0.9624,0.9624,0.9821,0.9969,1.0068,1.0167,1.0413,1.0708,1.0801,1.0998,1.1247,1.1345,1.1443,1.1492,1.1639,1.1688,1.1688,1.1883,1.2078,1.2273,1.2273,1.2175,1.2175,1.2273,1.2473,1.2667,1.291,1.3152,1.3394,1.3642,1.3925,1.2619,1.2807,1.2807,1.2667,1.2419,1.2127,1.1878,1.1634,1.134,1.1194,1.1194,1.1194,1.1194,1.1194,1.1194,1.1194,1.1145,1.1096,1.1145,1.1243,1.1243,1.1389,1.1585,1.1683,1.1883,1.2224,1.2613,1.2953,1.3195,1.3346,1.3394,1.3448,1.3443,1.3443,1.3443,1.3539,1.3539,1.3588,1.3678,1.3781,1.3829,1.3968,1.4292,1.4582,1.4855,1.4924,1.5066,1.5241,1.5402,1.545,1.5591,1.5618,1.5545,1.5385,1.5298,1.5364,1.5451,1.5485,1.5324,1.5342,1.513,1.4864,1.4704,1.4448,1.4172,1.3925,1.3636,1.3201,1.2958,1.2716,1.2467,1.237,1.2127,1.1829,1.1585,1.1443,1.1198,1.1002,1.0757,1.0413,1.0167,0.9974,0.9772,0.9624,0.9624,0.9624,0.9723,0.9871,0.992,1.0019,1.0171,1.0413,1.0659,1.0904,1.1149,1.1194,1.1292,1.1292,1.1389,1.1487,1.1492,1.159,1.1785,1.1883,1.198,1.198,1.2029,1.2029,1.2127,1.2322,1.2619,1.291,1.3104,1.3298,1.3588,1.2268,1.237,1.237,1.2322,1.2175,1.1932,1.1731,1.1585,1.134,1.1194,1.1194,1.1194,1.1096,1.1051,1.0998,1.0949,1.0806,1.0801,1.0801,1.0801,1.0949,1.1047,1.1198,1.1292,1.1536,1.1785,1.2078,1.237,1.2705,1.2856,1.3007,1.3104,1.3152,1.3152,1.3152,1.3249,1.3298,1.3292,1.3394,1.3497,1.3497,1.3642,1.3925,1.4268,1.4544,1.4736,1.4933,1.5172,1.5261,1.5302,1.535,1.5404,1.5412,1.5347,1.529,1.5403,1.5563,1.5547,1.5315,1.5166,1.4921,1.4736,1.4592,1.431,1.3979,1.3738,1.3394,1.2856,1.2516,1.2322,1.2229,1.2078,1.1834,1.1683,1.1487,1.1243,1.0998,1.0752,1.0511,1.0265,1.0117,0.992,0.9723,0.9624,0.9624,0.9624,0.9624,0.9723,0.9821,0.9871,0.9974,1.0265,1.056,1.0855,1.1114,1.1236,1.1246,1.1241,1.1269,1.1368,1.1398,1.1525,1.1482,1.1487,1.159,1.1776,1.1688,1.1639,1.1834,1.198,1.2224,1.2473,1.271,1.2953,1.3201,1.1927,1.198,1.198,1.198,1.1878,1.1688,1.1585,1.1487,1.1296,1.1194,1.1194,1.1194,1.1047,1.085,1.0703,1.0609,1.0413,1.0408,1.0462,1.0511,1.0609,1.0703,1.0801,1.0949,1.1145,1.134,1.1438,1.1731,1.2224,1.237,1.2467,1.2662,1.271,1.2759,1.2856,1.3001,1.305,1.3098,1.3244,1.3346,1.3394,1.3443,1.3539,1.3835,1.407,1.4304,1.4502,1.4831,1.4981,1.5035,1.5083,1.5131,1.5131,1.5131,1.5172,1.5302,1.5356,1.5267,1.5029,1.4885,1.4742,1.4592,1.4352,1.4118,1.3781,1.3394,1.3001,1.2419,1.2175,1.198,1.1932,1.1736,1.159,1.1438,1.1243,1.1047,1.0806,1.056,1.0265,1.0117,0.9969,0.9821,0.9673,0.9624,0.9624,0.9624,0.9624,0.9624,0.9723,0.9673,0.9826,1.0117,1.0462,1.0801,1.1079,1.1293,1.1316,1.1345,1.1416,1.1523,1.1475,1.1442,1.1413,1.1468,1.1451,1.1628,1.1461,1.1345,1.1536,1.1731,1.1834,1.2029,1.2322,1.2565,1.2861,1.1785,1.198,1.198,1.1878,1.1639,1.1585,1.1443,1.1243,1.1243,1.1194,1.1194,1.1194,1.1047,1.0757,1.0507,1.0413,1.0364,1.0314,1.0314,1.0314,1.0413,1.0462,1.0458,1.0462,1.0703,1.09,1.0949,1.134,1.1785,1.198,1.2175,1.2375,1.2467,1.2521,1.2716,1.2759,1.2813,1.2813,1.2861,1.2958,1.3104,1.3147,1.3292,1.3539,1.3786,1.3979,1.4124,1.4454,1.4694,1.479,1.4987,1.5083,1.5131,1.5131,1.4933,1.4933,1.4981,1.5029,1.479,1.4694,1.455,1.4352,1.4118,1.3829,1.3443,1.2953,1.2467,1.2127,1.198,1.1834,1.1688,1.1634,1.1487,1.1292,1.1051,1.09,1.0708,1.0413,1.0117,0.992,0.9826,0.9723,0.9624,0.9624,0.9624,0.9624,0.9628,0.9632,0.9673,0.9709,0.9933,1.0312,1.0575,1.087,1.1238,1.1385,1.1453,1.1477,1.1553,1.1647,1.1609,1.1586,1.1666,1.1703,1.1659,1.1539,1.1428,1.1411,1.1428,1.1487,1.159,1.1785,1.198,1.2273,1.2473,1.1438,1.1541,1.1536,1.1487,1.1394,1.1389,1.1345,1.1243,1.1194,1.1194,1.1145,1.1047,1.0752,1.0364,1.0068,0.9969,0.9969,0.9969,0.9969,1.0019,1.0117,1.0162,1.0216,1.0314,1.0511,1.0507,1.0605,1.0703,1.1145,1.1585,1.1927,1.2127,1.2175,1.2224,1.2419,1.2516,1.2565,1.2613,1.271,1.2861,1.291,1.2958,1.305,1.3244,1.3394,1.3588,1.3883,1.4076,1.4358,1.4448,1.4592,1.464,1.464,1.464,1.4586,1.4496,1.4592,1.4592,1.449,1.449,1.4304,1.4118,1.3925,1.369,1.3147,1.2565,1.2073,1.178,1.1634,1.1487,1.1394,1.1389,1.1194,1.0998,1.0806,1.0609,1.0462,1.0216,0.9969,0.9826,0.9686,0.9702,0.9673,0.9693,0.9689,0.9665,0.9681,0.9705,0.9803,0.9925,1.0255,1.0684,1.0842,1.099,1.1374,1.1661,1.1671,1.169,1.1699,1.177,1.1779,1.1794,1.1827,1.1803,1.1737,1.1624,1.152,1.1373,1.1349,1.136,1.134,1.1536,1.1736,1.1834,1.2127,1.1194,1.1194,1.1194,1.1194,1.1194,1.1194,1.1194,1.1194,1.1194,1.1149,1.1002,1.0752,1.0359,1.0019,0.9776,0.9673,0.9624,0.9624,0.9624,0.9677,0.9776,0.9871,0.992,1.0117,1.0216,1.031,1.031,1.0408,1.0605,1.0949,1.1389,1.178,1.1883,1.1932,1.2078,1.2175,1.2322,1.2322,1.2521,1.2619,1.2613,1.2667,1.2764,1.2905,1.305,1.3201,1.3642,1.3786,1.3925,1.4166,1.4208,1.4256,1.4346,1.4394,1.4394,1.4298,1.4298,1.4208,1.4208,1.4214,1.4064,1.3925,1.3588,1.3249,1.2662,1.217,1.178,1.1536,1.1389,1.1243,1.1149,1.1096,1.0949,1.0752,1.0605,1.0314,1.0126,1.0007,0.9859,0.9747,0.9673,0.9726,0.9746,0.9774,0.9762,0.9713,0.973,0.9782,0.992,1.0091,1.0362,1.0729,1.0927,1.1077,1.1414,1.1709,1.1742,1.1855,1.1864,1.1911,1.1958,1.1929,1.187,1.1858,1.1822,1.1723,1.161,1.1433,1.1274,1.1342,1.1396,1.1364,1.1438,1.1541,1.1834,1.1194,1.1194,1.1194,1.1194,1.1194,1.1194,1.1194,1.1194,1.1194,1.0998,1.0752,1.0314,1.0068,0.992,0.9727,0.9624,0.9624,0.9624,0.9624,0.9624,0.9624,0.9673,0.9723,0.9772,0.9821,0.9965,1.0019,1.0167,1.0359,1.0413,1.0855,1.1198,1.1345,1.1688,1.1883,1.1927,1.2078,1.2127,1.2322,1.2322,1.2273,1.2327,1.2473,1.2516,1.271,1.291,1.3147,1.3394,1.3642,1.3883,1.3925,1.4016,1.4106,1.4154,1.4154,1.416,1.4016,1.3925,1.3925,1.3925,1.3883,1.369,1.3298,1.2716,1.2127,1.1834,1.1541,1.1243,1.1096,1.1021,1.0918,1.0811,1.0757,1.0626,1.0462,1.0308,1.0108,0.9883,0.9775,0.9685,0.9734,0.9839,0.9888,0.9929,0.9929,0.9888,0.9957,1.0014,1.0091,1.0277,1.0427,1.0684,1.088,1.1136,1.1401,1.1622,1.1804,1.1979,1.2007,1.214,1.222,1.217,1.193,1.1818,1.175,1.1722,1.1707,1.1545,1.1434,1.1427,1.1397,1.1352,1.1418,1.1536,1.1829,1.1194,1.1194,1.1194,1.1194,1.1194,1.1194,1.1194,1.1145,1.0998,1.0708,1.0314,1.0068,0.992,0.9776,0.9673,0.9624,0.9624,0.9624,0.9624,0.9624,0.9624,0.9624,0.9624,0.9628,0.9677,0.9772,0.9776,0.9776,0.9875,1.0068,1.0212,1.0507,1.0757,1.1002,1.1243,1.1585,1.178,1.198,1.2078,1.2078,1.2078,1.2078,1.2175,1.217,1.2419,1.2662,1.291,1.3147,1.3389,1.3539,1.3636,1.3732,1.3823,1.3871,1.3871,1.3871,1.3732,1.3684,1.3642,1.3588,1.3539,1.3152,1.2764,1.2273,1.1639,1.1389,1.11,1.09,1.0766,1.0762,1.0789,1.0756,1.0691,1.0522,1.0395,1.0272,1.0107,0.9931,0.9833,0.9782,0.9902,1.0098,1.0131,1.0151,1.0139,1.0131,1.0164,1.0241,1.0314,1.0379,1.0547,1.0715,1.092,1.1154,1.138,1.1626,1.1828,1.1963,1.2109,1.2136,1.2169,1.2159,1.1941,1.1851,1.1738,1.167,1.1675,1.1679,1.1628,1.163,1.1497,1.1373,1.1441,1.159,1.1884,1.1194,1.1194,1.1194,1.1194,1.1194,1.1194,1.1149,1.1051,1.09,1.0511,1.0019,0.992,0.9776,0.9628,0.9624,0.9624,0.9624,0.9624,0.9624,0.9624,0.9624,0.9624,0.9624,0.9624,0.9628,0.9624,0.9624,0.9628,0.9677,0.9772,0.9871,0.9969,1.0072,1.0364,1.0757,1.1047,1.134,1.1492,1.1736,1.1688,1.1639,1.1785,1.1878,1.1878,1.2073,1.2273,1.2516,1.271,1.3007,1.3201,1.3346,1.3443,1.3491,1.3497,1.3497,1.3443,1.3394,1.334,1.3303,1.3249,1.3104,1.2759,1.2224,1.178,1.134,1.1051,1.077,1.0667,1.0572,1.0534,1.0662,1.0646,1.0557,1.042,1.0385,1.0269,1.0226,1.0063,0.9979,0.9948,1.0076,1.0084,0.9969,0.9989,1.0139,1.02,1.0387,1.0448,1.0493,1.0608,1.0653,1.0824,1.0992,1.1189,1.1391,1.1529,1.1665,1.1733,1.1869,1.1878,1.1896,1.1891,1.1782,1.1496,1.1437,1.1559,1.1598,1.1635,1.1721,1.185,1.1704,1.1557,1.1644,1.1752,1.1905,1.1194,1.1194,1.1194,1.1194,1.1145,1.1194,1.1047,1.0855,1.0752,1.0413,0.9974,0.9727,0.9628,0.9624,0.9624,0.9624,0.9624,0.9624,0.9624,0.9624,0.9624,0.9624,0.9624,0.9624,0.9624,0.9624,0.9624,0.9624,0.9624,0.9673,0.9677,0.9644,0.9801,0.9995,1.0372,1.0413,1.0462,1.0556,1.1051,1.1051,1.1096,1.1394,1.1487,1.1634,1.1731,1.1932,1.2073,1.237,1.257,1.2764,1.291,1.3055,1.3201,1.3249,1.3298,1.3298,1.3152,1.2958,1.2824,1.2824,1.2591,1.2278,1.1731,1.1311,1.1114,1.0789,1.0527,1.0466,1.0555,1.0591,1.06,1.0577,1.0437,1.0439,1.0411,1.0314,1.0278,1.0233,1.0103,0.9959,0.9945,0.9888,0.9781,0.9761,1.0027,1.0217,1.056,1.0651,1.0651,1.0664,1.0743,1.0802,1.0911,1.1021,1.1185,1.1404,1.1505,1.1568,1.1618,1.1564,1.1564,1.1455,1.1345,1.1181,1.1181,1.1236,1.14,1.1596,1.1792,1.2028,1.1902,1.1798,1.1841,1.1886,1.202,1.1194,1.1194,1.0998,1.0949,1.0953,1.0953,1.0855,1.0752,1.0462,1.0068,0.9772,0.9628,0.9624,0.9624,0.9624,0.9624,0.9624,0.9624,0.9624,0.9624,0.9624,0.9624,0.9624,0.9624,0.9624,0.9624,0.9624,0.9624,0.9624,0.9624,0.9624,0.964,0.9726,0.9925,1.0151,1.0265,1.0413,1.0462,1.0609,1.0708,1.0806,1.0998,1.1198,1.1345,1.1492,1.1634,1.1736,1.1986,1.2206,1.2309,1.2461,1.2569,1.2661,1.2661,1.2597,1.2586,1.2386,1.2307,1.2152,1.2054,1.1831,1.1565,1.1384,1.0956,1.068,1.0456,1.0365,1.0382,1.0432,1.0429,1.0452,1.0494,1.0433,1.0563,1.055,1.0438,1.0387,1.0279,1.0182,0.9973,0.9836,0.9825,0.9687,0.9574,0.9734,0.996,1.0171,1.0507,1.0621,1.0676,1.0747,1.0747,1.0802,1.0798,1.0907,1.1131,1.124,1.1295,1.1291,1.1291,1.1181,1.1126,1.1076,1.0966,1.0911,1.0911,1.1181,1.1505,1.1928,1.2142,1.2023,1.1926,1.1912,1.1954,1.2023,1.1194,1.1194,1.09,1.0806,1.0806,1.0708,1.0605,1.0462,1.0068,0.9772,0.9628,0.9624,0.9624,0.9624,0.9624,0.9624,0.9624,0.9624,0.9624,0.9624,0.9624,0.9624,0.9624,0.9624,0.9624,0.9624,0.9624,0.9624,0.9624,0.9624,0.9669,0.9746,0.9831,0.9961,1.0125,1.0243,1.0297,1.0275,1.0337,1.0442,1.0542,1.0703,1.0904,1.11,1.1292,1.1487,1.156,1.1747,1.1949,1.2008,1.2103,1.2193,1.2198,1.2203,1.2208,1.2208,1.2024,1.1898,1.1687,1.1466,1.1199,1.0865,1.0911,1.0773,1.0476,1.0344,1.0302,1.0297,1.0245,1.0355,1.0469,1.0505,1.0558,1.0684,1.0629,1.0562,1.0343,1.0276,1.0057,0.986,0.9647,0.9596,0.9544,0.9482,0.9467,0.964,0.9816,1.015,1.0535,1.0582,1.0692,1.0692,1.0696,1.0751,1.0751,1.0802,1.0911,1.0962,1.0987,1.1071,1.0966,1.0911,1.0802,1.0751,1.0806,1.0857,1.1131,1.145,1.1823,1.2073,1.2215,1.2128,1.1996,1.2054,1.2126,1.1194,1.1145,1.09,1.0757,1.0708,1.0462,1.0216,0.9969,0.9723,0.9624,0.9624,0.9624,0.9624,0.9624,0.9624,0.9624,0.9624,0.9624,0.9624,0.9624,0.9624,0.9624,0.9624,0.9624,0.9624,0.9624,0.9624,0.9624,0.9628,0.9677,0.9754,0.9851,0.9949,1.0026,1.0151,1.0248,1.0213,1.0161,1.0201,1.0297,1.0384,1.0559,1.083,1.1033,1.1177,1.1321,1.1458,1.1685,1.1802,1.1976,1.2181,1.2367,1.2468,1.2535,1.254,1.237,1.1924,1.1569,1.1248,1.0997,1.0667,1.0373,1.0437,1.0498,1.0425,1.0228,1.027,1.0318,1.0391,1.0542,1.0631,1.0643,1.066,1.0692,1.0692,1.0523,1.0308,1.0139,0.9868,0.9655,0.9434,0.9323,0.9158,0.9103,0.9286,0.9341,0.9573,0.9946,1.0267,1.0535,1.059,1.0692,1.0696,1.0708,1.0716,1.0761,1.0882,1.1034,1.0945,1.0954,1.0828,1.0816,1.0857,1.0865,1.0729,1.0861,1.1076,1.135,1.1618,1.1869,1.2118,1.2257,1.2175,1.2276,1.2364,1.1096,1.09,1.0609,1.0413,1.0216,0.9974,0.9776,0.9727,0.9628,0.9624,0.9624,0.9624,0.9624,0.9624,0.9624,0.9624,0.9624,0.9624,0.9624,0.9624,0.9624,0.9624,0.9624,0.9624,0.9624,0.9624,0.9624,0.9636,0.9673,0.973,0.9819,0.9888,1.0067,1.0156,1.0203,1.0361,1.0253,1.022,1.0211,1.0287,1.0348,1.0565,1.0828,1.1074,1.1221,1.1374,1.1568,1.1722,1.1779,1.1662,1.1686,1.1719,1.1399,1.1399,1.1399,1.1394,1.1196,1.1032,1.0742,1.0563,1.0334,0.9992,1.0023,0.9912,0.9915,0.9994,1.0111,1.0305,1.047,1.0534,1.0668,1.0684,1.0692,1.0692,1.0692,1.0472,1.0253,0.9981,0.971,0.9379,0.9158,0.9127,0.8957,0.8967,0.9147,0.9144,0.9339,0.9731,1.0085,1.0373,1.0627,1.0734,1.0789,1.0826,1.0867,1.0911,1.0988,1.1041,1.1005,1.094,1.0964,1.0952,1.0988,1.0923,1.083,1.0914,1.1072,1.1291,1.1459,1.1782,1.2041,1.2214,1.2332,1.2382,1.2599,1.0949,1.0752,1.0413,1.0068,0.9826,0.9677,0.9624,0.9624,0.9624,0.9624,0.9624,0.9624,0.9624,0.9624,0.9624,0.9624,0.9624,0.9624,0.9624,0.9624,0.9624,0.9624,0.9624,0.9624,0.9624,0.9628,0.964,0.9669,0.975,0.9904,1.001,0.9976,1.0207,1.0069,1.0047,1.0105,1.0291,1.0259,1.0261,1.0346,1.0462,1.0537,1.0837,1.1062,1.127,1.1525,1.1643,1.1675,1.1626,1.1501,1.1515,1.1429,1.1221,1.1226,1.1013,1.1026,1.0875,1.0605,1.0305,1.0159,0.9949,0.9728,0.9651,0.9486,0.9548,0.9675,0.9996,1.0268,1.0394,1.0523,1.0633,1.0692,1.0692,1.0692,1.0582,1.0417,1.0143,0.9871,0.9485,0.9047,0.8954,0.8981,0.8998,0.9011,0.9062,0.9257,0.9532,0.9845,1.0144,1.0455,1.0718,1.094,1.0984,1.0984,1.1029,1.1074,1.1131,1.1171,1.1147,1.1098,1.1109,1.1089,1.1069,1.1033,1.0928,1.1026,1.1074,1.1097,1.1295,1.1618,1.1946,1.2169,1.2278,1.2382,1.2659,1.0757,1.0659,1.0162,0.9826,0.9624,0.9624,0.9624,0.9624,0.9624,0.9624,0.9624,0.9624,0.9624,0.9624,0.9624,0.9624,0.9624,0.9624,0.9624,0.9624,0.9624,0.9624,0.9624,0.9624,0.9624,0.9628,0.9681,0.977,0.9925,1.0027,1.0039,0.9988,0.9969,0.9931,0.9826,0.9849,0.9991,1.0062,1.0228,1.0354,1.04,1.0487,1.0619,1.0749,1.1072,1.139,1.1474,1.156,1.1683,1.1635,1.159,1.152,1.1352,1.1293,1.1025,1.0752,1.0552,1.0237,0.9928,0.983,0.9625,0.9427,0.932,0.9199,0.9285,0.949,0.9849,1.0131,1.0253,1.0421,1.0568,1.0599,1.059,1.0542,1.0451,1.0182,0.9803,0.9559,0.9214,0.8917,0.8944,0.8991,0.9154,0.9174,0.9188,0.9364,0.9671,0.9972,1.033,1.0605,1.0854,1.113,1.1073,1.1126,1.1216,1.1256,1.1277,1.1289,1.1301,1.1159,1.1122,1.1121,1.1191,1.1065,1.0996,1.1005,1.104,1.1061,1.119,1.1509,1.1837,1.2055,1.2219,1.2327,1.2713,1.0364,1.0162,0.9821,0.9677,0.9624,0.9624,0.9624,0.9624,0.9624,0.9624,0.9624,0.9624,0.9624,0.9624,0.9624,0.9624,0.9624,0.9624,0.9624,0.9624,0.9624,0.9624,0.9624,0.9624,0.9632,0.9677,0.9758,0.9933,1.0095,1.0104,1.0056,1.0007,0.9923,0.972,0.9537,0.9599,0.9706,0.9757,1.0042,1.0311,1.0471,1.06,1.0725,1.0924,1.1186,1.1326,1.1406,1.1549,1.1439,1.1306,1.126,1.1013,1.0633,1.0641,1.0421,1.0091,1.0033,0.9812,0.9651,0.9489,0.9323,0.9158,0.9047,0.8992,0.9047,0.9323,0.9596,0.9871,1.0112,1.0268,1.043,1.0451,1.0461,1.0383,1.0322,0.9898,0.9538,0.9233,0.8963,0.8951,0.8937,0.9083,0.9259,0.9334,0.9347,0.9531,0.9863,1.0152,1.0539,1.0831,1.1036,1.1292,1.1187,1.1252,1.1366,1.1439,1.1459,1.1529,1.1569,1.1415,1.1185,1.0984,1.0954,1.1082,1.1073,1.1003,1.0997,1.1012,1.1201,1.1461,1.1678,1.1896,1.2219,1.2382,1.2767,1.0117,0.9969,0.9727,0.9624,0.9624,0.9624,0.9624,0.9624,0.9624,0.9624,0.9624,0.9624,0.9624,0.9624,0.9624,0.9624,0.9624,0.9624,0.9624,0.9624,0.9624,0.9624,0.9628,0.9636,0.9705,0.9766,1.0018,1.0209,1.0245,1.0172,1.0116,0.995,0.9728,0.9489,0.9272,0.9323,0.9434,0.9434,0.9761,1.0036,1.0363,1.0527,1.0747,1.0911,1.1076,1.1181,1.1291,1.1404,1.1295,1.1076,1.1021,1.0747,1.0472,1.0417,1.0091,0.9765,0.9599,0.9485,0.9268,0.9158,0.9106,0.8937,0.8881,0.8937,0.8937,0.9158,0.9323,0.9585,0.9751,0.9896,1.0168,1.0235,1.0269,1.0245,1.0209,1.0022,0.965,0.9325,0.9217,0.9187,0.9208,0.9273,0.9418,0.9483,0.9513,0.9731,0.9993,1.0348,1.0748,1.1119,1.1343,1.1461,1.1368,1.1447,1.1581,1.163,1.1646,1.1723,1.1837,1.1555,1.1259,1.0872,1.0707,1.0833,1.0918,1.0949,1.095,1.0944,1.1054,1.1228,1.1522,1.1732,1.206,1.2382,1.2713,0.992,0.9924,0.9673,0.9624,0.9624,0.9624,0.9624,0.9624,0.9624,0.9624,0.9624,0.9624,0.9624,0.9624,0.9624,0.9624,0.9624,0.9624,0.9624,0.9624,0.9624,0.9624,0.964,0.9669,0.9811,1.001,1.0249,1.0375,1.0469,1.0264,1.0002,0.9754,0.9485,0.9213,0.8992,0.8937,0.9051,0.9268,0.9489,0.9599,0.9926,1.0308,1.0527,1.0747,1.0857,1.1017,1.1072,1.1076,1.1076,1.0966,1.0747,1.0472,1.0253,1.0088,0.9761,0.9434,0.9323,0.9158,0.8937,0.8823,0.8826,0.8771,0.8826,0.8881,0.8881,0.8972,0.9082,0.9267,0.9432,0.964,0.991,1.0104,1.0128,1.0128,1.0116,1.0004,0.9712,0.9367,0.9344,0.933,0.9405,0.9452,0.9551,0.9615,0.9743,0.9906,1.0186,1.055,1.0906,1.131,1.1567,1.1671,1.1634,1.1695,1.176,1.1752,1.1736,1.1812,1.1776,1.1587,1.1269,1.0808,1.0552,1.068,1.0755,1.0844,1.0856,1.0833,1.0992,1.1071,1.1417,1.1678,1.1951,1.2278,1.2659,0.9677,0.9677,0.9624,0.9624,0.9624,0.9624,0.9624,0.9624,0.9624,0.9624,0.9624,0.9624,0.9624,0.9624,0.9624,0.9624,0.9624,0.9624,0.9624,0.9624,0.9624,0.9624,0.9697,0.9839,1.0046,1.0241,1.0354,1.0497,1.0462,1.0159,0.9871,0.9761,0.9213,0.8992,0.8937,0.8937,0.8937,0.9103,0.9272,0.9379,0.9596,0.9926,1.0308,1.0472,1.0637,1.0747,1.0802,1.0802,1.0802,1.0692,1.0527,1.0198,0.9978,0.9761,0.9434,0.9213,0.9051,0.8881,0.8768,0.8654,0.8598,0.838,0.8432,0.8654,0.8682,0.8729,0.8907,0.9054,0.9211,0.9458,0.9688,0.9908,0.9991,0.9951,0.9918,0.9712,0.9503,0.9279,0.9221,0.9313,0.9439,0.9557,0.9717,0.9751,0.9754,1.0004,1.0308,1.0671,1.0849,1.1281,1.1772,1.1776,1.1776,1.1837,1.1833,1.1828,1.1824,1.1833,1.1651,1.1345,1.0974,1.0607,1.0479,1.0415,1.0609,1.0729,1.0747,1.0643,1.0803,1.096,1.1384,1.1678,1.1951,1.2169,1.2495]}]]